     2.11           OBSERVATION DATA    G (GPS)             RINEX VERSION / TYPE
teqc 2010Oct21 OPUS Account 20111028 15:14:38UTC            PGM / RUN BY / DATE
Q 1522                                                      MARKER NAME
1170                                                        MARKER NUMBER
CSMIDDLETON NGS                                             OBSERVER / AGENCY
4624K01634 TRIMBLE NETR5 NP 70.55 / SP 451.54               REC # / TYPE / VERS
12668881 TRM41249.00 NONE                                   ANT # / TYPE
  -738054.0980 -5496299.3771  3140268.1193                  APPROX POSITION XYZ
        2.0000        0.0000        0.0000                  ANTENNA: DELTA H/E/N
     1     1                                                WAVELENGTH FACT L1/2
     5    L1    L2    C1    P1    P2                        # / TYPES OF OBSERV
  2011     8    23    15    35    0.0000000     GPS         TIME OF FIRST OBS
                                                            END OF HEADER
 11  8 23 15 35  0.0000000  0 10G07G08G10G20G16G13G23G06G03G19
   -890921.01217   -682212.95517  22568115.750
   -982662.82256   -731257.22353  24593758.0164                   24593763.2464
   -286718.34556   -215771.02553  23809745.6484                   23809749.5904
    808271.71956    631511.71553  24401677.3054                   24401681.1804
    774109.30957    607525.17155  22388786.3754                   22388786.9694
   -579779.63757   -420521.42856  20147881.4694                   20147881.5664
     78901.53458     70511.52256  20108777.2734                   20108775.8364
    186131.46657    161639.62655  22303860.9064                   22303863.2274
   -183361.03758   -104971.23156  20817698.5314                   20817699.9614
  -1043322.69657   -750450.59456  21521890.9614                   21521890.9924
 11  8 23 15 35 30.0000000  0 10G07G08G10G20G16G13G23G06G03G19
   -948570.119 7   -727134.296 6  22557144.672
  -1048636.22746   -782665.01643  24581204.5944                   24581209.1414
   -289505.62346   -217942.91643  23809214.2894                   23809219.3914
    895643.02046    699593.14243  24418304.2894                   24418306.9304
    860483.92247    674830.03345  22405222.9224                   22405222.9064
   -605873.34747   -440854.18146  20142916.1094                   20142916.2734
    109096.51048     94040.05446  20114523.2034                   20114521.5164
    228180.42447    194405.03745  22311862.5704                   22311864.4924
   -170412.05748    -94881.09946  20820162.8594                   20820164.0864
  -1101123.29047   -795489.98146  21510892.0864                   21510891.5864
 11  8 23 15 36  0.0000000  0 10G07G08G10G20G16G13G23G06G03G19
  -1006194.573 7   -772036.455 6  22546179.320
  -1114659.74546   -834111.83943  24568639.6174                   24568645.0274
   -291791.70746   -219724.28644  23808780.3674                   23808783.8364
    982914.51446    767596.81543  24434911.0704                   24434913.6054
    946981.70047    742230.86445  22421682.5314                   22421683.5944
   -631442.51748   -460778.19446  20138050.2734                   20138050.2384
    139856.26748    118008.67046  20120376.3834                   20120374.9144
    270749.16947    227575.48145  22319963.4144                   22319965.1994
   -156829.46948    -84297.25446  20822747.6094                   20822748.7974
  -1158452.77647   -840162.27246  21499982.7664                   21499982.4414
 11  8 23 15 36 30.0000000  0 10G07G08G10G20G16G13G23G06G03G19
  -1063796.225 7   -816920.810 7  22535217.789
  -1180735.78446   -885599.55843  24556066.2424                   24556070.9144
   -293579.71846   -221117.57143  23808439.7734                   23808442.9844
   1070081.67046    835519.18143  24451499.1724                   24451501.7074
   1033598.22947    809724.21645  22438165.2344                   22438166.4964
   -656487.85847   -480294.03046  20133284.2814                   20133284.6844
    171177.83448    142415.05846  20126336.9304                   20126335.4734
    313833.92947    261148.02245  22328162.2194                   22328164.0204
   -142615.80048    -73221.65546  20825452.0704                   20825453.5044
  -1215310.54947   -884466.99646  21489162.9454                   21489162.5234
 11  8 23 15 37  0.0000000  0 10G07G08G10G20G16G13G23G06G03G19
  -1121373.879 7   -861786.456 7  22524261.305
  -1246863.38346   -937127.44843  24543482.3754                   24543486.4964
   -294869.42646   -222122.52643  23808194.1954                   23808197.3714
   1157143.20846    903359.24643  24468067.0864                   24468069.8714
   1120332.56347    877309.36945  22454669.9384                   22454671.0004
   -681006.14048   -499399.17246  20128618.5084                   20128619.0824
    203062.12748    167259.95046  20132404.2424                   20132402.7584
    357434.78047    295122.68844  22336459.0164                   22336461.0984
   -127769.83648    -61653.35545  20828277.2664                   20828278.5784
  -1271693.01547   -928401.33646  21478433.3674                   21478433.7344
 11  8 23 15 37 30.0000000  0 10G07G08G10G20G16G13G23G06G03G19
  -1178926.781 7   -906632.845 7  22513309.414
  -1313042.25946   -988695.31743  24530888.6414                   24530893.2114
   -295661.10946   -222739.41943  23808043.2734                   23808046.6684
   1244097.01746    971115.36243  24484612.0004                   24484616.6484
   1207182.87547    944984.90145  22471197.3364                   22471197.8364
   -704995.24548   -518091.96846  20124053.5634                   20124053.5864
    235509.27848    192543.42746  20138578.9774                   20138577.2074
    401550.90547    329498.88245  22344854.3674                   22344856.2734
   -112291.97048    -49592.66045  20831222.5634                   20831223.5904
  -1327596.93247   -971962.78846  21467795.3984                   21467795.0784
 11  8 23 15 38  0.0000000  0 10G07G08G10G20G16G13G23G06G03G19
  -1236454.174 7   -951459.346 7  22502362.047
  -1379273.20046  -1040303.67343  24518284.7734                   24518289.9884
   -295956.10846   -222969.29443  23807986.9534                   23807990.1374
   1330940.14046   1038785.27943  24501138.6414                   24501142.1684
   1294146.56247   1012748.78245  22487746.3984                   22487746.0704
   -728453.83147   -536371.37346  20119589.7034                   20119589.6884
    268518.77848    218265.10046  20144860.4454                   20144859.1884
    446180.57147    364275.23145  22353347.3674                   22353349.3484
    -96182.64248    -37039.92445  20834287.8834                   20834289.4574
  -1383020.34247  -1015149.82546  21457248.8364                   21457248.4264
 11  8 23 15 38 30.0000000  0 10G07G08G10G20G16G13G23G06G03G19
  -1293956.935 7   -996266.650 7  22491419.695
  -1445556.52846  -1091952.93143  24505672.1884                   24505677.1644
   -295755.23046   -222812.74543  23808024.3364                   23808028.2464
   1417669.60846   1106366.57442  24517643.2424                   24517646.7704
   1381220.81347   1080598.82945  22504315.7504                   22504316.1414
   -751380.61847   -554236.39946  20115226.6884                   20115227.0594
    302089.60148    244424.16446  20151248.3834                   20151247.1094
    491321.88147    399450.25145  22361937.2894                   22361939.1134
    -79443.00248    -23996.02045  20837472.7734                   20837474.7304
  -1437960.71548  -1057960.47546  21446794.1644                   21446793.4144
 11  8 23 15 39  0.0000000  0 10G07G08G10G20G16G13G23G06G03G19
  -1351434.689 7  -1041054.474 7  22480481.719
  -1511893.27746  -1143643.78943  24493048.3054                   24493052.3794
   -295059.86246   -222270.91043  23808156.9694                   23808160.9614
   1504282.91946   1173857.40742  24534125.0004                   24534128.0904
   1468403.74347   1148533.55045  22520906.2664                   22520906.4304
   -773774.51547   -571686.18346  20110965.4304                   20110965.6054
    336221.17948    271020.18446  20157743.4774                   20157742.4024
    536973.34247    435022.80645  22370623.8984                   22370626.3674
    -62073.24648    -10461.14445  20840778.7274                   20840780.0594
  -1492416.02047  -1100393.13446  21436431.4454                   21436430.8984
 11  8 23 15 39 30.0000000  0 10G07G08G10G20G16G13G23G06G03G19
  -1408886.771 7  -1085822.278 7  22469549.211
  -1578283.02846  -1195375.99143  24480414.4384                   24480419.5634
   -293870.33046   -221344.00943  23808383.9224                   23808388.0044
   1590778.17346   1241256.20743  24550583.9924                   24550587.2234
   1555692.88847   1216551.04045  22537516.4304                   22537517.4494
   -795633.28047   -588718.98146  20106805.6804                   20106805.7734
    370913.85348    298053.41346  20164345.1414                   20164344.0514
    583134.07047    470992.18345  22379408.4304                   22379410.3164
    -44073.46048      3564.68545  20844203.9224                   20844205.5704
  -1546383.36147  -1142445.56846  21426161.6644                   21426161.4574
 11  8 23 15 40  0.0000000  0 10G07G08G10G20G16G13G23G06G03G19
  -1466312.550 7  -1130569.589 7  22458621.336
  -1644725.68946  -1247149.49343  24467771.3204                   24467775.2304
   -292187.41546   -220032.62443  23808703.1804                   23808708.0164
   1677152.94146   1308561.11043  24567021.0634                   24567024.0084
   1643086.49647   1284649.92345  22554147.3284                   22554147.5634
   -816955.22748   -605333.47346  20102748.5944                   20102748.3324
    406166.88148    325523.29346  20171053.7344                   20171052.1954
    629802.46447    507357.14845  22388289.2664                   22388290.9414
    -25444.30948     18080.91345  20847748.5554                   20847750.2934
  -1599860.10447  -1184115.71346  21415985.0474                   21415984.6604
 11  8 23 15 40 30.0000000  0 10G07G08G10G20G16G13G23G06G03G19
  -1523711.670 7  -1175296.109 7  22447697.961
  -1711221.69646  -1298964.39043  24455116.8054                   24455121.9494
   -290012.04046   -218337.56143  23809119.0784                   23809122.6914
   1763404.69546   1375770.23943  24583433.2734                   24583437.3364
   1730582.28947   1352828.42045  22570796.7424                   22570798.0204
   -837738.53048   -621528.25546  20098793.2194                   20098793.6684
    441979.93648    353429.54946  20177868.8284                   20177867.5274
    676977.34147    544116.77345  22397266.3444                   22397268.2304
     -6186.27448     33087.18845  20851413.4304                   20851415.0594
  -1652843.48148  -1225401.42946  21405902.5164                   21405902.7074
 11  8 23 15 41  0.0000000  0 10G07G08G10G20G16G13G23G06G03G19
  -1581083.756 7  -1220001.564 7  22436780.555
  -1777770.87146  -1350820.83543  24442453.6174                   24442457.7854
   -287345.19346   -216259.43143  23809626.2344                   23809629.4224
   1849531.09046   1442881.63443  24599823.6254                   24599827.2624
   1818178.26347   1421085.00745  22587466.3674                   22587466.5514
   -857981.73148   -637302.18346  20094941.4064                   20094941.5704
    478352.41048    381771.70946  20184790.2734                   20184789.1764
    724657.04847    581269.77045  22406339.7274                   22406341.2974
     13700.04248     48583.02146  20855197.9064                   20855199.3834
  -1705331.24048  -1266300.94646  21395914.6334                   21395914.3244
 11  8 23 15 41 30.0000000  0 10G07G08G10G20G16G13G23G06G03G19
  -1638429.323 7  -1264686.393 7  22425868.516
  -1844374.68446  -1402719.82543  24429779.7194                   24429782.5164
   -284188.66646   -213799.81543  23810226.9144                   23810230.1374
   1935528.84246   1509892.79643  24616188.1414                   24616192.4184
   1905871.44247   1489417.33544  22604153.2504                   22604154.0084
   -877683.96648   -652654.56646  20091192.1484                   20091192.6914
    515283.16548    410548.90746  20191817.7034                   20191816.7734
    772839.36447    618814.41744  22415508.5474                   22415509.6804
     34213.31848     64567.38746  20859101.2034                   20859102.7194
  -1757321.55948  -1306812.84246  21386021.4304                   21386020.5084
 11  8 23 15 42  0.0000000  0 10G07G08G10G20G16G13G23G06G03G19
  -1695746.580 7  -1309349.161 7  22414961.516
  -1911031.46146  -1454660.07143  24417095.1804                   24417099.0354
   -280542.36446   -210958.51643  23810920.0634                   23810924.0634
   2021397.03546   1576802.98243  24632528.8444                   24632531.8284
   1993660.95747   1557824.71245  22620859.1174                   22620859.7814
   -896842.44348   -667583.24546  20087546.3914                   20087546.7664
    552773.00248    439761.75646  20198951.6954                   20198950.8404
    821524.26547    656750.67445  22424772.9534                   22424774.3204
     55354.23548     81040.83245  20863124.3594                   20863125.6604
  -1808811.02548  -1346934.46946  21376223.5554                   21376222.8524
 11  8 23 15 42 30.0000000  0 10G07G08G10G20G16G13G23G06G03G19
  -1753035.475 7  -1353989.829 7  22404059.633
  -1977742.41046  -1506642.56943  24404400.4224                   24404403.8594
   -276407.60146   -207736.64443  23811706.8054                   23811711.0514
   2107132.69446   1643609.91043  24648843.3444                   24648847.5354
   2081544.10647   1626305.05645  22637583.3364                   22637583.8324
   -915456.28248   -682087.52846  20084004.3594                   20084004.3134
    590821.01048    469409.53146  20206192.4534                   20206190.7274
    870709.38347    695076.72545  22434132.3364                   22434133.6644
     77121.60048     98002.41545  20867266.1724                   20867267.9694
  -1859797.46648  -1386664.12646  21366520.7814                   21366520.6334
 11  8 23 15 43  0.0000000  0 10G07G08G10G20G16G13G23G06G03G19
  -1810295.830 7  -1398608.244 7  22393163.414
  -2044507.81046  -1558667.41643  24391695.1174                   24391698.2034
   -271785.47346   -204135.00443  23812586.8914                   23812590.3914
   2192733.12946   1710311.48143  24665132.2814                   24665136.8244
   2169518.74247   1694856.70245  22654324.2814                   22654324.2854
   -933523.94048   -696166.22646  20080566.0084                   20080566.3484
    629426.30548    499491.55646  20213538.4304                   20213537.6334
    920393.35247    733791.49845  22443586.9454                   22443588.6524
     99514.76148    115451.62445  20871527.9224                   20871528.6134
  -1910278.53447  -1425999.98546  21356914.7274                   21356914.3714
 11  8 23 15 43 30.0000000  0 10G07G08G10G20G16G13G23G06G03G19
  -1867526.238 7  -1443203.343 7  22382272.031
  -2111327.03946  -1610734.22643  24378979.4534                   24378982.4024
   -266675.90946   -200153.51943  23813559.1954                   23813562.3954
   2278197.07446   1776906.67543  24681396.0554                   24681400.4734
   2257583.53847   1763478.58845  22671082.2344                   22671082.9964
   -951043.53848   -709817.86046  20077232.0944                   20077232.4734
    668588.75548    530007.72746  20220991.1484                   20220989.8874
    970575.34647    772894.34245  22453136.4144                   22453138.3554
    122533.84648    133388.57845  20875908.2114                   20875909.4924
  -1960250.99747  -1464939.53146  21347404.8134                   21347404.3634
 11  8 23 15 44  0.0000000  0 10G07G08G10G20G16G13G23G06G03G19
  -1924728.165 7  -1487776.242 7  22371387.188
  -2178201.64046  -1662844.22443  24366253.2274                   24366257.1954
   -261082.11746   -195794.73643  23814623.1564                   23814627.6134
   2363520.33346   1843392.28643  24697632.8364                   24697637.1294
   2345734.70347   1832167.76944  22687856.6414                   22687857.3284
   -968014.84548   -723042.25346  20074002.6564                   20074003.1414
    708306.41748    560956.54246  20228549.1174                   20228547.8674
   1021252.18047    812382.77145  22462779.8284                   22462781.7584
    146176.70348    151811.56745  20880407.1334                   20880408.9454
  -2009714.49847  -1503482.49246  21337992.4304                   21337992.2664
 11  8 23 15 44 30.0000000  0 10G07G08G10G20G16G13G23G06G03G19
  -1981899.442 7  -1532325.254 7  22360507.992
  -2245129.98546  -1714996.09343  24353516.9774                   24353521.1604
   -255003.14746   -191057.90743  23815780.1174                   23815783.5234
   2448702.19146   1909767.69142  24713841.7114                   24713846.6844
   2433971.69947   1900923.84845  22704647.6564                   22704648.8714
   -984434.88548   -735837.08746  20070878.1254                   20070878.3554
    748580.24148    592338.71546  20236212.8364                   20236211.4654
   1072423.82647    852256.78345  22472517.7274                   22472519.0474
    170444.13848    170721.25245  20885024.9774                   20885027.0744
  -2058664.81448  -1541625.56546  21328677.0634                   21328676.9964
 11  8 23 15 45  0.0000000  0 10G07G08G10G20G16G13G23G06G03G19
  -2039040.893 7  -1576851.040 7  22349634.594
  -2312113.82946  -1767191.19543  24340770.6564                   24340775.1094
   -248441.93046   -185945.25243  23817029.4144                   23817032.2544
   2533739.15946   1976030.21542  24730023.8754                   24730028.9024
   2522291.31147   1969744.28044  22721454.4454                   22721454.8094
  -1000303.49948   -748202.24246  20067858.1804                   20067858.7344
    789408.28348    624152.76346  20243982.3054                   20243980.6914
   1124087.49347    892514.17645  22482348.7194                   22482350.3204
    195333.72348    190115.72945  20889761.4144                   20889762.6054
  -2107100.75148  -1579367.83246  21319460.5004                   21319459.5984
 11  8 23 15 45 30.0000000  0 10G07G08G10G20G16G13G23G06G03G19
  -2096151.516 7  -1621352.775 7  22338767.203
  -2379152.65246  -1819429.15043  24328014.1804                   24328018.0124
   -241398.76346   -180457.14443  23818369.1644                   23818372.4414
   2618629.21646   2042178.19142  24746178.0784                   24746182.8674
   2610691.97547   2038627.88544  22738276.5554                   22738277.0274
  -1015618.66948   -760136.13946  20064944.0314                   20064944.2814
    830790.42648    656398.56046  20251857.1644                   20251855.6484
   1176242.06147    933154.10245  22492273.3984                   22492275.5744
    220845.45147    209994.98545  20894616.2664                   20894617.7074
  -2155019.68848  -1616707.22746  21310341.5004                   21310341.0044
 11  8 23 15 46  0.0000000  0 10G07G08G10G20G16G13G23G06G03G19
  -2153231.233 7  -1665830.433 7  22327905.055
  -2446247.03746  -1871710.38143  24315245.8754                   24315250.0744
   -233875.27546   -174594.68243  23819800.7114                   23819804.1644
   2703369.53446   2108209.62842  24762304.5784                   24762308.6644
   2699171.06447   2107572.61244  22755113.0474                   22755114.1134
  -1030379.50448   -771638.08646  20062134.9924                   20062135.5274
    872725.36748    689075.12446  20259837.0314                   20259835.5744
   1228885.56847    974174.99044  22502291.3674                   22502293.0824
    246978.04747    230358.02045  20899588.9144                   20899590.6334
  -2202419.76248  -1653642.32446  21301322.0234                   21301321.2304
 11  8 23 15 46 30.0000000  0 10G07G08G10G20G16G13G23G06G03G19
  -2210277.554 7  -1710282.073 7  22317049.406
  -2513395.40946  -1924033.70643  24302468.7894                   24302471.8674
   -225870.71046   -168357.39943  23821324.2194                   23821328.3914
   2787959.96545   2174124.03942  24778401.2894                   24778405.8444
   2787728.56747   2176578.42244  22771965.8984                   22771966.4344
  -1044582.60048   -782705.43346  20059432.4384                   20059432.6484
    915214.35348    722183.40346  20267922.8444                   20267921.2114
   1282017.97747   1015576.86444  22512402.0784                   22512404.0474
    273732.58548    251205.71445  20904680.5474                   20904681.8524
  -2249296.73947  -1690169.80046  21292401.4144                   21292401.1844
 11  8 23 15 47  0.0000000  0  9G07G08G10G16G13G23G06G03G19
  -2267293.216 7  -1754709.808 7  22306199.281
  -2580600.94746  -1976401.56343  24289679.3914                   24289682.7584
   -217389.06246   -161748.29043  23822938.7734                   23822942.0944
   2876359.43447   2245641.42145  22788831.8754                   22788832.5044
  -1058229.98047   -793339.76146  20056835.1414                   20056835.6174
    958253.49248    755720.38446  20276112.7034                   20276111.1724
   1335634.66747   1057356.09345  22522604.8204                   22522606.8834
    301105.03948    272534.89145  20909889.0164                   20909890.3324
  -2295651.40647  -1726290.30646  21283580.3054                   21283579.5944
 11  8 23 15 47 30.0000000  0  9G07G08G10G16G13G23G06G03G19
  -2324274.889 7  -1799111.068 7  22295356.594
  -2647861.20646  -2028812.09143  24276879.8594                   24276883.5314
   -208429.62746   -154766.95043  23824643.4304                   23824647.0124
   2965063.85147   2314761.73345  22805711.7344                   22805711.6024
  -1071317.95648   -803538.18946  20054345.1334                   20054345.1174
   1001844.42948    789687.32846  20284407.8754                   20284406.2734
   1389736.41147   1099513.30445  22532900.2974                   22532901.9964
    329096.88148    294346.71145  20915215.9534                   20915217.2194
  -2341479.07148  -1762000.14146  21274859.5314                   21274858.9614
 11  8 23 15 48  0.0000000  0  9G07G08G10G16G13G23G06G03G19
  -2381223.386 7  -1843486.481 7  22284519.219
  -2715177.11946  -2081265.90743  24264070.1254                   24264072.8554
   -198994.09646   -147414.55843  23826438.6174                   23826442.9264
   3053839.20947   2383937.32444  22822604.9384                   22822605.8014
  -1083845.83648   -813300.18046  20051960.9534                   20051961.0864
   1045985.38148    824082.85746  20292807.4924                   20292806.1804
   1444320.71547   1142046.53244  22543287.5944                   22543288.4264
    357706.61547    316639.99445  20920659.7664                   20920661.3984
  -2386778.42247  -1797298.31646  21266239.2974                   21266239.0744
 11  8 23 15 48 30.0000000  0  9G07G08G10G16G13G23G06G03G19
  -2438137.928 7  -1887835.426 7  22273688.719
  -2782548.50646  -2133762.99443  24251249.5084                   24251252.3484
   -189083.82246   -139692.29543  23828325.1484                   23828328.3094
   3142683.34247   2453166.46444  22839511.2584                   22839511.9774
  -1095812.22248   -822624.64146  20049683.4224                   20049683.8094
   1090675.67448    858906.43746  20301311.5554                   20301310.2774
   1499385.81547   1184954.39244  22553765.4844                   22553767.1804
    386932.95448    339413.75845  20926222.1024                   20926222.7304
  -2431547.35548  -1832183.16146  21257720.0634                   21257719.5984
 11  8 23 15 49  0.0000000  0  9G07G08G10G16G13G23G06G03G19
  -2495017.609 7  -1932157.180 7  22262865.188
  -2849975.29146  -2186303.27643  24238418.4384                   24238421.6644
   -178699.61646   -131600.69043  23830301.2274                   23830305.2194
   3231594.69147   2522448.01344  22856430.4304                   22856431.3834
  -1107215.31848   -831510.17346  20047513.5944                   20047513.8554
   1135914.76548    894157.65746  20309920.3054                   20309919.4454
   1554930.44747   1228235.90444  22564335.6254                   22564337.6024
    416775.37047    362667.57945  20931900.8364                   20931901.8674
  -2475783.15048  -1866652.57646  21249302.2664                   21249301.6884
 11  8 23 15 49 30.0000000  0  9G07G08G10G16G13G23G06G03G19
  -2551862.603 7  -1976451.938 7  22252047.953
  -2917458.36846  -2238887.35643  24225577.4534                   24225580.6484
   -167843.43746   -123141.35743  23832366.8524                   23832370.6884
   3320570.59847   2591779.82744  22873362.2114                   22873362.7894
  -1118054.97448   -839956.65946  20045450.7664                   20045451.0784
   1181701.16548    929835.35546  20318633.1724                   20318631.7664
   1610951.93047   1271889.00644  22574995.8834                   22574997.3054
    447232.23247    386400.17245  20937696.2034                   20937697.9024
  -2519484.51548  -1900705.56346  21240986.1334                   21240985.5634
 11  8 23 15 50  0.0000000  0  9G07G08G10G16G13G23G06G03G19
  -2608673.096 7  -2020719.794 7  22241236.719
  -2984998.25146  -2291515.76543  24212724.5314                   24212728.2114
   -156517.58646   -114316.02443  23834521.7664                   23834526.2934
   3409608.47447   2661159.98744  22890305.3284                   22890306.1994
  -1128330.87248   -847963.85246  20043495.6954                   20043495.7774
   1228033.05448    965938.10146  20327450.1174                   20327448.7194
   1667447.93347   1315911.84545  22585746.8204                   22585749.0204
    478301.64647    410610.10145  20943608.6884                   20943609.9964
  -2562650.05748  -1934341.01446  21232772.0084                   21232771.4574
 11  8 23 15 50 30.0000000  0  9G07G08G10G16G13G23G06G03G19
  -2665446.319 7  -2064958.628 7  22230432.914
  -3052592.70146  -2344186.69943  24199861.8754                   24199865.8244
   -144721.15646   -105123.99843  23836766.3674                   23836770.3404
   3498708.54947   2730588.57944  22907260.6724                   22907261.4224
  -1138039.59747   -855529.09746  20041648.1174                   20041648.2384
   1274912.35748   1002467.40646  20336370.7974                   20336369.6414
   1724418.97047   1360304.85245  22596587.9924                   22596590.5044
    509985.06047    435298.46945  20949637.7894                   20949639.1214
  -2605275.29648  -1967555.46246  21224660.3984                   21224660.1414
 11  8 23 15 51  0.0000000  0  9G07G08G10G16G13G23G06G03G19
  -2722183.429 7  -2109169.298 7  22219636.672
  -3120243.83846  -2396901.79543  24186988.7894                   24186992.3594
   -132457.38446    -95567.83044  23839100.8754                   23839104.0704
   3587866.79547   2800062.52244  22924227.3754                   22924228.0084
  -1147181.31647   -862652.51446  20039908.2424                   20039908.5704
   1322335.50048   1039420.48846  20345395.3364                   20345394.1804
   1781861.21547   1405065.01345  22607518.9534                   22607521.1994
    542279.36348    460462.85145  20955783.1884                   20955784.7774
  -2647360.11348  -2000348.78846  21216652.0164                   21216651.6644
 11  8 23 15 51 30.0000000  0  9G07G08G10G16G13G23G06G03G19
  -2778883.796 7  -2153351.363 7  22208846.016
  -3187952.02646  -2449661.33643  24174102.8364                   24174106.9224
   -119727.65447    -85648.57343  23841522.8204                   23841526.1764
   3677081.45347   2869580.39344  22941204.0084                   22941205.0124
  -1155755.03048   -869333.32846  20038276.9694                   20038277.5864
   1370301.69748   1076796.72646  20354522.7584                   20354521.8444
   1839772.88947   1450190.98545  22618539.4774                   22618541.4184
    575183.35847    486102.31145  20962044.7424                   20962046.1294
  -2688902.57648  -2032719.52646  21208746.8984                   21208746.4304
 11  8 23 15 52  0.0000000  0  9G07G08G10G16G13G23G06G03G19
  -2835543.872 7  -2197502.016 7  22198064.352
  -3255713.77446  -2502462.61243  24161208.6644                   24161212.5704
   -106529.87547    -75364.59543  23844033.6644                   23844037.4614
   3766353.65047   2939143.10044  22958191.6414                   22958192.8204
  -1163756.22248   -875568.02646  20036754.4924                   20036754.8404
   1418813.08548   1114597.77846  20363754.3444                   20363753.4884
   1898155.48047   1495683.89545  22629648.2664                   22629651.2424
    608699.21047    512218.56045  20968422.3674                   20968423.8984
  -2729897.27848  -2064663.43146  21200945.9614                   21200945.3324
 11  8 23 15 52 30.0000000  0  9G07G08G10G16G13G23G06G03G19
  -2892168.732 7  -2241625.250 7  22187289.227
  -3323535.08346  -2555310.27743  24148302.4064                   24148306.4104
    -92871.30847    -64721.57144  23846633.4384                   23846636.7814
   3855675.63747   3008744.56744  22975189.2194                   22975190.9964
  -1171190.47948   -881360.96046  20035339.6174                   20035340.1914
   1467862.84148   1152818.34646  20373088.1644                   20373087.1214
   1957001.00547   1541537.53444  22640846.9694                   22640849.1214
    642819.72247    538805.96645  20974915.1174                   20974916.4614
  -2770348.07948  -2096183.51146  21193248.1884                   21193247.8954
 11  8 23 15 53  0.0000000  0  9G07G08G10G16G13G23G06G03G19
  -2948751.924 7  -2285715.995 7  22176521.633
  -3391410.03046  -2608199.71243  24135386.7034                   24135389.5704
    -78747.89047    -53716.28744  23849320.8364                   23849324.2114
   3945051.28647   3078387.88344  22992197.2894                   22992197.9454
  -1178050.49948   -886706.42846  20034034.1724                   20034034.4264
   1517455.90848   1191462.26346  20382525.3984                   20382524.4494
   2016313.63647   1587755.16244  22652133.5234                   22652135.5864
    677549.34648    565868.00345  20981524.1174                   20981525.9454
  -2810247.47148  -2127273.92446  21185655.7344                   21185654.9224
 11  8 23 15 53 30.0000000  0  9G07G08G10G16G13G23G06G03G19
  -3005296.802 7  -2329776.914 7  22165761.336
  -3459342.46246  -2661133.98643  24122458.5784                   24122462.4144
    -64164.63547    -42352.73344  23852096.2424                   23852099.2734
   4034474.89747   3148068.58644  23009214.2894                   23009214.9264
  -1184338.70148   -891606.32946  20032838.1954                   20032838.2704
   1567587.25748   1230525.61646  20392064.9694                   20392064.0124
   2076087.80547   1634332.42344  22663508.3204                   22663510.7894
    712883.42748    593401.04745  20988247.8594                   20988248.9884
  -2849596.78748  -2157935.71446  21178167.8134                   21178166.9224
 11  8 23 15 54  0.0000000  0  9G07G08G10G16G13G23G06G03G19
  -3061801.093 7  -2373806.172 7  22155009.273
  -3527330.98246  -2714111.99043  24109521.8674                   24109523.9454
    -49121.81347    -30631.05743  23854958.2974                   23854961.7154
   4123946.22047   3217786.46044  23026239.8754                   23026240.9534
  -1190052.84448   -896058.90746  20031750.6564                   20031750.6644
   1618257.32748   1270008.76246  20401706.9454                   20401706.1684
   2136322.91347   1681268.86544  22674970.9774                   22674972.7074
    748821.95447    621405.11245  20995087.0394                   20995087.9884
  -2888392.78448  -2188166.34546  21170785.2814                   21170784.5204
 11  8 23 15 54 30.0000000  0  9G07G08G10G16G13G23G06G03G19
  -3118263.979 7  -2417803.197 7  22144264.727
  -3595375.26246  -2767133.40343  24096573.0164                   24096576.0554
    -33620.60946    -18552.22643  23857908.1954                   23857911.5824
   4213463.58047   3287540.21744  23043274.1414                   23043275.4224
  -1195191.61848   -900063.14846  20030772.4064                   20030772.4144
   1669465.33148   1309911.06746  20411451.9694                   20411450.9104
   2197017.26347   1728563.14444  22686521.0004                   22686522.2934
    785364.09647    649879.50045  21002040.3834                   21002041.6414
  -2926633.28748  -2217964.12046  21163507.6724                   21163507.3444
 11  8 23 15 55  0.0000000  0  9G07G08G10G16G13G23G06G03G19
  -3174686.049 7  -2461768.426 7  22133527.766
  -3663476.79847  -2820199.48343  24083614.3054                   24083616.0634
    -17663.38347     -6118.00843  23860945.2344                   23860947.8984
   4303023.87447   3357327.41644  23060317.3204                   23060318.0234
  -1199755.53248   -903619.44746  20029904.1414                   20029903.9964
   1721208.50748   1350230.39546  20421298.3594                   20421296.7934
   2258167.79647   1776212.89444  22698157.1484                   22698158.7774
    822507.43048    678822.36945  21009108.6254                   21009110.2504
  -2964317.83748  -2247328.67146  21156337.1254                   21156336.1054
 11  8 23 15 55 30.0000000  0  9G07G08G10G16G13G23G06G03G19
  -3231065.966 7  -2505700.780 7  22122799.305
  -3731634.75846  -2873309.49743  24070643.3284                   24070646.1334
     -1251.21547      6670.68543  23864068.1094                   23864071.3874
   4392625.95647   3427147.17844  23077367.7974                   23077368.7734
  -1203742.46448   -906726.14946  20029145.6024                   20029145.5124
   1773486.73148   1390966.64946  20431246.6724                   20431245.6454
   2319773.15747   1824217.07644  22709880.2344                   22709881.9184
    860251.02247    708232.96945  21016290.7734                   21016292.1684
  -3001443.85248  -2276258.01846  21149271.8284                   21149271.2274
 11  8 23 15 56  0.0000000  0  9G07G08G10G16G13G23G06G03G19
  -3287403.052 7  -2549599.772 7  22112078.266
  -3799849.06246  -2926463.44243  24057663.1724                   24057665.7384
     15613.98847     19812.39944  23867277.2584                   23867280.7704
   4482267.53747   3496997.71444  23094426.4224                   23094427.1214
  -1207151.97848   -909382.90246  20028496.6804                   20028496.8364
   1826298.52148   1432118.66046  20441296.4304                   20441295.3874
   2381831.34847   1872574.07544  22721690.0864                   22721691.7464
    898593.43148    738110.17645  21023587.8914                   21023588.9774
  -3038009.45648  -2304750.67246  21142313.7814                   21142313.3244
 11  8 23 15 56 30.0000000  0  9G07G08G10G16G13G23G06G03G19
  -3343695.656 7  -2593464.094 7  22101366.031
  -3868118.84046  -2979660.58443  24044671.2584                   24044675.0434
     32932.02246     33306.98643  23870572.9774                   23870576.2774
   4571948.13747   3566878.64744  23111491.4694                   23111492.3404
  -1209981.89748   -911588.03546  20027958.0554                   20027958.4064
   1879643.99948   1473686.53446  20451447.5084                   20451446.1994
   2444341.54547   1921283.30044  22733585.5784                   22733586.5394
    937534.45148    768453.81345  21030997.6644                   21030998.9104
  -3074011.69848  -2332804.33746  21135463.1334                   21135462.3594
 11  8 23 15 57  0.0000000  0  9G07G08G10G16G13G23G06G03G19
  -3399943.738 7  -2637293.736 7  22090662.281
  -3936444.64746  -3032901.38243  24031668.9774                   24031672.4104
     50700.37847     47152.46843  23873954.3444                   23873958.0084
   4661665.18647   3636787.99244  23128564.2584                   23128565.1994
  -1212231.94548   -913341.31646  20027530.2344                   20027530.0704
   1933521.03148   1515668.61146  20461699.9694                   20461698.8834
   2507300.97647   1970342.59444  22745566.0164                   22745567.2384
    977071.60048    799261.97345  21038521.4064                   21038522.3754
  -3109449.67548  -2360418.33946  21128719.4384                   21128718.6024
 11  8 23 15 57 30.0000000  0  9G07G08G10G16G13G23G06G03G19
  -3456146.994 7  -2681088.453 7  22079967.727
  -4004826.82046  -3086186.15843  24018656.7814                   24018661.0474
     68917.45346     61347.60743  23877419.8834                   23877424.6024
   4751416.70647   3706724.20044  23145643.6024                   23145644.4494
  -1213902.00848   -914642.66446  20027212.3054                   20027212.3794
   1987927.89248   1558063.53046  20472053.6804                   20472052.2154
   2570707.16147   2019750.00544  22757632.2274                   22757633.4264
   1017203.59248    830533.66245  21046158.4454                   21046159.7664
  -3144321.99348  -2387591.54446  21122083.0474                   21122082.5474
 11  8 23 15 58  0.0000000  0  9G07G08G10G16G13G23G06G03G19
  -3512305.647 8  -2724848.401 7  22069280.945
  -4073265.94846  -3139515.28743  24005633.6564                   24005636.4534
     87580.65846     75890.38043  23880971.8834                   23880975.8794
   4841199.73147   3776684.97644  23162728.9924                   23162728.6374
  -1214991.87148   -915491.90546  20027004.5704                   20027004.8164
   2042862.88648   1600869.99346  20482507.5314                   20482506.1054
   2634557.36947   2069503.38944  22769782.2504                   22769783.3984
   1057928.07348    862267.01645  21053908.2664                   21053908.9964
  -3178627.42847  -2414323.03846  21115555.1804                   21115554.5944
 11  8 23 15 58 30.0000000  0  9G07G08G10G16G13G23G06G03G19
  -3568417.663 7  -2768572.011 7  22058602.938
  -4141761.18446  -3192888.12243  23992598.3134                   23992601.8914
    106689.35846     90780.27943  23884608.3914                   23884612.8204
   4931013.78647   3846669.91044  23179820.5864                   23179820.7934
  -1215499.35848   -915887.35346  20026907.7114                   20026908.2774
   2098325.53748   1644087.61646  20493061.4144                   20493060.2664
   2698850.76147   2119602.10944  22782016.5864                   22782017.7384
   1099244.34648    894461.49945  21061770.2664                   21061771.6844
  -3212363.28048  -2440610.69846  21109135.4224                   21109134.6334
 11  8 23 15 59  0.0000000  0  9G07G08G10G16G13G23G06G03G19
  -3624483.411 8  -2812259.569 7  22047933.977
  -4210313.20447  -3246305.20543  23979553.8984                   23979557.0164
    126240.64846    106015.00643  23888328.2584                   23888333.1254
   5020856.26847   3916677.02444  23196915.9694                   23196917.0274
  -1215424.90948   -915829.34246  20026922.5864                   20026922.5664
   2154313.42648   1687714.51846  20503715.6884                   20503714.2704
   2763584.40247   2170043.88144  22794335.1954                   22794336.5744
   1141150.11648    927115.33245  21069744.7114                   21069745.2854
  -3245528.92047  -2466454.01746  21102824.3054                   21102823.4494
 11  8 23 15 59 30.0000000  0  9G07G08G10G16G13G23G06G03G19
  -3680499.747 7  -2855908.618 7  22037274.102
  -4278919.60347  -3299764.60243  23966497.8834                   23966501.5204
    146235.52046    121595.45343  23892133.4924                   23892137.4534
   5110727.45547   3986706.46044  23214018.1884                   23214018.9614
  -1214765.11347   -915315.21646  20027047.8594                   20027048.0594
   2210827.72948   1731751.60146  20514470.3054                   20514468.8874
   2828758.53447   2220828.88344  22806737.2114                   22806738.5634
   1183646.33348    960229.26245  21077831.3914                   21077832.2194
  -3278120.03747  -2491849.66446  21096622.5314                   21096621.5824
 11  8 23 16  0  0.0000000  0  9G07G08G10G16G13G23G06G03G19
  -3736467.526 7  -2899519.847 7  22026623.758
  -4347582.14447  -3353267.81743  23953432.5554                   23953435.5084
    166670.82646    137519.05243  23896022.3444                   23896026.1024
   5200624.11246   4056755.77144  23231125.5634                   23231125.9184
  -1213521.24348   -914345.95946  20027284.8134                   20027284.9574
   2267865.43548   1776196.54046  20525323.8914                   20525322.8634
   2894369.51747   2271954.30444  22819222.9384                   22819224.3914
   1226729.90248    993800.85645  21086030.2114                   21086031.3324
  -3310136.91647  -2516797.86146  21090529.5554                   21090528.8874
 11  8 23 16  0 30.0000000  0  9G07G08G10G16G13G23G06G03G19
  -3792384.919 7  -2943091.828 7  22015983.172
  -4416299.83347  -3406813.95743  23940355.2974                   23940358.8164
    187545.25746    153784.82543  23899994.5084                   23899998.2114
   5290545.15946   4126824.07344  23248236.6024                   23248237.8834
  -1211691.86547   -912920.47646  20027632.8594                   20027632.9224
   2325425.80648   1821048.73846  20536277.3834                   20536276.6294
   2960415.73347   2323418.88244  22831790.9064                   22831792.5514
   1270399.71248   1027829.27845  21094340.4844                   21094341.1764
  -3341577.29747  -2541296.83046  21084546.4844                   21084545.9184
 11  8 23 16  1  0.0000000  0 10G07G08G10G28G16G13G23G06G03G19
  -3848258.882 7  -2986629.937 7  22005351.172
  -4485079.11447  -3460408.11943  23927267.3204                   23927269.8164
    208850.08346    170385.97443  23904048.9534                   23904053.1094
   -333686.62856   -221592.13853  24661351.3364                   24661353.8204
   5380481.77347   4196904.52444  23265351.4304                   23265352.3444
  -1209282.95148   -911043.39546  20028091.0164                   20028091.2344
   2383500.77748   1866301.93746  20547328.6724                   20547327.3674
   3026888.33047   2375215.66044  22844440.3754                   22844441.7234
   1314647.28848   1062307.90645  21102760.2114                   21102761.1294
  -3372446.38048  -2565350.63746  21078672.4534                   21078671.5204
 11  8 23 16  1 30.0000000  0 10G07G08G10G28G16G13G23G06G03G19
  -3904076.853 7  -3030124.426 7  21994729.141
  -4553908.77947  -3514041.51543  23914169.2424                   23914172.2774
    230595.08646    187330.12044  23908187.2114                   23908191.0904
   -407939.80346   -279451.66743  24647220.5704                   24647224.0004
   5470443.86447   4267004.81044  23282470.6884                   23282471.3914
  -1206282.36348   -908705.27446  20028662.3754                   20028662.5274
   2442100.25548   1911963.83046  20558480.0944                   20558478.9804
   3093796.58547   2427351.93444  22857171.3914                   22857174.4694
   1359482.63748   1097244.53545  21111291.9454                   21111293.0704
  -3402730.99148  -2588949.00346  21072909.3444                   21072908.8794
 11  8 23 16  2  0.0000000  0 10G07G08G10G28G16G13G23G06G03G19
  -3959843.486 7  -3073578.937 7  21984117.094
  -4622794.42347  -3567718.56843  23901061.6484                   23901064.0594
    252773.01746    204611.62044  23912408.2344                   23912411.5474
   -481986.94946   -337150.66843  24633129.9454                   24633132.7894
   5560424.07147   4337119.21644  23299593.2424                   23299594.2734
  -1202695.31148   -905910.17046  20029344.8364                   20029344.6804
   2501217.00448   1958028.80046  20569729.4694                   20569728.5984
   3161133.10747   2479821.91044  22869985.5634                   22869988.2664
   1404898.26448   1132633.34245  21119934.4694                   21119935.4184
  -3432435.42547  -2612095.28846  21067256.8524                   21067256.1804
 11  8 23 16  2 30.0000000  0 10G07G08G10G28G16G13G23G06G03G19
  -4015556.628 7  -3116991.755 7  21973515.078
  -4691734.30747  -3621437.87244  23887941.5394                   23887944.8204
    275383.60546    222230.28343  23916710.0784                   23916713.8014
   -555826.01546   -394687.51443  24619078.9614                   24619082.0164
   5650422.30047   4407247.67644  23316719.3594                   23316720.4924
  -1198519.38547   -902656.20246  20030139.4064                   20030139.3164
   2560851.09148   2004496.88846  20581077.8054                   20581076.6214
   3228896.80247   2532624.75844  22882881.3204                   22882883.0554
   1450894.36648   1168474.44545  21128686.6414                   21128687.7384
  -3461556.56247  -2634787.04346  21061715.0704                   21061714.7584
 11  8 23 16  3  0.0000000  0 10G07G08G10G28G16G13G23G06G03G19
  -4071218.115 7  -3160364.299 7  21962923.195
  -4760731.27547  -3675201.69344  23874812.3444                   23874815.8054
    298422.50246    240182.64743  23921094.1954                   23921097.9924
   -629459.22146   -452063.92743  24605066.6254                   24605070.1334
   5740434.12947   4477386.72644  23333847.6564                   23333849.1914
  -1193757.34648   -898945.53346  20031045.4384                   20031045.7974
   2620998.54548   2051365.00046  20592523.1094                   20592522.1374
   3297083.28247   2585757.06044  22895856.1724                   22895858.3914
   1497466.15948   1204764.16145  21137549.6094                   21137550.4064
  -3490095.42647  -2657025.09546  21056284.4774                   21056283.6454
 11  8 23 16  3 30.0000000  0 10G07G08G10G28G16G13G23G06G03G19
  -4126825.018 7  -3203694.331 7  21952341.797
  -4829782.94847  -3729008.10544  23861672.4924                   23861675.5514
    321889.84846    258468.89543  23925559.4774                   23925563.0474
   -702884.04746   -509278.03843  24591093.8914                   24591097.5044
   5830459.96546   4547536.64144  23350978.3834                   23350980.6954
  -1188405.81348   -894775.50546  20032063.8594                   20032063.7304
   2681659.82148   2098633.49146  20604066.6414                   20604065.4774
   3365692.35647   2639218.65644  22908912.1334                   22908914.4104
   1544614.23948   1241502.92045  21146521.3594                   21146522.6844
  -3518048.75047  -2678806.86646  21050965.2424                   21050964.1134
 11  8 23 16  4  0.0000000  0 11G07G08G10G28G16G13G23G11G06G03G19
  -4182376.972 7  -3246981.540 7  21941770.523
  -4898889.23747  -3782857.05344  23848521.2814                   23848523.8914
    345783.43746    277087.24743  23930106.9064                   23930110.5474
   -776100.32946   -566329.60043  24577161.8834                   24577165.2734
   5920497.74046   4617695.87943  23368112.9774                   23368113.3674
  -1182464.91948   -890146.24246  20033194.2344                   20033194.5434
   2742832.81348   2146300.72146  20615707.6954                   20615706.2304
    301102.64056    320820.78652  24743292.3364                   24743297.8364
   3434721.26447   2693007.39244  22922048.3444                   22922050.5124
   1592336.50848   1278689.08745  21155602.3984                   21155604.0554
  -3545415.35047  -2700131.46446  21045757.4144                   21045756.5434
 11  8 23 16  4 30.0000000  0 11G07G08G10G28G16G13G23G11G06G03G19
  -4237872.988 7  -3290225.141 7  21931209.656
  -4968050.11747  -3836748.58844  23835361.0004                   23835363.3014
    370101.36346    296036.28143  23934733.7894                   23934737.5124
   -849107.58046   -623218.27543  24563268.9454                   24563272.2384
   6010546.06146   4687863.37143  23385247.8984                   23385249.3484
  -1175934.30747   -885057.46146  20034437.1564                   20034437.5164
   2804516.31048   2194365.74346  20627445.7274                   20627444.3954
    225084.77546    261586.17943  24728826.7584                   24728832.0594
   3504168.00047   2747121.71344  22935263.0164                   22935265.3984
   1640630.97448   1316321.13945  21164792.6564                   21164794.1134
  -3572193.51347  -2720997.54746  21040661.7114                   21040660.6884
 11  8 23 16  5  0.0000000  0 11G07G08G10G28G16G13G23G11G06G03G19
  -4293313.196 7  -3333425.290 7  21920659.547
  -5037266.44547  -3890683.30143  23822189.1564                   23822191.4574
    394840.75347    315313.71143  23939441.7734                   23939445.2504
   -921906.23046   -679944.44443  24549415.5864                   24549419.3244
   6100601.80846   4758036.63243  23402385.9144                   23402386.1214
  -1168813.73947   -879508.97646  20035792.4224                   20035792.2304
   2866707.72048   2242826.54046  20639280.3284                   20639278.9534
    148927.89646    202243.19743  24714334.9694                   24714339.6644
   3574029.76647   2801559.41944  22948557.3594                   22948559.9144
   1689495.54447   1354397.41945  21174091.2424                   21174092.8204
  -3598383.09447  -2741404.98446  21035678.1644                   21035677.2234
 11  8 23 16  5 30.0000000  0 11G07G08G10G28G16G13G23G11G06G03G19
  -4348695.285 7  -3376580.145 7  21910121.109
  -5106536.44747  -3944659.81943  23809007.7664                   23809010.1054
    420000.94646    334919.07243  23944229.7274                   23944232.7934
   -994494.74946   -736506.89543  24535602.1724                   24535605.7504
   6190664.93547   4828215.65443  23419524.1174                   23419524.2034
  -1161101.95848   -873499.80146  20037259.6954                   20037260.0594
   2929407.05948   2291683.13046  20651211.5004                   20651210.2344
     72635.76846    142794.88243  24699816.3054                   24699821.8364
   3644305.32547   2856319.55844  22961930.0784                   22961933.0474
   1738929.16747   1392917.10645  21183498.0474                   21183499.7194
  -3623981.35147  -2761351.65446  21030806.7894                   21030805.8554
 11  8 23 16  6  0.0000000  0 11G07G08G10G28G16G13G23G11G06G03G19
  -4404020.115 7  -3419690.400 7  21899593.117
  -5175861.94946  -3998679.58844  23795815.1954                   23795818.2384
    445578.84047    354849.86443  23949096.8524                   23949100.3984
  -1066874.13546   -792906.34543  24521829.3594                   24521832.7704
   6280732.46947   4898398.11144  23436663.3364                   23436664.1054
  -1152800.02548   -867030.77846  20038839.6094                   20038839.9844
   2992610.78648   2340932.75146  20663238.8054                   20663237.5474
     -3790.82546     83241.85543  24685273.0784                   24685277.5514
   3714991.08747   2911399.34944  22975381.5474                   22975383.8054
   1788928.91948   1431877.91845  21193012.7194                   21193014.5084
  -3648988.60548  -2780837.81946  21026048.2664                   21026047.4224
 11  8 23 16  6 30.0000000  0 11G07G08G10G28G16G13G23G11G06G03G19
  -4459284.923 7  -3462753.854 7  21889076.727
  -5245240.74847  -4052740.90943  23782612.6024                   23782615.1024
    471574.36046    375106.10143  23954043.7114                   23954046.5354
  -1139042.05146   -849141.01343  24508095.8444                   24508099.4104
   6370804.51547   4968584.06644  23453803.3444                   23453804.8834
  -1143905.55548   -860100.02446  20040532.1334                   20040532.1374
   3056318.85648   2390575.36346  20675362.0474                   20675361.1604
    -80347.73046     23587.20943  24670704.5084                   24670709.4104
   3786086.60647   2966798.41044  22988911.0704                   22988913.3164
   1839494.42948   1471279.59145  21202634.8754                   21202637.0634
  -3673401.28447  -2799860.66546  21021402.6174                   21021401.6914
 11  8 23 16  7  0.0000000  0 11G07G08G10G28G16G13G23G11G06G03G19
  -4514489.718 7  -3505770.541 7  21878571.375
  -5314673.29547  -4106844.10843  23769399.5944                   23769403.4804
    497984.74446    395685.62643  23959069.8284                   23959073.1804
  -1210999.13146   -905211.44743  24494402.1484                   24494406.4774
   6460878.47947   5038771.51144  23470943.8834                   23470945.1374
  -1134419.04348   -852707.95246  20042337.4224                   20042337.1414
   3120529.10948   2440609.29046  20687580.7344                   20687579.9184
   -157033.69446    -36167.96743  24656111.4774                   24656116.8404
   3857588.97547   3022514.51744  23002517.1484                   23002519.0044
   1890623.17548   1511120.15245  21212364.2274                   21212366.2274
  -3697219.12147  -2818420.01646  21016870.2974                   21016869.2504
 11  8 23 16  7 30.0000000  0 11G07G08G10G28G16G13G23G11G06G03G19
  -4569634.805 8  -3548740.707 7  21868077.195
  -5384160.86646  -4160990.18943  23756176.1954                   23756180.2894
    524806.55746    416585.74943  23964173.2664                   23964176.5704
  -1282746.17846   -961118.15543  24480749.3674                   24480753.7894
   6550951.73447   5108958.41044  23488084.7894                   23488086.3754
  -1124341.39948   -844855.25246  20044254.9924                   20044255.0044
   3185238.70748   2491032.31546  20699894.6094                   20699893.8054
   -233847.36346    -96022.70243  24641494.9614                   24641500.0634
   3929494.38647   3078544.67044  23016200.5164                   23016202.4104
   1942311.95148   1551397.09345  21222200.3674                   21222202.0164
  -3720442.32947  -2836516.00146  21012450.4844                   21012450.1564
 11  8 23 16  8  0.0000000  0 11G07G08G10G28G16G13G23G11G06G03G19
  -4624717.058 7  -3591661.911 7  21857595.758
  -5453700.82246  -4215177.09743  23742943.3364                   23742947.1524
    552039.93146    437806.52743  23969356.2274                   23969359.0944
  -1354280.64146  -1016859.28443  24467137.4694                   24467141.3244
   6641024.57747   5179144.96744  23505225.0784                   23505227.2854
  -1113670.22148   -836540.05746  20046285.3594                   20046285.9844
   3250448.20048   2541844.86446  20712303.7114                   20712302.6334
   -310784.42346   -155973.56443  24626854.1724                   24626858.6174
   4001802.88847   3134888.91844  23029960.5164                   23029962.4144
   1994561.01548   1592110.63745  21232143.5394                   21232144.5394
  -3743067.62747  -2854146.09246  21008145.3984                   21008144.5004
 11  8 23 16  8 30.0000000  0 11G07G08G10G28G16G13G23G11G06G03G19
  -4679736.314 7  -3634534.027 7  21847125.469
  -5523293.75446  -4269405.28943  23729700.7424                   23729703.7384
    579682.06046    459345.83543  23974616.6414                   23974619.9534
  -1425602.77346  -1072434.89543  24453564.3984                   24453569.2854
   6731095.04547   5249329.68344  23522364.5864                   23522366.2734
  -1102405.62748   -827762.45746  20048429.5004                   20048429.5824
   3316155.06548   2593044.97246  20724807.3594                   20724806.0044
   -387843.02046   -216019.08343  24612190.1484                   24612194.7194
   4074511.91247   3191545.28244  23043796.6334                   23043798.3874
   2047368.14248   1633259.03745  21242192.5474                   21242193.6094
  -3765094.22648  -2871309.65546  21003953.7584                   21003952.6214
 11  8 23 16  9  0.0000000  0 11G07G08G10G28G16G13G23G11G06G03G19
  -4734692.705 7  -3677357.168 7  21836667.734
  -5592939.94146  -4323674.96643  23716448.4534                   23716449.9104
    607730.18246    481201.49943  23979953.1804                   23979956.5164
  -1496713.16346  -1127845.52743  24440032.8444                   24440037.9104
   6821160.51147   5319510.50144  23539503.7424                   23539505.4804
  -1090548.47048   -818523.12346  20050685.3984                   20050685.7934
   3382356.68748   2644630.60946  20737405.2974                   20737404.4224
   -465021.30346   -276157.99943  24597503.8594                   24597508.6054
   4147617.81347   3248510.90544  23057707.9064                   23057710.2544
   2100729.85748   1674839.56945  21252346.9454                   21252348.0434
  -3786521.86247  -2888006.49946  20999876.3284                   20999875.4454
 11  8 23 16  9 30.0000000  0 11G07G08G10G28G16G13G23G11G06G03G19
  -4789585.057 7  -3720130.405 7  21826222.383
  -5662639.47647  -4377986.24744  23703184.3914                   23703185.6844
    636182.77947    503372.31643  23985368.0234                   23985371.6454
  -1567611.60046  -1183091.00443  24426542.1254                   24426545.8134
   6911219.49546   5389686.25843  23556640.9924                   23556643.0084
  -1078098.24348   -808821.65746  20053054.6564                   20053055.1764
   3449051.26048   2696600.36846  20750096.6484                   20750096.0124
   -542317.18246   -336388.50843  24582794.9224                   24582799.6644
   4221118.46947   3305784.11244  23071694.7194                   23071696.7974
   2154644.18648   1716850.70745  21262606.4064                   21262607.4264
  -3807349.23747  -2904235.61246  20995912.5554                   20995911.9454
 11  8 23 16 10  0.0000000  0 11G07G08G10G28G16G13G23G11G06G03G19
  -4844411.135 7  -3762852.013 7  21815788.953
  -5732390.56747  -4432337.64743  23689910.9224                   23689913.3014
    665038.97746    525857.69643  23990858.7894                   23990862.2584
  -1638296.11446  -1238169.80242  24413090.7424                   24413094.0044
   7001272.19047   5459857.13143  23573777.4844                   23573779.2704
  -1065053.32048   -798656.79446  20055537.1484                   20055537.2114
   3516238.37248   2748953.91746  20762882.0554                   20762881.0084
   -619726.79546   -396707.59643  24568064.1884                   24568068.6804
   4295013.18347   3363364.36344  23085756.8364                   23085758.9024
   2209110.90448   1759292.29045  21272971.1884                   21272972.4454
  -3827574.03548  -2919995.17746  20992064.3754                   20992063.1294
 11  8 23 16 10 30.0000000  0 11G07G08G10G28G16G13G23G11G06G03G19
  -4899172.129 8  -3805522.898 7  21805368.102
  -5802195.46347  -4486731.00844  23676627.6724                   23676628.8444
    694294.32447    548654.05643  23996426.7034                   23996429.6454
  -1708768.52746  -1293083.37043  24399681.3284                   24399683.8324
   7091314.52447   5530019.93344  23590912.7274                   23590913.9734
  -1051415.82948   -788030.18746  20058132.3524                   20058132.5704
   3583914.06448   2801688.18246  20775760.3204                   20775759.3984
   -697249.70646   -457115.00543  24553312.1954                   24553316.6024
   4369297.58646   3421248.29844  23099892.2344                   23099894.3984
   2264126.06848   1802161.25345  21283440.1804                   21283441.0394
  -3847197.33148  -2935286.03546  20988329.8204                   20988329.1994
 11  8 23 16 11  0.0000000  0 11G07G08G10G28G16G13G23G11G06G03G19
  -4953865.349 8  -3848140.990 7  21794960.242
  -5872051.71647  -4541164.37944  23663333.6804                   23663336.4224
    723948.72246    571761.38043  24002068.8754                   24002072.4304
  -1779026.92746  -1347830.14243  24386310.9924                   24386314.0164
   7181346.78947   5600174.90444  23608045.0084                   23608046.3914
  -1037183.92048   -776940.39646  20060840.6564                   20060840.6564
   3652078.36748   2854803.19046  20788731.4534                   20788730.4964
   -774881.84846   -517607.57743  24538538.1254                   24538542.4774
   4443970.77547   3479435.17144  23114102.3134                   23114104.6884
   2319689.20848   1845457.21145  21294013.3444                   21294014.8324
  -3866216.02547  -2950105.78046  20984711.0164                   20984709.8794
 11  8 23 16 11 30.0000000  0 11G07G08G10G28G16G13G23G11G06G03G19
  -5008488.672 8  -3890704.586 7  21784565.992
  -5941958.40047  -4595637.03744  23650031.1174                   23650034.7074
    754000.82746    595178.60443  24007788.6414                   24007791.5864
  -1849069.99447  -1402409.15243  24372982.5784                   24372984.5124
   7271368.44847   5670321.60344  23625175.7894                   23625177.2504
  -1022356.48848   -765386.55446  20063661.8444                   20063661.8524
   3720730.68348   2908298.44746  20801795.8524                   20801794.8984
   -852620.00446   -578182.62743  24523745.9614                   24523749.6764
   4519031.46247   3537923.99344  23128385.6484                   23128387.8554
   2375799.03748   1889179.15145  21304691.1254                   21304691.9614
  -3884628.30648  -2964453.00046  20981207.0864                   20981206.2154
 11  8 23 16 12  0.0000000  0 11G07G08G10G28G16G13G23G11G06G03G19
  -5063045.004 7  -3933215.992 7  21774184.344
  -6011918.77247  -4650151.53444  23636717.4924                   23636721.6804
    784445.17746    618901.46343  24013581.2424                   24013584.7504
  -1918901.17946  -1456822.96243  24359694.0084                   24359696.1414
   7361374.37047   5740456.06344  23642303.1724                   23642304.6374
  -1006936.85248   -753371.26346  20066596.3524                   20066596.5554
   3789865.16148   2962169.43046  20814951.9064                   20814950.7464
   -930465.15146   -638841.11243  24508932.1024                   24508936.7504
   4594473.64847   3596710.07244  23142741.5314                   23142744.1334
   2432450.03447   1933322.79445  21315471.2114                   21315472.1804
  -3902437.06448  -2978329.94046  20977817.8284                   20977817.2194
 11  8 23 16 12 30.0000000  0 11G07G08G10G28G16G13G23G11G06G03G19
  -5117529.415 8  -3975671.351 7  21763816.227
  -6081928.51746  -4704704.51043  23623395.1174                   23623398.3714
    815283.54446    642931.37943  24019450.4694                   24019453.1764
  -1988516.13146  -1511068.27543  24346446.0004                   24346448.4734
   7451367.03946   5810580.13344  23659427.8284                   23659429.5514
   -990921.09048   -740891.44746  20069643.8914                   20069644.1644
   3859483.93748   3016417.77746  20828199.4064                   20828198.8484
  -1008411.02546   -699578.12343  24494099.6254                   24494104.7114
   4670299.18747   3655794.88144  23157171.1094                   23157173.7034
   2489643.88247   1977889.42745  21326354.9064                   21326355.7774
  -3919637.10748  -2991732.55346  20974545.3134                   20974544.5744
 11  8 23 16 13  0.0000000  0 11G07G08G10G28G16G13G23G11G06G03G19
  -5171943.100 8  -4018071.611 7  21753461.750
  -6151989.17846  -4759297.21643  23610063.3524                   23610067.0554
    846511.79046    667265.05143  24025392.3134                   24025395.9924
  -2057917.08446  -1565146.85043  24333239.7504                   24333242.0784
   7541342.83546   5880691.07344  23676550.3834                   23676551.2854
   -974311.11048   -727948.61746  20072804.6094                   20072804.8834
   3929582.93848   3071040.33246  20841539.0234                   20841538.0864
  -1086456.94046   -760393.06343  24479247.8984                   24479252.4534
   4746503.54447   3715174.86844  23171672.8984                   23171674.7974
   2547376.58647   2022875.95645  21337340.8284                   21337342.0744
  -3936229.68248  -3004661.81246  20971387.6254                   20971386.5944
 11  8 23 16 13 30.0000000  0 11G07G08G10G28G16G13G23G11G06G03G19
  -5226285.270 8  -4060416.163 7  21743120.633
  -6222101.26446  -4813929.95343  23596722.5634                   23596724.7774
    878127.00246    691900.28243  24031409.0004                   24031411.7424
  -2127103.77446  -1619058.55043  24320074.1334                   24320076.3164
   7631299.91646   5950787.44843  23693668.2974                   23693669.7584
   -957107.45148   -714543.17246  20076078.5634                   20076079.0904
   4000159.82348   3126035.26646  20854969.5164                   20854968.4534
  -1164601.20946   -821284.62943  24464376.9774                   24464381.8284
   4823084.19847   3774848.05944  23186245.3834                   23186247.1844
   2605645.14647   2068280.02945  21348429.1254                   21348430.4184
  -3952214.56148  -3017117.54346  20968345.5634                   20968345.1684
 11  8 23 16 14  0.0000000  0 11G07G08G10G28G16G13G23G11G06G03G19
  -5280553.469 8  -4102703.064 7  21732793.805
  -6292263.13946  -4868601.48244  23583370.7424                   23583371.8954
    910128.20746    716836.25643  24037498.0554                   24037501.2624
  -2196074.39546  -1672801.79643  24306949.5004                   24306950.8134
   7721237.87046   6020868.91744  23710783.4384                   23710784.6454
   -939308.88848   -700674.16146  20079465.3444                   20079465.7774
   4071214.23048   3181402.29946  20868490.3984                   20868489.5744
  -1242839.93146   -882249.80843  24449488.6094                   24449493.5594
   4900039.09847   3834812.88744  23200889.0234                   23200891.1884
   2664448.68647   2114100.95645  21359619.2664                   21359620.1914
  -3967588.95648  -3029097.56746  20965419.9694                   20965419.2664
 11  8 23 16 14 30.0000000  0 11G07G08G10G28G16G13G23G11G06G03G19
  -5334747.339 8  -4144932.032 7  21722481.070
  -6362474.84447  -4923311.81043  23570008.6804                   23570011.0784
    942513.13946    742071.26943  24043661.0704                   24043664.1094
  -2264829.54946  -1726377.11243  24293865.4224                   24293867.4844
   7811155.13746   6090934.24143  23727892.9774                   23727895.1254
   -920915.66148   -686341.78146  20082965.7344                   20082966.0514
   4142743.65048   3237139.45446  20882102.3834                   20882101.3054
  -1321170.97046   -943286.95743  24434583.6094                   24434587.1024
   4977366.46747   3895067.95644  23215604.3834                   23215606.3204
   2723785.45247   2160337.38845  21370910.4144                   21370911.7934
  -3982352.54248  -3040601.63446  20962611.0554                   20962609.9574
 11  8 23 16 15  0.0000000  0 11G07G08G10G28G16G13G23G11G06G03G19
  -5388866.526 8  -4187102.785 7  21712182.672
  -6432736.36547  -4978060.99243  23556639.1954                   23556640.7034
    975279.50346    767603.46743  24049895.6254                   24049898.7034
  -2333369.39446  -1779784.69143  24280823.1024                   24280824.6414
   7901049.95646   6160982.10543  23745000.1564                   23745001.4264
   -901928.30848   -671546.44446  20086578.7894                   20086579.1454
   4214745.63348   3293244.86346  20895803.8364                   20895803.0044
  -1399592.16346  -1004394.31943  24419660.0634                   24419664.7034
   5055063.46947   3955611.07144  23230389.3754                   23230391.9884
   2783652.53947   2206987.06145  21382302.7114                   21382303.7544
  -3996505.31948  -3051629.74746  20959917.4304                   20959916.9614
 11  8 23 16 15 30.0000000  0 11G07G08G10G28G16G13G23G11G06G03G19
  -5442909.013 8  -4229213.797 7  21701898.242
  -6503046.70547  -5032848.20444  23543259.1254                   23543261.2074
   1008425.41046    793431.45643  24056203.6804                   24056206.3364
  -2401693.32546  -1833024.04343  24267820.9144                   24267823.0514
   7990921.27846   6231011.67243  23762101.6804                   23762102.9304
   -882346.40448   -656287.82046  20090305.0634                   20090305.3754
   4287218.59248   3349717.24846  20909595.1254                   20909594.0274
  -1478100.68446  -1065569.74743  24404720.7344                   24404724.8594
   5133127.84747   4016440.41844  23245244.9844                   23245247.0514
   2844048.04447   2254048.48645  21393795.7894                   21393797.2234
  -4010045.85647  -3062180.79446  20957340.7504                   20957340.1374
 11  8 23 16 16  0.0000000  0 11G07G08G10G28G16G13G23G11G06G03G19
  -5496874.167 8  -4271264.547 7  21691629.500
  -6573405.95946  -5087673.53643  23529869.1414                   23529871.4924
   1041948.47846    819553.31343  24062582.8594                   24062585.9534
  -2469800.86746  -1886094.72743  24254860.3914                   24254862.9534
   8080767.46747   6301021.65943  23779199.5864                   23779200.3984
   -862170.18148   -640566.10146  20094144.4384                   20094144.6134
   4360160.62248   3406555.16346  20923475.3054                   20923474.5164
  -1556693.97546  -1126811.20143  24389764.3204                   24389768.4924
   5211557.26447   4077554.21244  23260169.2734                   23260171.3014
   2904969.51847   2301519.73545  21405388.4144                   21405390.2074
  -4022973.28048  -3072254.09146  20954881.3134                   20954880.5744
 11  8 23 16 16 30.0000000  0 11G07G08G10G28G16G13G23G11G06G03G19
  -5550760.978 8  -4313254.258 7  21681374.914
  -6643813.53247  -5142536.53244  23516472.5634                   23516474.5864
   1075846.24246    845967.14943  24069033.2194                   24069036.4694
  -2537692.35746  -1938997.06543  24241940.9224                   24241943.6134
   8170587.19246   6371011.04843  23796291.2894                   23796293.1054
   -841399.78148   -624381.37646  20098096.9384                   20098097.1294
   4433569.57748   3463756.89946  20937444.8594                   20937444.0044
  -1635369.58146  -1188116.79343  24374792.9454                   24374797.1214
   5290348.90347   4138950.25244  23275163.1564                   23275165.1564
   2966415.04447   2349399.34745  21417081.2814                   21417082.5084
  -4035287.07748  -3081849.24346  20952537.7194                   20952536.6414
 11  8 23 16 17  0.0000000  0 11G07G08G10G28G16G13G23G11G06G03G19
  -5604567.806 8  -4355181.655 7  21671135.414
  -6714268.69147  -5197436.60344  23503064.7034                   23503067.4184
   1110116.95046    872671.59143  24075554.9924                   24075557.7344
  -2605367.01246  -1991730.40643  24229063.1094                   24229065.5864
   8260379.35347   6440978.92043  23813378.0634                   23813380.2384
   -820034.74548   -607733.29546  20102162.3754                   20102162.8754
   4507444.14548   3521321.44546  20951502.7194                   20951501.8284
  -1714124.51546  -1249484.23343  24359806.5554                   24359810.6054
   5369501.19147   4200627.31044  23290224.9224                   23290227.3054
   3028382.60747   2397685.74845  21428873.4774                   21428874.2384
  -4046986.21148  -3090965.43246  20950311.0394                   20950310.8834
 11  8 23 16 17 30.0000000  0 11G07G08G10G28G16G13G23G11G06G03G19
  -5658294.916 7  -4397046.913 7  21660911.516
  -6784772.34246  -5252374.45844  23489648.8134                   23489652.0784
   1144756.84746    899663.75243  24082146.2274                   24082148.6414
  -2672826.03446  -2044295.75243  24216225.6564                   24216227.8134
   8350141.66747   6510923.55443  23830459.6484                   23830461.0234
   -798076.71348   -590623.15446  20106341.2584                   20106341.2624
   4581780.62548   3579245.93446  20965648.5394                   20965647.5864
  -1792957.60946  -1310912.59543  24344805.1564                   24344809.4774
   5449010.06547   4262582.25744  23305355.0004                   23305356.9144
   3090868.47347   2446376.01245  21440763.9844                   21440764.7664
  -4058070.99448  -3099602.91546  20948201.7664                   20948201.3984
 11  8 23 16 18  0.0000000  0 11G07G08G10G28G16G13G23G11G06G03G19
  -5711939.679 8  -4438847.990 7  21650703.641
  -6855322.59347  -5307348.60644  23476222.7504                   23476225.6764
   1179765.57546    926943.25343  24088808.3984                   24088811.2034
  -2740067.58446  -2096691.67243  24203428.5314                   24203432.1174
   8439874.05446   6580844.83943  23847535.4614                   23847536.7974
   -775524.39848   -573049.91946  20110632.6884                   20110632.9344
   4656578.67748   3637530.09446  20979882.4304                   20979881.0984
  -1871864.84146  -1372398.71843  24329789.3594                   24329793.8984
   5528875.33446   4324814.89844  23320553.1174                   23320555.3674
   3153871.83747   2495469.52145  21452753.0554                   21452754.3834
  -4068539.32248  -3107760.04046  20946209.7664                   20946208.6334
 11  8 23 16 18 30.0000000  0 11G07G08G10G28G16G13G23G11G06G03G19
  -5765501.554 8  -4480584.482 7  21640511.391
  -6925919.41347  -5362359.04144  23462788.9924                   23462791.0434
   1215140.49446    954508.12543  24095539.9844                   24095542.2974
  -2807091.88346  -2148918.24843  24190675.4064                   24190678.4884
   8529574.52646   6650741.25743  23864604.5944                   23864606.9694
   -752378.14147   -555013.88446  20115037.1564                   20115037.1024
   4731835.68248   3696171.86846  20994203.2734                   20994202.0514
  -1950843.67447  -1433940.62743  24314760.2664                   24314763.6174
   5609093.79247   4387322.75344  23335818.2504                   23335820.1094
   3217390.49547   2544964.56445  21464840.3754                   21464841.6724
  -4078391.22847  -3115436.84346  20944334.7974                   20944334.1724
 11  8 23 16 19  0.0000000  0 11G07G08G10G28G16G13G23G11G06G03G19
  -5818979.500 8  -4522255.581 7  21630334.188
  -6996562.61747  -5417405.64044  23449345.8984                   23449348.1764
   1250879.12146    982356.40743  24102341.0554                   24102342.9414
  -2873899.16046  -2200975.78443  24177961.9454                   24177965.3094
   8619241.57846   6720611.59643  23881667.2114                   23881669.7624
   -728638.77048   -536515.67746  20119554.5704                   20119554.6454
   4807549.35948   3755169.50946  21008610.5164                   21008610.0314
  -2029892.20546  -1495536.83443  24299717.7504                   24299721.7154
   5689662.41446   4450103.48344  23351150.0164                   23351152.0204
   3281421.85347   2594859.09145  21477024.4064                   21477026.0664
  -4087626.19248  -3122632.90446  20942577.5864                   20942576.9184
 11  8 23 16 19 30.0000000  0 11G07G08G10G28G16G13G23G11G06G03G19
  -5872373.086 8  -4563860.929 7  21620173.867
  -7067252.25247  -5472488.40544  23435894.2664                   23435896.2974
   1286978.10046   1010485.49143  24109210.1094                   24109212.9924
  -2940489.66546  -2252864.40343  24165289.9454                   24165293.5084
   8708873.46646   6790454.53944  23898724.4064                   23898726.5704
   -704307.15648   -517555.99046  20124184.7974                   20124185.3014
   4883716.76648   3814520.67946  21023105.0004                   21023104.4224
  -2109008.44947  -1557185.78843  24284662.2344                   24284666.3364
   5770578.52347   4513154.95244  23366547.7504                   23366549.8284
   3345962.26947   2645150.31445  21489306.7504                   21489308.4344
  -4096244.17748  -3129348.21146  20940937.9064                   20940937.5784
 11  8 23 16 20  0.0000000  0 11G07G08G10G28G16G13G23G11G06G03G19
  -5925679.552 8  -4605398.412 7  21610029.836
  -7137986.19247  -5527605.68344  23422434.1884                   23422436.6604
   1323437.14846   1038895.12043  24116148.0554                   24116151.0824
  -3006861.65946  -2304582.72643  24152659.9064                   24152663.0314
   8798470.46446   6860270.29643  23915774.2584                   23915775.7624
   -679381.49048   -498133.40146  20128928.3054                   20128928.1054
   4960338.10748   3874225.57846  21037685.5394                   21037684.9264
  -2188187.62746  -1618883.80443  24269594.9614                   24269598.5784
   5851841.31346   4576476.58244  23382011.5704                   23382013.2934
   3411011.60447   2695838.07745  21501685.0234                   21501686.8594
  -4104242.92948  -3135580.98446  20939415.4224                   20939414.9224
 11  8 23 16 20 30.0000000  0 11G07G08G10G28G16G13G23G11G06G03G19
  -5978900.068 8  -4646868.909 7  21599902.313
  -7208766.57247  -5582759.18044  23408964.6334                   23408967.4844
   1360251.20446   1067581.45143  24123153.9384                   24123155.8954
  -3073017.72446  -2356132.84143  24140071.8204                   24140073.6764
   8888028.90246   6930056.02644  23932816.9384                   23932818.4024
   -653865.04748   -478250.45846  20133783.4844                   20133784.0164
   5037408.15748   3934280.12146  21052351.7584                   21052351.2114
  -2267429.96746  -1680631.06143  24254515.5234                   24254519.4494
   5933445.95346   4640064.57844  23397540.1414                   23397542.4224
   3476565.27447   2746918.83845  21514159.6724                   21514160.8204
  -4111624.55848  -3141332.88646  20938010.9454                   20938010.0634
 11  8 23 16 21  0.0000000  0 11G07G08G10G28G16G13G23G11G06G03G19
  -6032031.249 8  -4688269.814 7  21589791.523
  -7279590.51747  -5637946.60944  23395487.0474                   23395489.7814
   1397420.65546   1096544.67843  24130226.8984                   24130229.7504
  -3138955.24646  -2407512.64743  24127523.7734                   24127526.1844
   8977549.87547   6999812.52744  23949852.2664                   23949853.5274
   -627755.82247   -457905.62146  20138752.0704                   20138752.2274
   5114927.40348   3994684.68946  21067103.1724                   21067102.2854
  -2346730.25246  -1742423.45743  24239425.5634                   24239429.6254
   6015392.27246   4703918.83144  23413133.5164                   23413136.6454
   3542623.11947   2798392.46045  21526730.2974                   21526732.0004
  -4118386.02347  -3146601.53846  20936724.4224                   20936723.7074
 11  8 23 16 21 30.0000000  0 11G07G08G10G28G16G13G23G11G06G03G19
  -6085073.464 8  -4729601.377 7  21579698.773
  -7350459.52547  -5693169.15444  23382001.6564                   23382003.9614
   1434941.46446   1125781.66043  24137366.9224                   24137369.2704
  -3204675.83447  -2458723.41643  24115016.8524                   24115020.3484
   9067030.38347   7069537.54844  23966880.1414                   23966881.4344
   -601055.60748   -437100.27746  20143832.8054                   20143833.3594
   5192891.49148   4055435.89345  21081939.1414                   21081938.3874
  -2426087.72946  -1804260.39443  24224324.1644                   24224328.1524
   6097676.12746   4768036.09244  23428792.3054                   23428794.1254
   3609180.93747   2850255.67445  21539395.5944                   21539397.1414
  -4124528.68748  -3151388.00346  20935555.4064                   20935554.4184
 11  8 23 16 22  0.0000000  0 11G07G08G10G28G16G13G23G11G06G03G19
  -6138024.699 8  -4770862.046 7  21569622.188
  -7421371.56047  -5748425.25244  23368507.3594                   23368509.8204
   1472812.02946   1155291.24343  24144573.7034                   24144576.1914
  -3270178.23246  -2509764.20143  24102552.8444                   24102555.1524
   9156470.02846   7139230.70143  23983899.7114                   23983901.0784
   -573763.62648   -415833.80946  20149026.7814                   20149026.3794
   5271299.84348   4116533.26646  21096860.1334                   21096859.3404
  -2505498.96846  -1866139.30143  24209213.2034                   24209216.4024
   6180296.14646   4832415.29043  23444514.2734                   23444517.2734
   3676237.22447   2902507.32245  21552156.1724                   21552157.5944
  -4130050.93648  -3155691.03746  20934504.8134                   20934503.4844
 11  8 23 16 22 30.0000000  0 11G07G08G10G28G16G13G23G11G06G03G19
  -6190883.595 8  -4812050.752 7  21559563.328
  -7492326.31547  -5803714.61844  23355005.0314                   23355007.2274
   1511029.99246   1185071.43943  24151845.9304                   24151849.2274
  -3335462.35346  -2560634.89743  24090129.2504                   24090131.5274
   9245867.88046   7208891.28643  24000911.5634                   24000912.7774
   -545880.38447   -394106.62346  20154332.2034                   20154332.4344
   5350150.26748   4177975.11346  21111864.5784                   21111863.6604
  -2584960.68346  -1928057.42543  24194090.7504                   24194095.7154
   6263249.87046   4897054.52943  23460299.7194                   23460301.9104
   3743789.90147   2955145.76845  21565010.9384                   21565012.1954
  -4134952.39448  -3159510.32746  20933571.4694                   20933570.6374
 11  8 23 16 23  0.0000000  0 11G07G08G10G28G16G13G23G11G06G03G19
  -6243650.312 8  -4853167.647 7  21549521.984
  -7563324.33547  -5859037.67844  23341494.7194                   23341496.7234
   1549591.99146   1215119.75243  24159183.8134                   24159187.3674
  -3400529.31646  -2611336.35243  24077746.8984                   24077750.5084
   9335221.39247   7278517.34743  24017915.1094                   24017915.9614
   -517407.66348   -371920.09346  20159750.9224                   20159750.6054
   5429439.48048   4239758.87046  21126952.8914                   21126952.5594
  -2664471.70546  -1990014.04143  24178960.2194                   24178965.9344
   6346533.70546   4961950.98443  23476148.3914                   23476150.4104
   3811835.38247   3008168.20545  21577959.9304                   21577961.1644
  -4139233.86548  -3162846.52446  20932756.8914                   20932756.2774
 11  8 23 16 23 30.0000000  0 11G07G08G10G28G16G13G23G11G06G03G19
  -6296322.216 8  -4894210.666 7  21539499.234
  -7634363.71547  -5914392.98344  23327975.6724                   23327978.7114
   1588497.03746   1245435.39043  24166586.3054                   24166590.5434
  -3465377.66046  -2661867.48243  24065407.2974                   24065410.1914
   9424530.67146   7348108.92443  24034909.4454                   24034911.0044
   -488344.57348   -349273.54546  20165280.8834                   20165281.2734
   5509166.47748   4301883.75946  21142124.6484                   21142123.6024
  -2744027.97246  -2052005.85743  24163821.5784                   24163826.3554
   6430146.48846   5027103.77243  23492060.1564                   23492061.2234
   3880372.46847   3061573.71545  21591001.8284                   21591002.9064
  -4142893.18848  -3165697.93446  20932060.8594                   20932059.8714
 11  8 23 16 24  0.0000000  0 11G07G08G10G28G16G13G23G11G06G03G19
  -6348898.882 8  -4935179.488 7  21529494.188
  -7705445.01947  -5969780.94444  23314449.3364                   23314452.5434
   1627742.13746   1276015.97543  24174055.3134                   24174058.2704
  -3530008.06546  -2712228.73543  24053108.6094                   24053110.3054
   9513793.63146   7417664.43143  24051895.9774                   24051897.0394
   -458692.50447   -326168.03846  20170924.1024                   20170923.9964
   5589328.09148   4364347.31845  21157378.9924                   21157377.9024
  -2823627.38046  -2114031.31443  24148674.6024                   24148678.8204
   6514085.06247   5092510.41944  23508032.6414                   23508034.5274
   3949398.06847   3115359.89845  21604136.8754                   21604138.3014
  -4145931.64947  -3168065.55746  20931482.1484                   20931481.4804
 11  8 23 16 24 30.0000000  0 11G07G08G10G28G16G13G23G11G06G03G19
  -6401379.551 8  -4976073.488 7  21519507.438
  -7776568.05647  -6025201.41944  23300915.4774                   23300918.6914
   1667323.61546   1306858.70243  24181587.5164                   24181591.0864
  -3594421.29546  -2762420.80643  24040852.2194                   24040853.6414
   9603008.48646   7487182.43543  24068873.3364                   24068874.2814
   -428452.54147   -302604.44046  20176678.4924                   20176678.6764
   5669921.13548   4427147.05045  21172715.1334                   21172714.6644
  -2903268.39546  -2176089.18043  24133519.9454                   24133523.1214
   6598346.03646   5158168.28244  23524067.5784                   23524069.1174
   4018908.60247   3169523.92045  21617364.5004                   21617366.0984
  -4148349.35448  -3169949.47846  20931022.5704                   20931021.7464
 11  8 23 16 25  0.0000000  0 11G07G08G10G28G16G13G23G11G06G03G19
  -6453761.842 8  -5016890.825 7  21509539.383
  -7847730.84447  -6080652.88244  23287372.8914                   23287376.0664
   1707240.89946   1337963.06643  24189183.9614                   24189187.3484
  -3658615.91546  -2812442.52843  24028635.8134                   24028637.0664
   9692175.55046   7556663.26643  24085841.5554                   24085841.2304
   -397623.43148   -278581.76346  20182545.0394                   20182544.9774
   5750945.20848   4490282.65145  21188133.8674                   21188133.2384
  -2982946.63346  -2238176.05843  24118356.4304                   24118361.0354
   6682928.51247   5224076.69443  23540162.1884                   23540164.3524
   4088903.16847   3224065.13645  21630684.1024                   21630685.3954
  -4150144.46947  -3171348.26746  20930680.5784                   20930679.7544
 11  8 23 16 25 30.0000000  0 11G07G08G10G28G16G13G23G11G06G03G19
  -6506045.099 8  -5057630.993 7  21499590.031
  -7918933.55747  -6136135.44044  23273823.7504                   23273826.7464
   1747491.03746   1369326.80943  24196842.7584                   24196846.6334
  -3722592.21246  -2862294.09543  24016460.7974                   24016462.7544
   9781293.07446   7626105.44943  24102799.2274                   24102800.9224
   -366206.87148   -254101.33546  20188523.4454                   20188523.2934
   5832397.45948   4553751.89245  21203633.6334                   21203632.6254
  -3062660.07546  -2300290.34543  24103188.7424                   24103191.5704
   6767829.55947   5290233.31044  23556319.3134                   23556321.0434
   4159379.18147   3278981.47745  21644094.9694                   21644096.3754
  -4151317.27148  -3172262.13246  20930457.7424                   20930456.6484
 11  8 23 16 26  0.0000000  0 11G07G08G10G28G16G13G23G11G06G03G19
  -6558228.119 8  -5098293.064 7  21489660.078
  -7990175.61047  -6191648.65943  23260267.2034                   23260269.2194
   1788071.30246   1400947.77443  24204564.3364                   24204568.7154
  -3786350.58246  -2911975.86843  24004327.6334                   24004330.3834
   9870359.81246   7695508.02543  24119748.2584                   24119749.8674
   -334203.24547   -229163.44746  20194613.3444                   20194613.2664
   5914275.37348   4617552.82445  21219214.0164                   21219213.7154
  -3142405.98246  -2362429.96643  24088012.8054                   24088016.9964
   6853046.42547   5356636.02344  23572535.0944                   23572537.5044
   4230334.05747   3334270.95245  21657596.9844                   21657598.8524
  -4151867.72448  -3172691.04546  20930352.9304                   20930352.4104
 11  8 23 16 26 30.0000000  0 11G07G08G10G28G16G13G23G11G06G03G19
  -6610309.218 8  -5138875.733 7  21479749.555
  -8061456.17147  -6247191.91644  23246703.0084                   23246704.3754
   1828979.40346   1432824.25643  24212349.5634                   24212352.6174
  -3849890.46746  -2961487.38443  23992235.8754                   23992238.6764
   9959374.52846   7764870.10143  24136687.4384                   24136689.1564
   -301613.01648   -203768.46746  20200814.8984                   20200815.3674
   5996576.84648   4681683.79946  21234875.8284                   21234875.1374
  -3222181.30546  -2424592.43943  24072832.0944                   24072835.6684
   6938576.93847   5423283.15344  23588810.6484                   23588813.6884
   4301764.73247   3389931.17045  21671189.8204                   21671192.1294
  -4151795.48448  -3172634.74746  20930367.1644                   20930366.0124
 11  8 23 16 27  0.0000000  0 11G07G08G10G28G16G13G23G11G06G03G19
  -6662288.062 8  -5179378.698 7  21469857.789
  -8132775.46947  -6302765.29843  23233131.2344                   23233132.5594
   1870212.07546   1464953.57043  24220196.6884                   24220199.8094
  -3913212.98246  -3010829.51043  23980186.3914                   23980188.8594
  10048335.59446   7834190.33043  24153616.2894                   24153617.8364
   -268437.71148   -177917.58646  20207128.0634                   20207128.2464
   6079298.97048   4746142.54246  21250617.2424                   21250616.5124
  -3301984.18246  -2486776.47743  24057646.8134                   24057649.6174
   7024417.90647   5490172.19844  23605146.0864                   23605148.1294
   4373668.29647   3445959.89045  21684872.9534                   21684874.3594
  -4151101.01148  -3172093.57546  20930498.7424                   20930497.9614
 11  8 23 16 27 30.0000000  0 11G07G08G10G28G16G13G23G11G06G03G19
  -6714162.002 8  -5219799.942 7  21459986.453
  -8204131.43947  -6358367.29844  23219552.0554                   23219553.5274
   1911768.88846   1497335.48243  24228103.7424                   24228107.7814
  -3976316.71046  -3060001.15143  23968178.0554                   23968180.3714
  10137243.25746   7903468.96443  24170535.2424                   24170535.9344
   -234676.71848   -151610.32746  20213552.9304                   20213552.8754
   6162440.68548   4810928.25345  21266438.5944                   21266437.6684
  -3381810.46146  -2548978.69443  24042455.8674                   24042459.1564
   7110568.04246   5557302.12143  23621539.3914                   23621542.1484
   4446043.69347   3502356.27045  21698645.6254                   21698646.9024
  -4149782.90648  -3171066.46046  20930749.8754                   20930748.4964
 11  8 23 16 28  0.0000000  0 11G07G08G10G28G16G13G23G11G06G03G19
  -6765931.328 8  -5260139.631 7  21450135.422
  -8275525.06247  -6413998.65244  23205967.0704                   23205968.0784
   1953645.44546   1529966.57443  24236072.9454                   24236075.9104
  -4039203.09146  -3109003.46543  23956211.3134                   23956214.0474
  10226094.76646   7972703.85643  24187443.1724                   24187444.8984
   -200332.15648   -124848.34646  20220088.0164                   20220088.5784
   6245998.18548   4876037.95245  21282339.5084                   21282338.2344
  -3461658.99846  -2611198.18643  24027260.9064                   24027265.0514
   7197023.39546   5624669.89244  23637991.4224                   23637994.5944
   4518886.42047   3559116.81445  21712506.8914                   21712508.3914
  -4147842.45548  -3169554.39546  20931119.0474                   20931118.0044
 11  8 23 16 28 30.0000000  0 11G07G08G10G28G16G13G23G11G06G03G19
  -6817594.035 8  -5300396.274 7  21440304.281
  -8346954.80547  -6469658.14444  23192373.7734                   23192376.0594
   1995840.17546   1562845.55443  24244102.1174                   24244106.2344
  -4101870.94346  -3157835.45043  23944286.1884                   23944288.5784
  10314890.09246   8041894.93143  24204339.9844                   24204341.1684
   -165403.72148    -97631.39546  20226734.8914                   20226734.7854
   6329969.75948   4941470.28345  21298318.3134                   21298317.6524
  -3541526.05546  -2673432.25343  24012062.6724                   24012066.0864
   7283782.42446   5692274.30544  23654501.3054                   23654504.2704
   4592195.56447   3616240.79444  21726457.6024                   21726458.6564
  -4145278.77047  -3167556.69446  20931606.7504                   20931605.4844
 11  8 23 16 29  0.0000000  0 11G07G08G10G28G16G13G23G11G06G03G19
  -6869149.773 8  -5340569.524 7  21430493.344
  -8418421.31647  -6525346.28044  23178774.6644                   23178776.1884
   2038348.86046   1595969.18243  24252191.4304                   24252195.4414
  -4164322.10546  -3206498.63943  23932401.7814                   23932404.3364
  10403626.43746   8111040.06943  24221225.5634                   24221227.8134
   -129893.60448    -69961.18946  20233492.3674                   20233492.2544
   6414351.72048   5007222.42345  21314375.3594                   21314375.1294
  -3621410.43146  -2735679.70143  23996860.9304                   23996864.5084
   7370841.04246   5760112.12344  23671068.0164                   23671070.3524
   4665966.99347   3673725.01444  21740495.5634                   21740496.6564
  -4142093.53448  -3165074.66746  20932212.7194                   20932211.4884
 11  8 23 16 29 30.0000000  0 11G07G08G10G28G16G13G23G11G06G03G19
  -6920595.195 7  -5380656.853 7  21420703.766
  -8489921.80447  -6581060.88844  23165168.2114                   23165170.1484
   2081171.25346   1629337.25443  24260340.0864                   24260343.7154
  -4226554.39546  -3254991.26643  23920559.6024                   23920561.6414
  10492304.91246   8180140.08143  24238101.1414                   24238102.5554
    -93800.63148    -41836.80646  20240360.6724                   20240360.6454
   6499143.93048   5073294.21445  21330511.4844                   21330510.9454
  -3701307.31346  -2797936.97643  23981657.0784                   23981660.6914
   7458198.77246   5828183.05143  23687691.2114                   23687694.1564
   4740199.65647   3731568.63344  21754621.7584                   21754622.9884
  -4138284.36748  -3162106.45546  20932937.5164                   20932936.3754
 11  8 23 16 30  0.0000000  0 11G07G08G10G28G16G13G23G11G06G03G19
  -6971930.568 8  -5420658.424 7  21410934.656
  -8561457.13147  -6636802.65044  23151555.7114                   23151557.7734
   2124303.32246   1662946.66343  24268547.7424                   24268551.7504
  -4288569.30146  -3303314.46943  23908758.2034                   23908761.5314
  10580923.17046   8249193.20043  24254963.7734                   24254966.4064
    -57126.96548    -13259.93646  20247339.5864                   20247339.1374
   6584342.32048   5139682.51445  21346724.2664                   21346723.7504
  -3781215.22346  -2860202.79543  23966450.9614                   23966455.1174
   7545851.93346   5896484.19344  23704371.0004                   23704373.8484
   4814890.23847   3789769.07044  21768834.8444                   21768835.9774
  -4133852.68648  -3158653.17246  20933780.9384                   20933779.6954
 11  8 23 16 30 30.0000000  0 11G07G08G10G28G16G13G23G11G06G03G19
  -7023153.986 8  -5460572.761 7  21401187.148
  -8633026.12347  -6692570.62244  23137935.9534                   23137938.0314
   2167743.35246   1696796.02543  24276814.0004                   24276817.5634
  -4350365.85046  -3351467.51843  23896998.6254                   23897001.3554
  10669480.63046   8318198.94243  24271817.0554                   24271819.0634
    -19872.68548     15769.35746  20254428.5944                   20254428.6454
   6669945.49348   5206386.22845  21363013.9844                   21363013.0824
  -3861130.66146  -2922474.47443  23951243.8524                   23951247.4414
   7633798.65346   5965014.03243  23721106.6884                   23721109.7344
   4890036.21747   3848324.36044  21783134.4224                   21783135.5274
  -4128797.98748  -3154714.43346  20934742.5784                   20934741.4414
 11  8 23 16 31  0.0000000  0 11G07G08G10G28G16G13G23G11G06G03G19
  -7074263.284 8  -5500398.148 7  21391461.109
  -8704627.13747  -6748363.56444  23124311.0084                   23124312.7624
   2211489.76746   1730884.13043  24285138.2974                   24285142.5274
  -4411943.84546  -3399450.30643  23885280.2114                   23885282.5514
  10757977.12046   8387157.19343  24288656.5634                   24288659.0594
     17961.92948     45250.84646  20261628.4304                   20261628.4694
   6755951.50448   5273403.85545  21379380.1884                   21379379.6134
  -3941050.00446  -2984749.17343  23936035.9064                   23936039.3954
   7722037.12646   6033771.23643  23737898.9384                   23737900.4104
   4965635.83847   3907233.14644  21797520.3054                   21797522.0434
  -4123119.48847  -3150289.60246  20935823.1644                   20935822.1484
 11  8 23 16 31 30.0000000  0 11G07G08G10G28G16G13G23G11G06G03G19
  -7125258.931 8  -5540134.970 7  21381757.625
  -8776261.64647  -6804182.57044  23110679.4774                   23110681.1094
   2255537.83546   1765207.30743  24293520.3754                   24293524.7664
  -4473305.56046  -3447264.56044  23873603.5234                   23873605.8984
  10846409.44846   8456065.36943  24305485.3754                   24305486.8674
     56373.97448     75182.29446  20268937.8594                   20268937.9734
   6842355.77548   5340731.81145  21395822.6024                   21395822.2664
  -4020972.79146  -3047026.58443  23920826.8364                   23920830.1564
   7810562.82046   6102752.25643  23754744.6564                   23754746.6954
   5041684.35147   3966491.67945  21811992.8754                   21811994.1024
  -4116819.33748  -3145380.38446  20937022.3284                   20937020.9924
 11  8 23 16 32  0.0000000  0 11G07G08G10G28G16G13G23G11G06G03G19
  -7176138.694 8  -5579781.493 7  21372075.141
  -8847927.62847  -6860026.12744  23097041.1334                   23097043.4224
   2299885.87946   1799764.18643  24301960.1024                   24301963.5044
  -4534449.80846  -3494909.30344  23861968.4924                   23861970.8634
  10934777.60546   8524923.63043  24322300.8914                   24322302.8284
     95363.56748    105563.78046  20276357.4304                   20276357.4774
   6929157.35448   5408369.35245  21412340.4384                   21412340.0124
  -4100895.07646  -3109303.57543  23905617.8364                   23905622.1174
   7899374.02146   6171955.76443  23771645.4064                   23771645.9694
   5118180.37247   4026098.96645  21826548.9924                   21826550.4614
  -4109896.97548  -3139986.34146  20938339.2424                   20938338.1024
 11  8 23 16 32 30.0000000  0 11G07G08G10G28G16G13G23G11G06G03G19
  -7226902.326 8  -5619337.552 7  21362415.070
  -8919625.50947  -6915894.56244  23083397.6024                   23083399.9924
   2344530.41246   1834552.13943  24310455.6804                   24310459.5784
  -4595377.55547  -3542385.37843  23850374.5084                   23850376.6994
  11023079.62046   8593730.31443  24339105.0474                   24339106.8284
    134928.88248    136393.88446  20283886.3284                   20283886.5514
   7016352.46248   5476313.54145  21428933.1954                   21428932.5084
  -4180814.89546  -3171578.64743  23890409.6884                   23890413.0354
   7988467.42547   6241379.16843  23788598.8914                   23788600.4654
   5195120.70647   4086052.43345  21841190.5704                   21841191.5084
  -4102353.07548  -3134107.96246  20939774.8364                   20939773.8794
 11  8 23 16 33  0.0000000  0 11G07G08G10G28G16G13G23G11G06G03G19
  -7277545.885 8  -5658800.035 7  21352777.883
  -8991351.87647  -6971785.16544  23069748.8594                   23069751.0394
   2389471.49946   1869571.10443  24319008.3594                   24319011.4694
  -4656086.46747  -3589690.98343  23838821.7504                   23838823.2664
  11111317.01046   8662486.67643  24355895.1414                   24355897.9804
    175070.96848    167673.41046  20291524.6954                   20291525.3714
   7103941.24147   5544564.47345  21445600.8984                   21445600.0904
  -4260726.93546  -3233847.62843  23875202.5084                   23875206.7464
   8077842.95447   6311022.42043  23805606.1954                   23805607.8244
   5272504.53347   4146351.50345  21855915.9304                   21855917.5554
  -4094185.60148  -3127743.69146  20941329.0944                   20941328.3444
 11  8 23 16 33 30.0000000  0 11G07G08G10G28G16G13G23G11G06G03G19
  -7328071.174 7  -5698170.356 7  21343163.266
  -9063109.73247  -7027700.34744  23056094.2584                   23056096.2704
   2434703.15746   1904816.55343  24327615.3594                   24327618.3484
  -4716580.26747  -3636828.91443  23827310.3364                   23827311.8054
  11199485.30746   8731189.16643  24372673.5704                   24372675.3594
    215786.29948    199399.62546  20299273.3284                   20299273.3094
   7191917.66548   5613117.47245  21462342.2584                   21462341.7074
  -4340631.97646  -3296111.18243  23859996.9224                   23860000.7384
   8167494.83947   6380880.99143  23822666.6804                   23822668.2894
   5350326.23947   4206991.75145  21870725.2194                   21870726.3284
  -4085398.35948  -3120896.48346  20943001.3754                   20943000.6374
 11  8 23 16 34  0.0000000  0 11G07G08G10G28G16G13G23G11G06G03G19
  -7378473.885 8  -5737445.161 7  21333572.227
  -9134895.03147  -7083636.87744  23042433.5394                   23042435.6054
   2480225.90746   1940288.80243  24336277.8984                   24336280.7424
  -4776855.48347  -3683796.54143  23815840.0704                   23815841.8094
  11287586.83046   8799839.61743  24389438.4774                   24389440.8364
    257076.82248    231574.04346  20307130.3524                   20307130.6254
   7280282.47348   5681973.11245  21479157.2584                   21479156.8714
  -4420523.75746  -3358364.43343  23844794.0234                   23844797.9144
   8257423.51846   6450955.27143  23839779.3524                   23839781.0984
   5428586.31947   4267973.61245  21885617.4844                   21885618.8164
  -4075988.11348  -3113563.81146  20944792.0004                   20944791.0124
 11  8 23 16 34 30.0000000  0 11G07G08G10G28G16G13G23G11G06G03G19
  -7428754.493 8  -5776624.825 7  21324004.203
  -9206708.74247  -7139595.57344  23028767.2894                   23028769.6684
   2526035.41746   1975984.52443  24344995.5084                   24344998.8674
  -4836914.40247  -3730595.61943  23804411.4454                   23804412.8444
  11375618.83446   8868435.92543  24406191.2424                   24406193.0554
    298939.53748    264194.31546  20315096.3754                   20315096.6484
   7369030.93048   5751127.69845  21496045.8834                   21496045.3914
  -4500401.12346  -3420606.41243  23829593.8444                   23829597.8444
   8347624.72246   6521241.88243  23856943.7274                   23856946.0824
   5507279.80447   4329293.17144  21900592.3984                   21900593.6524
  -4065956.72748  -3105747.13046  20946701.0784                   20946700.0664
 11  8 23 16 35  0.0000000  0 11G07G08G10G28G16G13G23G11G06G03G19
  -7478910.134 7  -5815707.112 7  21314459.383
  -9278549.37947  -7195575.20744  23015096.2894                   23015098.0084
   2572130.44146   2011902.64943  24353767.1174                   24353770.8674
  -4896756.07246  -3777225.43343  23793023.3204                   23793025.2034
  11463581.45546   8936978.18643  24422929.5634                   24422932.2194
    341374.30947    297260.35246  20323171.2734                   20323171.9774
   7458162.51948   5820580.82945  21513007.2504                   21513007.2154
  -4580260.23146  -3482834.13443  23814396.8364                   23814400.8094
   8438097.10746   6591739.77643  23874160.6954                   23874162.6954
   5586405.80547   4390949.76744  21915648.9144                   21915651.0904
  -4055303.75047  -3097446.08446  20948728.1484                   20948727.4884
 11  8 23 16 35 30.0000000  0 11G07G08G10G28G16G13G23G11G06G03G19
  -7528941.625 8  -5854692.662 7  21304938.773
  -9350417.76747  -7251576.47644  23001420.2584                   23001421.6684
   2618505.69746   2048039.24443  24362591.4534                   24362595.3164
  -4956382.76347  -3823687.73543  23781677.0554                   23781679.3444
  11551471.46646   9005463.82543  24439653.9774                   24439656.7194
    384377.98548    330769.70046  20331354.8834                   20331355.2074
   7547672.22148   5890328.60145  21530040.5084                   21530039.7584
  -4660100.86246  -3545047.53843  23799203.9454                   23799207.3554
   8528835.87146   6662445.27043  23891427.0394                   23891430.0124
   5665958.98047   4452939.21644  21930787.9614                   21930788.6914
  -4044031.57148  -3088662.54146  20950873.4064                   20950872.0394
 11  8 23 16 36  0.0000000  0 11G07G08G10G28G16G13G23G11G06G03G19
  -7578846.049 8  -5893579.212 7  21295442.469
  -9422311.43847  -7307597.45944  22987739.5314                   22987741.3484
   2665160.54746   2084393.65243  24371469.4064                   24371473.3914
  -5015792.76747  -3869981.18443  23770372.1884                   23770373.2664
  11639289.68946   9073893.49043  24456366.2894                   24456367.8554
    427951.37148    364722.96446  20339646.5394                   20339647.1414
   7637559.02848   5960370.21745  21547144.9924                   21547144.8094
  -4739918.19346  -3607242.77343  23784015.0004                   23784018.9454
   8619840.16446   6733357.63143  23908744.3054                   23908747.7194
   5745938.22947   4515260.65644  21946007.5164                   21946009.2154
  -4032138.86648  -3079395.47646  20953136.1174                   20953135.5124
 11  8 23 16 36 30.0000000  0 11G07G08G10G28G16G13G23G11G06G03G19
  -7628621.436 8  -5932365.213 7  21285970.836
  -9494229.38447  -7363637.35544  22974054.5554                   22974056.9774
   2712093.04146   2120964.36643  24380400.5234                   24380404.2384
  -5074985.82147  -3916105.59743  23759107.6804                   23759108.6684
  11727035.37645   9142266.72143  24473063.7974                   24473065.1374
    472093.67648    399119.54946  20348046.5944                   20348046.9654
   7727820.74348   6030703.96345  21564321.0944                   21564320.5984
  -4819708.72546  -3669417.09043  23768831.4064                   23768835.7154
   8711108.06746   6804475.39643  23926113.2584                   23926115.3714
   5826341.40747   4577912.43344  21961307.8594                   21961308.9734
  -4019625.64848  -3069644.89346  20955517.6254                   20955516.7234
 11  8 23 16 37  0.0000000  0 11G07G08G10G28G16G13G23G11G06G03G19
  -7678267.117 8  -5971050.144 7  21276523.297
  -9566171.60147  -7419696.19044  22960364.4224                   22960366.3164
   2759299.20646   2157748.39443  24389384.2034                   24389387.5474
  -5133963.03246  -3962061.79643  23747884.5394                   23747885.5314
  11814706.97746   9210582.10143  24489747.4924                   24489749.1914
    516802.93148    433957.90946  20356554.6954                   20356554.8834
   7818454.28148   6101327.44445  21581568.7274                   21581568.1134
  -4899470.38247  -3731568.94143  23753653.3284                   23753656.9454
   8802636.09446   6875795.86543  23943529.9304                   23943533.1024
   5907164.70647   4640891.57344  21976688.3364                   21976689.4344
  -4006493.20047  -3059411.78946  20958016.2504                   20958015.2934
 11  8 23 16 37 30.0000000  0 11G07G08G10G28G16G13G23G11G06G03G19
  -7727782.626 8  -6009633.626 7  21267100.602
  -9638138.19847  -7475774.02144  22946669.4384                   22946671.6214
   2806775.73546   2194743.04943  24398418.0164                   24398421.3054
  -5192725.48746  -4007850.68043  23736702.5864                   23736703.8094
  11902302.69346   9278838.44843  24506415.6174                   24506418.4024
    562077.14648    469236.50246  20365170.2114                   20365170.1684
   7909456.26248   6172238.01545  21598885.5004                   21598885.4694
  -4979201.22146  -3793696.78443  23738480.4924                   23738484.1914
   8894420.94646   6947316.46143  23960996.0704                   23960998.9964
   5988404.86347   4704195.54244  21992148.1414                   21992149.0004
  -3992742.83148  -3048697.20446  20960633.2274                   20960631.9224
 11  8 23 16 38  0.0000000  0 11G07G08G10G28G16G13G23G11G06G03G19
  -7777165.743 8  -6048113.953 7  21257703.289
  -9710127.27647  -7531869.37645  22932970.2504                   22932972.8714
   2854520.59946   2231946.81743  24407503.2114                   24407507.2704
  -5251272.64346  -4053471.73743  23725560.9614                   23725562.3674
  11989822.49846   9347035.60043  24523069.9144                   24523072.3834
    607915.37848    504954.58046  20373892.6484                   20373892.7814
   8000824.19348   6243433.72845  21616272.6804                   21616271.8984
  -5058897.84147  -3855797.95043  23723314.7424                   23723318.2734
   8986460.48446   7019035.48343  23978509.9774                   23978513.6914
   6070059.87147   4767822.78544  22007686.3594                   22007687.3204
  -3978374.41748  -3037501.02546  20963367.5784                   20963366.2234
 11  8 23 16 38 30.0000000  0 11G07G08G10G28G16G13G23G11G06G03G19
  -7826413.685 8  -6086488.953 7  21248332.016
  -9782136.62347  -7587980.48244  22919267.4384                   22919268.8634
   2902532.37946   2269358.55643  24416640.1884                   24416643.3714
  -5309603.63347  -4098924.39643  23714460.8524                   23714462.2034
  12077266.55746   9415173.78143  24539710.3754                   24539712.9964
    654317.89248    541112.36746  20382722.9844                   20382723.2704
   8092557.01447   6314913.78145  21633728.4384                   21633727.9844
  -5138555.98947  -3917869.13243  23708155.8674                   23708159.4534
   9078753.58546   7090952.10743  23996074.0474                   23996076.0164
   6152128.39547   4831772.23044  22023303.8914                   22023304.6054
  -3963386.91748  -3025822.45046  20966219.2814                   20966218.1054
 11  8 23 16 39  0.0000000  0 11G07G08G10G28G16G13G23G11G06G03G19
  -7875526.698 8  -6124758.803 7  21238985.781
  -9854167.30547  -7644108.26044  22905560.4384                   22905561.5554
   2950807.15046   2306975.20543  24425826.7664                   24425830.5434
  -5367720.09646  -4144209.90243  23703401.6884                   23703403.1484
  12164632.33346   9483250.90943  24556335.6254                   24556337.6484
    701282.22248    577707.93146  20391659.9064                   20391659.8754
   8184651.09748   6386675.34645  21651253.6334                   21651253.4024
  -5218174.15247  -3979909.16043  23693005.4224                   23693008.8164
   9171296.24346   7163063.21543  24013684.9224                   24013685.9304
   6234605.83147   4896040.33245  22038998.7734                   22038999.4694
  -3947782.41947  -3013663.10246  20969188.5314                   20969187.8674
 11  8 23 16 39 30.0000000  0 11G07G08G10G28G16G13G23G11G06G03G19
  -7924503.237 8  -6162922.310 7  21229665.914
  -9926218.39947  -7700251.88444  22891849.7034                   22891850.9534
   2999341.75746   2344794.34343  24435062.0864                   24435065.4264
  -5425622.06446  -4189328.27743  23692383.5394                   23692384.6914
  12251919.10446   9551266.50443  24572946.0084                   24572947.8284
    748806.62948    614739.91046  20400703.5864                   20400703.8054
   8277103.13347   6458715.82545  21668846.2114                   21668846.3094
  -5297749.76247  -4041916.03843  23677862.3594                   23677865.8754
   9264085.79046   7235366.73243  24031341.1174                   24031343.0904
   6317489.65647   4960625.13144  22054770.7894                   22054772.2774
  -3931561.98248  -3001023.80646  20972275.0314                   20972274.0044
 11  8 23 16 40  0.0000000  0 11G07G08G10G28G16G13G23G11G06G03G19
  -7973340.910 8  -6200977.613 7  21220372.539
  -9998288.10247  -7756410.03144  22878135.2114                   22878136.2304
   3048134.97846   2382814.99443  24444347.6174                   24444351.6844
  -5483309.14147  -4234279.17744  23681405.6644                   23681407.1524
  12339126.83146   9619220.52243  24589540.4454                   24589542.6454
    796891.00948    652208.24546  20409853.6724                   20409853.8404
   8369911.77948   6531034.18545  21686507.7584                   21686507.5044
  -5377278.83446  -4103886.71143  23662728.6174                   23662731.5514
   9357120.57447   7307861.35543  24049044.7734                   24049047.7464
   6400777.42447   5025524.65744  22070619.5314                   22070620.8364
  -3914725.15948  -2987904.20946  20975479.2424                   20975478.1684
 11  8 23 16 40 30.0000000  0 11G07G08G10G28G16G13G23G11G06G03G19
  -8022038.257 8  -6238923.574 7  21211105.617
 -10070375.92647  -7812582.32945  22864417.2584                   22864418.5704
   3097183.72046   2421034.73143  24453680.9304                   24453685.2584
  -5540781.63546  -4279062.88343  23670468.9534                   23670470.7234
  12426254.75146   9687112.27943  24606120.4694                   24606122.8484
    845533.57148    690111.51246  20419109.9844                   20419110.1884
   8463074.18348   6603628.19245  21704236.3134                   21704235.7734
  -5456758.71447  -4165818.97443  23647604.6804                   23647607.3134
   9450398.07047   7380545.09143  24066796.3594                   24066797.3444
   6484466.67647   5090737.03844  22086545.5554                   22086546.9304
  -3897272.40348  -2974304.66446  20978800.5554                   20978799.5004
 11  8 23 16 41  0.0000000  0 11G07G08G10G28G16G13G23G11G06G03G19
  -8070595.293 8  -6276760.181 7  21201865.492
 -10142481.85947  -7868768.70244  22850695.6804                   22850697.7074
   3146484.16046   2459450.63643  24463063.1414                   24463066.8984
  -5598041.22847  -4323680.69343  23659573.2344                   23659574.4574
  12513300.23646   9754939.88743  24622685.4454                   24622686.8134
    894731.93848    728447.88746  20428472.4774                   20428472.3754
   8556586.11848   6676494.57245  21722030.9304                   21722030.5394
  -5536187.64246  -4227711.59443  23632489.0784                   23632492.3674
   9543914.28747   7453414.85443  24084591.0394                   24084593.7464
   6568553.25847   5156259.01245  22102546.5634                   22102548.5594
  -3879205.88348  -2960226.84246  20982238.2974                   20982237.3444
 11  8 23 16 41 30.0000000  0 11G07G08G10G28G16G13G23G11G06G03G19
  -8119008.778 8  -6314484.956 7  21192652.375
 -10214603.79447  -7924967.59644  22836971.5944                   22836973.5164
   3196035.03146   2498061.66843  24472491.5394                   24472496.0434
  -5655086.36746  -4368131.36544  23648717.0634                   23648719.1684
  12600264.44446   9822704.13443  24639233.7734                   24639236.0234
    944486.20548    767217.42246  20437940.2894                   20437940.4104
   8650446.61147   6749632.56745  21739891.3134                   21739891.4774
  -5615561.23147  -4289561.07443  23617385.3524                   23617387.5594
   9637668.31447   7526469.88943  24102431.6484                   24102434.1294
   6653036.08247   5222089.77244  22118623.0634                   22118624.4884
  -3860524.37848  -2945669.81846  20985793.3054                   20985791.9884
 11  8 23 16 42  0.0000000  0 11G07G08G10G28G16G13G23G11G06G03G19
  -8167278.650 8  -6352097.814 7  21183466.820
 -10286741.76847  -7981178.95244  22823243.6024                   22823245.8014
   3245832.40146   2536864.77243  24481968.5314                   24481972.1764
  -5711918.65846  -4412416.22643  23637902.6334                   23637904.2814
  12687145.30546   9890403.40243  24655766.3984                   24655769.0634
    994793.49448    806417.88446  20447513.3984                   20447513.5634
   8744651.98648   6823039.26845  21757818.2974                   21757818.0234
  -5694877.45047  -4351365.84443  23602292.1174                   23602294.7734
   9731656.36346   7599707.30443  24120317.5944                   24120319.0084
   6737910.44047   5288225.58344  22134773.6564                   22134775.0434
  -3841230.15248  -2930635.33846  20989465.2034                   20989463.4414
 11  8 23 16 42 30.0000000  0 11G07G08G10G28G16G13G23G11G06G03G19
  -8215402.207 8  -6389596.662 7  21174309.203
 -10358893.83547  -8037401.29444  22809513.7814                   22809515.1914
   3295874.48446   2575858.53443  24491491.2664                   24491495.3914
  -5768537.67346  -4456534.88944  23627128.3284                   23627130.0354
  12773942.54146   9958037.49543  24672283.4224                   24672286.7464
   1045653.48848    846049.01946  20457191.6484                   20457192.1174
   8839200.37348   6896713.26345  21775810.4694                   21775810.5434
  -5774133.04047  -4413123.38743  23587209.9534                   23587211.5634
   9825876.63946   7673125.64443  24138247.0314                   24138249.1804
   6823175.03647   5354665.47144  22150999.3054                   22151001.0744
  -3821322.98148  -2915123.23646  20993253.2274                   20993252.0704
 11  8 23 16 43  0.0000000  0 11G07G08G10G28G16G13G23G11G06G03G19
  -8263377.555 8  -6426980.047 7  21165180.016
 -10431058.75047  -8093633.64644  22795780.8834                   22795782.2234
   3346158.90545   2615041.18743  24501058.0164                   24501063.5354
  -5824943.14347  -4500487.11144  23616394.5784                   23616397.1524
  12860656.20946  10025606.53243  24688783.9844                   24688787.0084
   1097065.28048    886110.12646  20466974.9454                   20466975.5234
   8934089.75848   6970652.97145  21793867.4384                   21793867.3484
  -5853324.64247  -4474831.04143  23572139.5704                   23572142.6414
   9920327.32446   7746723.53143  24156219.1644                   24156223.0394
   6908827.41647   5421407.54844  22167298.2894                   22167299.9304
  -3800803.36448  -2899133.90446  20997157.9064                   20997156.8204
 11  8 23 16 43 30.0000000  0 11G07G08G10G28G16G13G23G11G06G03G19
  -8311204.210 8  -6464247.551 7  21156078.844
 -10503236.63547  -8149876.10344  22782045.7194                   22782047.3404
   3396682.22646   2654409.96743  24510674.0234                   24510678.3054
  -5881136.03947  -4544273.73144  23605701.2584                   23605703.5664
  12947284.53646  10093109.05243  24705269.7664                   24705272.1214
   1149026.42548    926599.31646  20476863.1954                   20476863.3484
   9029316.31348   7044855.40745  21811988.2034                   21811987.8714
  -5932449.61146  -4536486.77143  23557082.2974                   23557085.2344
  10015004.69746   7820498.04143  24174236.4224                   24174239.2424
   6994863.69747   5488448.75844  22183670.7344                   22183672.3284
  -3779672.79948  -2882668.50046  21001179.0394                   21001177.3674
 11  8 23 16 44  0.0000000  0 11G07G08G10G28G16G13G23G11G06G03G19
  -8358881.064 8  -6501398.333 7  21147006.305
 -10575427.16847  -8206128.41844  22768308.6484                   22768310.0474
   3447441.30146   2693962.43742  24520333.5634                   24520336.8834
  -5937117.43047  -4587895.56644  23595048.4844                   23595049.9534
  13033825.81346  10160543.73243  24721738.0164                   24721740.2384
   1201534.83948    967514.93446  20486854.8444                   20486855.4024
   9124876.71548   7119317.97545  21830173.2584                   21830172.9844
  -6011505.81746  -4598088.96343  23542038.9694                   23542041.8594
  10109905.68046   7894446.78743  24192295.9924                   24192298.4574
   7081280.61247   5555786.56044  22200114.8284                   22200116.6804
  -3757932.57048  -2865728.04846  21005316.0864                   21005314.9494
 11  8 23 16 44 30.0000000  0 11G07G08G10G28G16G13G23G11G06G03G19
  -8406406.041 8  -6538430.743 7  21137962.711
 -10647628.35947  -8262389.04545  22754569.2734                   22754571.0084
   3498433.99745   2733696.92643  24530037.0944                   24530040.8524
  -5992887.21047  -4631352.49344  23584436.2974                   23584438.3054
  13120280.22546  10227910.73043  24738190.1334                   24738192.2114
   1254589.71448   1008856.36946  20496950.6414                   20496951.3984
   9220768.96748   7194039.12645  21848420.7034                   21848420.2734
  -6090489.85546  -4659634.86343  23527008.4534                   23527011.9184
  10205028.49246   7968568.36943  24210396.8134                   24210400.3524
   7168076.17747   5623419.41644  22216631.7034                   22216633.1524
  -3735583.45548  -2848313.12346  21009568.8984                   21009567.4534
 11  8 23 16 45  0.0000000  0 11G07G08G10G28G16G13G23G11G06G03G19
  -8453778.333 8  -6575344.203 7  21128947.875
 -10719840.38547  -8318658.11144  22740827.9534                   22740829.4304
   3549656.38746   2773610.48343  24539784.2504                   24539788.0234
  -6048446.62147  -4674645.49544  23573862.9144                   23573865.1174
  13206646.02446  10295208.66843  24754625.2974                   24754627.1174
   1308188.33248   1050621.50446  20507150.6334                   20507150.7624
   9316989.29748   7269015.93345  21866731.1954                   21866730.4614
  -6169399.48346  -4721122.78843  23511993.0004                   23511995.6484
  10300369.55046   8042859.98843  24228539.6254                   24228542.9304
   7255246.46047   5691344.25044  22233219.9774                   22233221.8874
  -3712626.54548  -2830424.61046  21013937.2424                   21013936.1764
 11  8 23 16 45 30.0000000  0 11G07G08G10G28G16G13G23G11G06G03G19
  -8500993.229 8  -6612135.009 7  21119963.563
 -10792059.46647  -8374932.67744  22727084.8594                   22727086.8874
   3601108.62546   2813703.01842  24549575.4774                   24549579.1134
  -6103793.14247  -4717772.61444  23563330.9064                   23563333.0004
  13292925.24546  10362439.17143  24771042.5554                   24771044.9304
   1362332.18948   1092811.49846  20517453.8524                   20517453.8794
   9413537.81348   7344248.45445  21885103.6644                   21885103.3634
  -6248229.12447  -4782548.41944  23496991.7734                   23496994.9454
  10395929.07546   8117321.89543  24246724.7194                   24246727.9024
   7342791.21647   5759560.92244  22249879.0394                   22249880.8014
  -3689060.40948  -2812061.37646  21018421.5164                   21018420.6174
 11  8 23 16 46  0.0000000  0 11G07G08G10G28G16G13G23G11G06G03G19
  -8548053.272 8  -6648805.155 7  21111008.195
 -10864287.70947  -8431214.37944  22713339.5704                   22713342.3164
   3652784.26146   2853969.69543  24559409.3754                   24559414.0084
  -6158929.98247  -4760736.34044  23552839.1414                   23552841.4494
  13379113.91646  10429599.10943  24787444.7814                   24787446.6604
   1417016.44748   1135422.57846  20527859.5864                   20527860.0514
   9510408.74248   7419732.22945  21903537.5554                   21903537.4304
  -6326978.87247  -4843911.78644  23482007.0554                   23482009.8794
  10491701.42146   8191949.62743  24264949.1954                   24264952.6214
   7430704.38647   5828064.63944  22266608.8444                   22266610.2814
  -3664889.14348  -2793226.61946  21023021.2894                   21023020.0204
 11  8 23 16 46 30.0000000  0 11G07G08G10G28G16G13G23G11G06G03G19
  -8594954.124 8  -6685351.255 7  21102082.938
 -10936521.88947  -8487500.71244  22699594.9304                   22699595.8634
   3704683.69746   2894410.75642  24569284.9694                   24569290.0124
  -6213855.55247  -4803535.44444  23542386.6644                   23542389.3524
  13465213.54246  10496689.65143  24803829.3364                   24803831.0864
   1472241.65448   1178455.18146  20538368.7584                   20538369.1884
   9607601.56048   7495466.79245  21922033.1254                   21922032.5784
  -6405643.63546  -4905208.90343  23467036.4614                   23467039.0554
  10587686.34946   8266743.00143  24283214.7894                   24283217.8914
   7518985.50847   5896855.07644  22283407.5944                   22283410.4924
  -3640111.24448  -2773919.16646  21027736.6094                   21027735.3754
 11  8 23 16 47  0.0000000  0 11G07G08G10G28G16G13G23G11G06G03G19
  -8641695.979 8  -6721773.444 7  21093188.516
 -11008762.76647  -8543792.27044  22685847.0164                   22685849.1724
   3756802.04146   2935022.41343  24579203.7344                   24579206.9774
  -6268571.88647  -4846171.51544  23531974.9144                   23531976.3594
  13551221.72846  10563708.89043  24820195.7114                   24820197.9694
   1528004.27748   1221906.53546  20548979.9144                   20548979.9494
   9705111.17748   7571448.24145  21940588.0704                   21940588.1844
  -6484222.16347  -4966438.87143  23452083.6884                   23452086.2734
  10683879.53146   8341698.66943  24301519.1724                   24301522.8984
   7607630.09047   5965928.74144  22300276.6884                   22300278.3524
  -3614729.67648  -2754141.33046  21032566.5164                   21032565.4694
 11  8 23 16 47 30.0000000  0 11G07G08G10G28G16G13G23G11G06G03G19
  -8688276.752 8  -6758070.139 7  21084324.508
 -11081008.61347  -8600087.71344  22672099.8054                   22672101.1374
   3809136.94546   2975802.84643  24589162.0864                   24589166.3164
  -6323079.13447  -4888644.69444  23521602.5394                   23521604.3094
  13637137.88045  10630656.46842  24836545.1644                   24836548.0314
   1584303.08848   1265775.71346  20559693.3444                   20559694.0394
   9802935.86647   7647675.18645  21959203.7664                   21959203.7624
  -6562711.30847  -5027599.10044  23437147.4774                   23437150.3014
  10780278.51846   8416814.69344  24319864.1024                   24319866.6214
   7696635.08547   6035283.24544  22317213.5944                   22317215.4614
  -3588745.02348  -2733893.54546  21037510.8364                   21037510.2384
 11  8 23 16 48  0.0000000  0 11G07G08G10G28G16G13G23G11G06G03G19
  -8734692.839 8  -6794238.488 7  21075491.688
 -11153256.15447  -8656384.48345  22658351.1094                   22658353.3834
   3861687.74546   3016751.46343  24599162.0234                   24599166.6994
  -6377375.09947  -4930953.18544  23511270.0944                   23511272.2854
  13722963.85146  10697533.76242  24852877.5004                   24852879.0474
   1641138.82348   1310063.27146  20570509.1884                   20570509.6294
   9901075.27248   7724147.36745  21977879.6954                   21977879.6484
  -6641105.35947  -5088685.29243  23422229.8134                   23422232.3204
  10876883.35346   8492091.09643  24338247.3054                   24338250.0864
   7786000.52747   6104918.61344  22334219.1644                   22334221.2734
  -3562155.85248  -2713174.71246  21042570.8364                   21042569.3554
 11  8 23 16 48 30.0000000  0 11G07G08G10G28G16G13G23G11G06G03G19
  -8780945.537 8  -6830279.536 7  21066689.711
 -11225507.74247  -8712684.36145  22644602.2504                   22644603.4534
   3914448.67046   3057863.79343  24609202.7734                   24609206.5044
  -6431463.52047  -4973099.99744  23500977.5704                   23500979.7194
  13808695.81646  10764337.78643  24869191.5634                   24869193.9574
   1698506.79248   1354765.55146  20581425.9534                   20581426.3444
   9999523.22148   7800859.97345  21996613.6334                   21996613.7814
  -6719404.57647  -5149697.60644  23407329.8914                   23407332.3714
  10973688.47146   8567523.58943  24356669.7194                   24356671.2584
   7875720.54246   6174830.27344  22351292.2584                   22351294.4224
  -3534966.35747  -2691988.10146  21047744.9384                   21047743.9344
 11  8 23 16 49  0.0000000  0 11G07G08G10G28G16G13G23G11G06G03G19
  -8827029.667 8  -6866189.226 7  21057920.773
 -11297758.02847  -8768983.23845  22630853.0164                   22630855.4454
   3967420.62046   3099140.59443  24619282.7894                   24619286.0864
  -6485340.94847  -5015082.34244  23490724.6884                   23490726.4804
  13894336.81846  10831070.95542  24885489.0234                   24885491.2114
   1756408.86348   1399884.01646  20592444.1094                   20592445.0124
  10098280.97848   7877813.98645  22015406.4924                   22015406.4614
  -6797602.32947  -5210630.81543  23392448.6024                   23392451.9774
  11070694.99446   8643113.00043  24375128.6804                   24375131.6644
   7965795.91546   6245018.81344  22368433.0784                   22368435.1684
  -3507173.95648  -2670331.69246  21053033.6954                   21053032.5234
 11  8 23 16 49 30.0000000  0 10G07G08G10G28G13G23G11G06G03G19
  -8872948.220 8  -6901969.895 7  21049182.406
 -11370010.98247  -8825284.19344  22617104.0394                   22617105.5634
   4020596.05546   3140575.96042  24629402.1884                   24629405.5474
  -6539012.29747  -5056904.15644  23480512.5474                   23480513.4654
   1814838.89448   1445413.87646  20603563.5704                   20603563.3054
  10197341.34847   7955003.80345  22034256.7424                   22034256.6564
  -6875700.22746  -5271486.26243  23377587.6484                   23377589.8444
  11167895.68946   8718853.76443  24393625.1804                   24393628.3364
   8056218.92847   6315478.27744  22385639.6954                   22385642.1134
  -3478784.42048  -2648209.97546  21058436.0004                   21058434.9224
 11  8 23 16 50  0.0000000  0 10G07G08G10G28G13G23G11G06G03G19
  -8918697.286 8  -6937618.508 7  21040476.383
 -11442263.41147  -8881584.74944  22603355.0164                   22603356.5044
   4073974.53146   3182169.49943  24639559.4144                   24639563.8164
  -6592476.23847  -5098564.32944  23470337.5474                   23470339.2344
   1873796.69848   1491354.99746  20614782.3134                   20614782.7384
  10296702.62847   8032428.10245  22053165.1094                   22053164.7974
  -6953693.33047  -5332259.99043  23362746.4774                   23362748.6134
  11265290.20346   8794745.53043  24412159.2664                   24412161.4734
   8146988.75147   6386207.98444  22402912.9774                   22402914.7304
  -3449796.92248  -2625622.32446  21063952.0554                   21063950.9414
 11  8 23 16 50 30.0000000  0 10G07G08G10G28G13G23G11G06G03G19
  -8964274.449 8  -6973133.162 7  21031803.430
 -11514513.50547  -8937883.50144  22589605.9304                   22589607.7424
   4127553.92246   3223919.61043  24649755.1254                   24649758.8364
  -6645731.98747  -5140062.27344  23460203.2814                   23460205.3594
   1933281.66048   1537706.87046  20626102.2344                   20626102.9144
  10396363.11647   8110085.51545  22072130.0234                   22072129.6294
  -7031577.70947  -5392949.03043  23347924.8134                   23347926.9494
  11362876.61046   8870786.85043  24430728.4384                   24430732.4774
   8238103.20147   6457206.21344  22420251.8284                   22420253.6564
  -3420211.73848  -2602568.93746  21069581.9844                   21069581.0784
 11  8 23 16 51  0.0000000  0 10G07G08G10G28G13G23G11G06G03G19
  -9009680.193 8  -7008514.247 7  21023163.109
 -11586761.94647  -8994180.96844  22575857.8284                   22575859.0044
   4181329.94546   3265822.88243  24659988.1414                   24659992.3984
  -6698782.07447  -5181399.93344  23450108.3284                   23450109.1954
   1993289.90948   1584466.51546  20637521.4454                   20637521.5394
  10496318.30348   8187972.60145  22091150.6484                   22091150.4184
  -7109352.23947  -5453552.47943  23333124.8674                   23333126.7814
  11460650.60346   8946974.32642  24449334.9924                   24449338.6644
   8329557.55247   6528469.31244  22437654.5314                   22437657.3484
  -3390031.91248  -2579052.19546  21075324.8754                   21075323.8714
 11  8 23 16 51 30.0000000  0 10G07G08G10G28G13G23G11G06G03G19
  -9054910.498 8  -7043758.624 7  21014556.023
 -11659005.05747  -9050474.27244  22562110.2274                   22562112.4184
   4235301.61546   3307878.77542  24670258.4144                   24670262.9734
  -6751624.55947  -5222575.85944  23440053.1564                   23440053.7774
   2053821.98348   1631634.32946  20649040.2274                   20649040.9844
  10596567.89747   8266089.07545  22110227.8914                   22110227.1024
  -7187011.53546  -5514066.10643  23318347.1644                   23318349.4614
  11558612.05746   9023307.81642  24467976.3364                   24467979.9104
   8421351.80547   6599997.21144  22455122.3444                   22455124.9804
  -3359256.38448  -2555071.26346  21081181.6334                   21081180.4534
 11  8 23 16 52  0.0000000  0 10G07G08G10G28G13G23G11G06G03G19
  -9099965.129 8  -7078866.122 7  21005982.531
 -11731243.49047  -9106763.95645  22548364.4064                   22548365.4264
   4289465.05946   3350083.97543  24680565.4534                   24680570.1564
  -6804261.53847  -5263591.62844  23430036.5314                   23430037.4344
   2114874.21448   1679207.46446  20660657.8204                   20660658.5594
  10697107.37547   8344431.43445  22129359.5554                   22129360.1994
  -7264554.27046  -5574488.93243  23303590.6174                   23303593.2154
  11656756.75546   9099784.23442  24486652.7504                   24486656.1484
   8513480.71346   6671785.93044  22472654.4224                   22472656.4304
  -3327887.84848  -2530628.23646  21087150.8914                   21087149.2384
 11  8 23 16 52 30.0000000  0 10G07G08G10G28G13G23G11G06G03G19
  -9144842.561 8  -7113835.531 7  20997442.570
 -11803475.93647  -9163048.93945  22534617.7584                   22534619.0864
   4343817.36046   3392436.33343  24690908.9534                   24690912.7544
  -6856693.30247  -5304447.50544  23420058.6954                   23420059.7544
   2176445.26648   1727184.87346  20672374.7424                   20672375.0234
  10797934.13048   8422997.64845  22148546.0944                   22148546.2814
  -7341977.59047  -5634818.68543  23288857.1024                   23288860.1994
  11755082.56146   9176401.64543  24505362.7034                   24505366.8554
   8605941.94947   6743833.59844  22490249.5004                   22490251.0704
  -3295927.53348  -2505724.09446  21093232.7894                   21093231.2974
 11  8 23 16 53  0.0000000  0 10G07G08G10G28G13G23G11G06G03G19
  -9189540.483 8  -7148665.071 7  20988937.031
 -11875700.95447  -9219328.13545  22520873.7814                   22520875.1254
   4398355.76846   3434933.71543  24701287.2424                   24701291.6884
  -6908919.99247  -5345143.57643  23410119.9924                   23410121.0904
   2238533.51148   1775565.29046  20684190.0004                   20684190.0634
  10899045.62248   8501785.71945  22167787.5234                   22167787.1454
  -7419277.65647  -5695052.40543  23274147.0784                   23274150.2704
  11853586.98046   9253158.24543  24524107.5554                   24524111.2424
   8698732.94247   6816138.23644  22507906.4694                   22507908.7734
  -3263376.37048  -2480359.54546  21099426.8054                   21099425.7424
 11  8 23 16 53 30.0000000  0 10G07G08G10G28G13G23G11G06G03G19
  -9234056.403 8  -7183352.795 7  20980465.492
 -11947916.64547  -9275600.05044  22507131.9304                   22507133.0704
   4453078.47346   3477574.70943  24711700.2274                   24711705.0394
  -6960941.23047  -5385679.53544  23400220.7664                   23400222.2854
   2301137.98748   1824347.97246  20696102.8364                   20696103.2734
  11000439.79547   8580794.07045  22187082.2894                   22187082.3164
  -7496450.69047  -5755187.15344  23259462.3594                   23259464.7734
  11952268.63946   9330052.97243  24542887.0164                   24542889.9024
   8791851.64547   6888698.19244  22525627.2734                   22525628.7464
  -3230234.79048  -2454534.92946  21105733.2664                   21105731.8874
 11  8 23 16 54  0.0000000  0 10G07G08G10G28G13G23G11G06G03G19
  -9278390.405 8  -7217898.761 7  20972029.352
 -12020123.39647  -9331865.00945  22493391.2734                   22493392.0634
   4507981.17946   3520355.98943  24722148.5634                   24722152.5354
  -7012759.11147  -5426057.05344  23390360.0234                   23390361.4454
   2364254.94948   1873529.98446  20708113.7894                   20708114.1134
  11102112.09947   8660019.14045  22206429.6564                   22206429.8014
  -7573495.45047  -5815221.93844  23244801.3204                   23244804.2234
  12051123.02246   9407082.24843  24561698.5084                   24561701.9614
   8885293.54347   6961510.02544  22543408.1094                   22543410.1484
  -3196505.94948  -2428252.70746  21112151.7344                   21112150.6254
 11  8 23 16 54 30.0000000  0 10G07G08G10G28G13G23G11G06G03G19
  -9322540.445 8  -7252301.373 7  20963627.836
 -12092319.08447  -9388121.37444  22479653.5084                   22479653.7274
   4563061.55946   3563275.71043  24732629.3054                   24732634.6804
  -7064373.70947  -5466276.19244  23380538.3674                   23380539.2424
   2427882.83048   1923110.11546  20720221.5234                   20720222.0864
  11204060.28147   8739459.19245  22225829.8594                   22225830.0594
  -7650408.36347  -5875153.99243  23230164.5084                   23230167.6454
  12150148.37146   9484244.77043  24580542.2344                   24580545.4144
   8979056.07847   7034571.70244  22561250.6414                   22561253.0784
  -3162190.71448  -2401513.55546  21118681.4224                   21118680.4184
 11  8 23 16 55  0.0000000  0 10G07G08G10G28G13G23G11G06G03G19
  -9366503.834 8  -7286558.544 7  20955261.852
 -12164502.03347  -9444367.80144  22465917.2114                   22465918.8984
   4618317.69146   3606332.34043  24743144.8364                   24743149.5634
  -7115784.59747  -5506336.60544  23370754.7664                   23370755.7544
   2492020.61448   1973087.58246  20732426.7114                   20732427.2624
  11306282.53047   8819112.78545  22245282.1094                   22245282.7344
  -7727185.44046  -5934980.20044  23215554.2194                   23215557.7624
  12249343.08246   9561539.28843  24599418.5004                   24599421.5084
   9073137.32047   7107881.70644  22579153.8444                   22579156.2704
  -3127289.73948  -2374317.98546  21125323.0944                   21125321.7814
 11  8 23 16 55 30.0000000  0 10G07G08G10G28G13G23G11G06G03G19
  -9410279.568 8  -7320669.481 7  20946931.531
 -12236671.62047  -9500603.82144  22452184.0164                   22452184.9924
   4673746.13146   3649523.30643  24753691.6804                   24753697.2854
  -7166992.74947  -5546238.98244  23361010.2734                   23361012.2344
   2556665.69548   2023460.32346  20744728.4694                   20744728.9024
  11408774.95447   8898976.91845  22264785.7114                   22264786.0044
  -7803824.84647  -5994699.15944  23200969.8754                   23200972.7304
  12348703.84447   9638963.17544  24618326.5314                   24618329.4654
   9167533.38647   7181437.04644  22597116.4924                   22597119.5514
  -3091804.74048  -2346667.34246  21132075.7974                   21132074.2894
 11  8 23 16 56  0.0000000  0 10G07G08G10G28G13G23G11G06G03G19
  -9453866.485 8  -7354633.313 7  20938637.281
 -12308827.04147  -9556828.79145  22438452.9064                   22438454.6294
   4729343.38146   3692845.74543  24764272.4694                   24764277.0594
  -7217999.54147  -5585984.50444  23351304.1174                   23351305.3054
   2621815.47448   2074226.35346  20757125.7664                   20757126.1994
  11511534.43647   8979049.13845  22284340.1564                   22284341.0664
  -7880323.45447  -6054308.37744  23186412.8594                   23186415.9344
  12448227.60946   9716514.07743  24637265.8054                   24637269.1684
   9262240.92847   7255235.07944  22615139.1414                   22615141.2504
  -3055737.79548  -2318563.24746  21138938.8984                   21138937.6134
 11  8 23 16 56 30.0000000  0 10G07G08G10G28G13G23G11G06G03G19
  -9497262.554 8  -7388448.419 7  20930378.563
 -12380966.66547  -9613041.42945  22424725.0164                   22424726.8324
   4785107.40146   3736298.18843  24774884.1024                   24774888.8754
  -7268804.86246  -5625573.00244  23341635.2734                   23341637.2544
   2687468.32448   2125384.37446  20769619.2274                   20769619.7424
  11614558.38747   9059327.43245  22303945.5164                   22303945.7304
  -7956678.06646  -6113805.40644  23171883.1724                   23171886.0274
  12547912.34146   9794190.42843  24656234.9064                   24656237.7894
   9357257.83446   7329274.16944  22633220.2034                   22633222.7074
  -3019090.08447  -2290006.59646  21145912.8754                   21145911.5234
 11  8 23 16 57  0.0000000  0 10G07G08G10G28G13G23G11G06G03G19
  -9540465.327 8  -7422112.916 7  20922157.953
 -12453088.56447  -9669240.27145  22411000.8134                   22411002.2974
   4841035.51846   3779878.40543  24785527.4774                   24785531.5744
  -7319408.66647  -5665004.50344  23332006.0394                   23332007.6604
   2753623.01148   2176933.44346  20782208.5004                   20782208.5354
  11717844.71447   9139810.17845  22323600.2034                   22323600.1994
  -8032884.78247  -6173187.20744  23157381.5004                   23157384.5044
  12647756.20846   9871990.77143  24675234.3674                   24675237.4614
   9452581.85347   7403552.55844  22651359.4774                   22651361.9304
  -2981862.43947  -2260998.04746  21152996.7504                   21152995.5204
 11  8 23 16 57 30.0000000  0 10G07G08G10G28G13G23G11G06G03G19
  -9583474.417 8  -7455626.480 7  20913973.961
 -12525192.61247  -9725425.20145  22397279.7974                   22397281.0234
   4897123.66646   3823583.40643  24796199.8444                   24796204.6524
  -7369812.53446  -5704280.18244  23322414.9454                   23322416.5084
   2820275.91448   2228870.73646  20794891.7664                   20794892.6884
  11821389.05247   9220493.97444  22343303.8984                   22343304.5664
  -8108942.17547  -6232452.62644  23142908.2504                   23142910.5594
  12747755.47946   9949912.21943  24694264.1724                   24694266.8484
   9548208.64946   7478066.89544  22669556.8204                   22669559.6804
  -2944057.66948  -2231539.80046  21160191.0084                   21160190.1454
 11  8 23 16 58  0.0000000  0 10G07G08G10G28G13G23G11G06G03G19
  -9626286.731 8  -7488986.718 7  20905826.648
 -12597276.63347  -9781594.57844  22383563.0314                   22383562.6604
   4953370.41546   3867411.89343  24806904.2664                   24806907.7584
  -7420015.91547  -5743399.64643  23312861.0234                   23312861.7154
   2887426.48348   2281195.80846  20807670.3444                   20807670.9654
  11925189.93247   9301377.67045  22363057.0864                   22363057.4264
  -8184845.83647  -6291598.28844  23128464.3594                   23128467.0474
  12847908.77346  10027953.64643  24713322.2584                   24713325.6564
   9644136.57346   7552815.87544  22687811.8674                   22687813.9534
  -2905676.06248  -2201632.06946  21167494.8524                   21167493.4024
 11  8 23 16 58 30.0000000  0 10G07G08G10G28G13G23G11G06G03G19
  -9668900.744 8  -7522192.423 7  20897717.414
 -12669339.21447  -9837747.19844  22369848.9844                   22369850.5664
   5009772.87846   3911361.84343  24817636.4534                   24817640.7034
  -7470019.48646  -5782363.41344  23303346.3834                   23303347.4454
   2955072.32548   2333906.81346  20820542.9534                   20820543.1764
  12029244.58247   9382459.09744  22382857.8984                   22382858.6484
  -8260592.76547  -6350621.81144  23114050.1564                   23114052.3984
  12948213.83046  10106113.32843  24732409.5164                   24732412.7034
   9740362.64147   7627797.14944  22706122.6024                   22706124.5204
  -2866719.06548  -2171275.98146  21174908.0864                   21174906.7934
 11  8 23 16 59  0.0000000  0 10G07G08G10G28G13G23G11G06G03G19
  -9711316.183 8  -7555243.410 7  20889646.570
 -12741380.91347  -9893883.55844  22356139.8984                   22356141.4494
   5066326.88246   3955429.82743  24828398.5314                   24828402.5084
  -7519825.32246  -5821173.11644  23293867.8834                   23293869.1374
   3023209.68248   2387000.82046  20833509.3284                   20833509.2774
  12133548.48747   9463734.77444  22402706.3054                   22402705.9614
  -8336181.61147  -6409522.15944  23099666.2114                   23099667.5434
  13048666.49145  10184388.03442  24751525.7584                   24751528.1764
   9836882.46947   7703007.35744  22724489.8524                   22724492.9694
  -2827189.86048  -2140474.02446  21182430.2584                   21182429.2274
 11  8 23 16 59 30.0000000  0 10G07G08G10G28G13G23G11G06G03G19
  -9753528.313 8  -7588135.980 7  20881613.344
 -12813396.86747  -9949999.86845  22342436.6724                   22342437.1454
   5123032.51946   3999615.94242  24839189.0944                   24839192.8794
  -7569430.85947  -5859826.73444  23284428.4694                   23284429.4574
   3091839.69748   2440478.71046  20846569.0314                   20846569.1954
  12238101.64247   9545204.64444  22422602.6024                   22422602.7424
  -8411606.11447  -6468294.41644  23085312.8204                   23085315.6684
  13149267.35246  10262778.21142  24770668.4304                   24770672.9414
   9933695.87746   7778446.34544  22742912.7584                   22742915.4694
  -2787087.07348  -2109225.11646  21190061.7114                   21190060.5124
 11  8 23 17  0  0.0000000  0 10G07G08G10G28G13G23G11G06G03G19
  -9795538.403 8  -7620871.110 7  20873618.992
 -12885388.99847 -10006097.61445  22328736.8594                   22328737.8014
   5179883.72446   4043915.50143  24850007.6954                   24850011.3794
  -7618839.63447  -5898327.02444  23275025.9454                   23275027.7304
   3160957.18148   2494336.44346  20859721.4384                   20859721.7894
  12342898.18847   9626864.18144  22442544.6484                   22442544.2464
  -8486866.17847  -6526938.56544  23070991.6024                   23070993.9774
  13250010.71146  10341279.48342  24789840.2424                   24789843.7544
  10030797.38547   7854109.78344  22761391.1564                   22761393.3444
  -2746415.29448  -2077532.84046  21197801.1724                   21197799.7544
 11  8 23 17  0 30.0000000  0 10G07G08G10G28G13G23G11G06G03G19
  -9837343.532 8  -7653446.523 7  20865663.828
 -12957354.77747 -10062174.80945  22315042.2504                   22315044.0634
   5236878.96346   4088327.31142  24860852.9774                   24860857.5474
  -7668051.15547  -5936673.62344  23265660.8134                   23265662.8444
   3230560.99648   2548573.14446  20872966.6564                   20872967.1134
  12447936.26647   9708711.93645  22462533.0554                   22462532.8284
  -8561957.62246  -6585451.33544  23056701.8594                   23056703.8484
  13350895.49546  10419890.87642  24809037.6254                   24809041.4144
  10128184.90946   7929996.14544  22779922.6254                   22779925.3284
  -2705174.99447  -2045397.55846  21205649.1414                   21205647.8164
 11  8 23 17  1  0.0000000  0 10G07G08G10G28G13G23G11G06G03G19
  -9878941.953 8  -7685860.879 7  20857747.813
 -13029293.17747 -10118230.68145  22301352.8524                   22301354.0824
   5294015.41446   4132849.10743  24871726.1334                   24871730.7584
  -7717065.96547  -5974866.92444  23256333.9694                   23256335.6764
   3300648.62748   2603186.84446  20886304.0314                   20886304.9774
  12553213.19947   9790745.79744  22482566.4304                   22482567.1764
  -8636877.71346  -6643830.55543  23042445.6414                   23042447.2934
  13451919.22346  10498610.60942  24828261.8204                   24828265.6644
  10225855.56847   8006103.05244  22798508.8834                   22798512.0594
  -2663367.99847  -2012820.68946  21213604.5704                   21213603.3404
 11  8 23 17  1 30.0000000  0 10G07G08G10G28G13G23G11G06G03G19
  -9920332.413 8  -7718113.173 7  20849871.320
 -13101202.85247 -10174264.14745  22287668.6644                   22287669.9454
   5351289.97946   4177478.61042  24882626.1094                   24882629.6764
  -7765885.06447  -6012907.72844  23247044.4774                   23247045.8484
   3371217.91548   2658175.86146  20899732.6174                   20899733.4694
  12658725.82247   9872963.30744  22502644.9614                   22502645.2624
  -8711623.71247  -6702074.13044  23028221.9384                   23028223.2624
  13553079.12646  10577436.48242  24847511.8674                   24847515.0554
  10323806.40946   8082428.32944  22817148.6954                   22817151.2734
  -2620996.19847  -1979803.71246  21221667.6954                   21221666.6484
 11  8 23 17  2  0.0000000  0 10G07G08G10G28G13G23G11G06G03G19
  -9961511.682 8  -7750200.907 7  20842035.172
 -13173081.16047 -10230273.20545  22273990.8284                   22273991.4654
   5408701.01446   4222214.36842  24893550.6414                   24893554.6884
  -7814507.63247  -6050795.41844  23237792.1484                   23237793.1684
   3442268.00648   2713539.52146  20913253.0864                   20913254.0944
  12764472.44947   9955363.15444  22522767.5394                   22522768.6134
  -8786191.08046  -6760178.50144  23014031.5474                   23014034.0474
  13654374.02146  10656367.48942  24866787.8674                   24866791.8054
  10422035.68146   8158970.55844  22835841.1024                   22835843.7274
  -2578059.89747  -1946346.86546  21229838.7194                   21229837.2544
 11  8 23 17  2 30.0000000  0  9G07G08G10G28G13G23G11G03G19
 -10002477.694 8  -7782122.466 7  20834239.805
 -13244926.06747 -10286256.22845  22260318.8914                   22260320.2704
   5466246.21146   4267054.70342  24904500.8674                   24904506.0984
  -7862933.85147  -6088530.07644  23228576.0004                   23228577.6094
   3513797.16748   2769276.47446  20926865.1644                   20926865.6484
  12870450.39147  10037943.25444  22542934.7974                   22542935.9104
  -8860575.88046  -6818140.62344  22999877.3594                   22999879.0744
  10520540.84247   8235727.77143  22854585.8054                   22854588.4654
  -2534560.57047  -1912451.29946  21238116.1724                   21238114.6994
 11  8 23 17  3  0.0000000  0  9G07G08G10G28G13G23G11G03G19
 -10043232.110 8  -7813879.142 7  20826484.492
 -13316739.94147 -10342215.09345  22246653.6804                   22246654.2034
   5523919.02946   4311994.48642  24915475.5864                   24915480.8874
  -7911167.85347  -6126114.96944  23219397.4064                   23219399.1294
   3585798.99148   2825381.73946  20940566.3204                   20940566.9614
  12976653.31647  10120698.64144  22563144.6564                   22563145.7344
  -8934779.04847  -6875961.23144  22985756.6644                   22985758.4734
  10619315.28847   8312694.82144  22873381.9844                   22873384.2074
  -2490503.92647  -1878121.45346  21246499.7274                   21246498.4844
 11  8 23 17  3 30.0000000  0  8G07G08G28G13G23G11G03G19
 -10083769.524 8  -7845466.725 7  20818770.492
 -13388517.87447 -10398145.94245  22232994.4774                   22232996.0664
  -7959206.69447  -6163547.79444  23210256.2114                   23210257.9774
   3658275.30748   2881856.74646  20954358.0394                   20954358.7894
  13083082.29047  10203630.18744  22583397.7034                   22583398.6094
  -9008794.00146  -6933635.13144  22971672.4064                   22971674.1174
  10718360.29247   8389872.68044  22892230.1414                   22892232.4224
  -2445887.43847  -1843355.36946  21254989.7274                   21254988.9414
 11  8 23 17  4  0.0000000  0  8G07G08G28G13G23G11G03G19
 -10124091.401 8  -7876886.370 7  20811097.672
 -13460261.51647 -10454050.05445  22219341.1884                   22219343.8164
  -8007053.70247  -6200831.12744  23201151.2814                   23201153.6174
   3731220.56948   2938697.17046  20968239.0394                   20968240.1254
  13189730.67847  10286732.69945  22603692.0784                   22603693.0394
  -9082620.98046  -6991162.63444  22957622.5394                   22957624.6954
  10817669.42047   8467256.36843  22911128.2734                   22911129.6804
  -2400716.28547  -1808157.08146  21263585.7424                   21263584.6374
 11  8 23 17  4 30.0000000  0  8G07G08G28G13G23G11G03G19
 -10164193.887 8  -7908135.044 7  20803466.500
 -13531967.53147 -10509924.79945  22205696.0394                   22205698.6844
  -8054708.08347  -6237964.38944  23192083.0394                   23192084.6764
   3804634.27848   2995902.61446  20982209.1414                   20982210.5084
  13296597.87247  10370005.70144  22624028.6884                   22624029.3524
  -9156254.55047  -7048539.36344  22943611.1484                   22943612.8594
  10917241.74447   8544845.14144  22930075.8594                   22930078.4574
  -2354990.50447  -1772526.62246  21272286.8834                   21272285.7114
 11  8 23 17  5  0.0000000  0  8G07G08G28G13G23G11G03G19
 -10204075.307 8  -7939211.476 7  20795877.195
 -13603634.06747 -10565768.83245  22192059.2584                   22192060.8444
  -8102170.35847  -6274947.94144  23183051.1804                   23183052.2544
   3878514.48848   3053471.55446  20996268.5864                   20996269.1564
  13403680.66847  10453446.72044  22644405.5314                   22644406.3874
  -9229691.93647  -7105763.23444  22929636.1804                   22929638.2344
  11017074.53747   8622636.84543  22949074.3054                   22949075.5084
  -2308711.61647  -1736465.16346  21281093.6094                   21281092.1334
 11  8 23 17  5 30.0000000  0  8G07G08G28G13G23G11G03G19
 -10243734.588 8  -7970114.802 7  20788330.117
 -13675260.63747 -10621581.74245  22178428.8204                   22178429.9924
  -8149441.97747  -6311782.94644  23174055.9454                   23174057.3914
   3952857.81148   3111401.36246  21010415.8594                   21010416.2234
  13510975.84947  10537053.22044  22664823.4384                   22664823.9804
  -9302930.46047  -7162832.18044  22915699.3594                   22915701.2384
  11117164.10346   8700628.67543  22968119.3594                   22968122.0004
  -2261882.47547  -1699974.93346  21290004.8204                   21290003.4694
 11  8 23 17  6  0.0000000  0  8G07G08G28G13G23G11G03G19
 -10283170.483 8  -8000844.081 7  20780826.023
 -13746846.41447 -10677362.86345  22164807.5164                   22164807.3524
  -8196523.64947  -6348469.93244  23165096.8444                   23165098.0044
   4027661.25947   3169689.72145  21024650.3204                   21024651.1484
  13618479.91747  10620822.49644  22685281.0084                   22685281.5594
  -9375967.93047  -7219744.41144  22901800.8054                   22901802.6684
  11217507.24846   8778818.01543  22987214.4924                   22987217.0554
  -2214505.31947  -1663057.69546  21299020.2034                   21299019.5634
 11  8 23 17  6 30.0000000  0  8G07G08G28G13G23G11G03G19
 -10322379.942 8  -8031396.899 7  20773364.742
 -13818388.74147 -10733110.12945  22151192.5004                   22151193.5124
  -8243415.29747  -6385008.84444  23156173.1644                   23156174.7734
   4102923.72848   3228335.75345  21038971.9844                   21038972.5124
  13726190.72047  10704752.85544  22705777.3524                   22705778.4184
  -9448800.18647  -7276496.75244  22887941.2664                   22887943.8524
  11318101.69846   8857203.23143  23006357.1564                   23006358.7624
  -2166581.09247  -1625714.16446  21308140.2114                   21308139.3094
 11  8 23 17  7  0.0000000  0  8G07G08G28G13G23G11G03G19
 -10361359.222 8  -8061770.355 7  20765947.063
 -13889884.45247 -10788821.03745  22137586.5944                   22137588.3554
  -8290115.37847  -6421398.50944  23147286.2894                   23147287.8874
   4178644.87647   3287339.21646  21053381.4064                   21053382.3164
  13834107.37447  10788843.61044  22726313.8444                   22726314.2114
  -9521422.23047  -7333085.28744  22874121.3754                   22874123.4774
  11418946.94046   8935783.89543  23025547.0314                   23025549.2734
  -2118109.47347  -1587944.09246  21317364.0084                   21317362.9804
 11  8 23 17  7 30.0000000  0  9G07G08G24G28G13G23G11G03G19
 -10400115.915 8  -8091970.363 7  20758571.570
 -13961341.05847 -10844501.45845  22123988.8594                   22123990.8554
    590843.09155    503013.76252  24357478.7894                   24357486.9224
  -8336633.82047  -6457646.60444  23138434.4844                   23138435.8874
   4254813.09548   3346691.02846  21067875.9454                   21067876.4064
  13942218.04647  10873085.58644  22746886.5164                   22746886.9654
  -9593839.92547  -7389514.61344  22860341.1484                   22860343.2274
  11520030.92046   9014550.52943  23044783.4144                   23044785.0204
  -2069101.78447  -1549756.31346  21326690.0314                   21326688.2034
 11  8 23 17  8  0.0000000  0  9G07G08G24G28G13G23G11G03G19
 -10438635.686 8  -8121985.771 7  20751241.766
 -14032744.71747 -10900140.63645  22110401.6644                   22110403.2814
    516716.10446    445252.70143  24343373.3524                   24343381.0354
  -8382959.12247  -6493744.24244  23129619.1724                   23129620.4494
   4331438.04448   3406398.73446  21082456.9064                   21082457.8674
  14050532.03747  10957485.94844  22767497.7424                   22767499.0084
  -9666038.38047  -7445773.08344  22846601.8594                   22846604.0354
  11621362.73447   9093510.32843  23064066.4224                   23064067.0474
  -2019547.86147  -1511142.89346  21336119.8914                   21336118.7344
 11  8 23 17  8 30.0000000  0  9G07G08G24G28G13G23G11G03G19
 -10476921.996 8  -8151819.267 7  20743956.156
 -14104099.24847 -10955741.55445  22096823.8134                   22096824.6054
    442535.06246    387449.47143  24329256.4144                   24329264.7664
  -8429097.14047  -6529695.90044  23120838.8524                   23120840.3984
   4408512.19648   3466456.46245  21097124.0314                   21097124.1564
  14159040.98747  11042038.23144  22788146.5234                   22788147.3524
  -9738019.34147  -7501862.08044  22832904.0004                   22832906.5744
  11722934.36346   9172657.02543  23083394.6024                   23083395.4734
  -1969454.77847  -1472109.33646  21345652.2504                   21345650.5514
 11  8 23 17  9  0.0000000  0  9G07G08G24G28G13G23G11G03G19
 -10514972.670 8  -8181469.131 7  20736715.195
 -14175402.29947 -11011302.37245  22083254.8834                   22083256.0314
    368303.46046    329606.83643  24315129.5634                   24315138.6684
  -8475047.82047  -6565501.61244  23112095.3984                   23112096.3094
   4486033.58748   3526862.69846  21111875.7894                   21111876.7194
  14267742.36047  11126740.46544  22808832.4534                   22808833.1954
  -9809779.42747  -7557778.97144  22819249.1174                   22819250.9534
  11824743.82347   9251989.02443  23102767.8914                   23102769.2504
  -1918823.86447  -1432656.69846  21355287.0394                   21355285.6054
 11  8 23 17  9 30.0000000  0  9G07G08G24G28G13G23G11G03G19
 -10552787.173 8  -8210934.979 7  20729519.633
 -14246653.80747 -11066823.01745  22069695.9924                   22069697.3014
    294022.96746    271726.13043  24300995.9224                   24301003.6914
  -8520813.02547  -6601162.79444  23103385.6024                   23103387.1884
   4563998.49948   3587614.53145  21126711.8204                   21126713.1374
  14376632.59247  11211589.84444  22829553.2734                   22829554.2584
  -9881316.71647  -7613522.23744  22805635.9454                   22805637.8054
  11926786.74747   9331502.92743  23122187.1414                   23122188.0164
  -1867658.38447  -1392787.51146  21365023.0784                   21365022.1684
 11  8 23 17 10  0.0000000  0  9G07G08G24G28G13G23G11G03G19
 -10590362.493 8  -8240214.448 7  20722369.453
 -14317851.29047 -11122301.54245  22056147.8674                   22056149.0904
    219696.87446    213809.89043  24286851.4844                   24286859.1414
  -8566392.85347  -6636679.51144  23094712.2894                   23094713.9144
   4642405.20448   3648710.61346  21141632.7274                   21141633.2544
  14485709.27547  11296584.49144  22850310.0084                   22850311.2344
  -9952627.39447  -7669088.92944  22792065.7894                   22792067.8594
  12029061.52047   9411197.50643  23141649.1174                   23141650.3714
  -1815959.65547  -1352502.78946  21374861.1644                   21374860.1884
 11  8 23 17 10 30.0000000  0  9G07G08G24G28G13G23G11G03G19
 -10627696.536 8  -8269305.913 7  20715264.664
 -14388992.87747 -11177736.51145  22042610.1724                   22042611.6764
    145328.66546    155860.84943  24272699.7734                   24272706.9844
  -8611787.46447  -6672051.89244  23086074.0394                   23086075.1724
   4721251.80048   3710149.46146  21156636.4454                   21156637.7814
  14594969.72647  11381722.35944  22871101.0394                   22871103.0204
 -10023707.95847  -7724476.34644  22778540.0394                   22778541.5314
  12131565.03947   9491070.26144  23161155.1334                   23161156.9344
  -1763729.37748  -1311803.89546  21384800.3364                   21384799.2114
 11  8 23 17 11  0.0000000  0  9G07G08G24G28G13G23G11G03G19
 -10664788.780 8  -8298208.960 7  20708207.063
 -14460078.22947 -11233127.66645  22029083.3204                   22029084.1644
     70919.66046     97879.99643  24258539.9694                   24258547.7424
  -8656998.95247  -6707281.59544  23077470.7814                   23077471.7154
   4800534.38748   3771928.05546  21171723.2814                   21171724.5824
  14704409.74047  11467000.14544  22891927.2504                   22891928.6524
 -10094556.49847  -7779682.93244  22765056.7664                   22765058.8134
  12234293.55646   9571118.43044  23180703.1484                   23180705.2664
  -1710970.84847  -1270693.37746  21394839.9774                   21394838.8244
 11  8 23 17 11 30.0000000  0  9G07G08G24G28G13G23G11G03G19
 -10701635.706 8  -8326920.847 7  20701194.570
 -14531103.49547 -11288472.01845  22015567.3594                   22015568.4224
     -3525.58446     39870.89143  24244373.6724                   24244380.2934
  -8702025.86247  -6742367.46944  23068902.3524                   23068903.3204
   4880252.32448   3834045.86646  21186893.4614                   21186894.7704
  14814028.23147  11552416.98644  22912787.2894                   22912788.7114
 -10165168.48547  -7834705.21544  22751620.6884                   22751622.0234
  12337245.89546   9651340.91043  23200294.3834                   23200296.8794
  -1657684.20847  -1229171.33046  21404980.1254                   21404978.6884
 11  8 23 17 12  0.0000000  0  9G07G08G24G28G13G23G11G03G19
 -10738237.186 8  -8355441.479 7  20694229.461
 -14602069.63247 -11343770.29345  22002062.9844                   22002064.0084
    -78006.11746    -18165.69843  24230199.5474                   24230207.4344
  -8746871.01847  -6777311.72944  23060368.4224                   23060369.4414
   4960401.18347   3896499.45646  21202145.1254                   21202146.4844
  14923820.78247  11637969.46544  22933679.8204                   22933681.5904
 -10235542.85647  -7889542.31444  22738228.2734                   22738230.2624
  12440417.37946   9731734.20243  23219926.9224                   23219929.8524
  -1603873.56948  -1187240.97646  21415219.9384                   21415218.4924
 11  8 23 17 12 30.0000000  0  9G07G08G24G28G13G23G11G03G19
 -10774590.757 8  -8383768.948 7  20687311.500
 -14672973.91447 -11399020.36645  21988570.1724                   21988570.9844
   -152518.05647    -76226.76543  24216021.1254                   24216027.8284
  -8791534.37447  -6812114.32044  23051869.3914                   23051870.6954
   5040979.26547   3959287.52546  21217478.9064                   21217479.8164
  15033784.79147  11723655.55544  22954605.2734                   22954607.2344
 -10305675.41647  -7944191.03044  22724882.5634                   22724884.5474
  12543806.10146   9812296.69643  23239602.1334                   23239604.3794
  -1549540.33448  -1144903.41346  21425559.5554                   21425558.2734
 11  8 23 17 13  0.0000000  0  9G07G08G24G28G13G23G11G03G19
 -10810694.673 8  -8411901.874 7  20680441.172
 -14743814.82747 -11454221.07845  21975089.4064                   21975090.8404
   -227058.71946   -134310.28643  24201835.2894                   24201843.1414
  -8836016.56047  -6846775.73344  23043405.0474                   23043405.9654
   5121983.70048   4022407.80646  21232893.3674                   21232895.0004
  15143917.47547  11809473.06544  22975563.8754                   22975565.1134
 -10375563.33447  -7998649.07044  22711583.5084                   22711585.2274
  12647409.03046   9893026.20143  23259317.1884                   23259318.9384
  -1494686.67048  -1102160.32446  21435997.8444                   21435996.4884
 11  8 23 17 13 30.0000000  0  9G07G08G24G28G13G23G11G03G19
 -10846546.505 8  -8439838.374 7  20673618.984
 -14814590.20047 -11509370.69845  21961621.8134                   21961623.2424
   -301624.88946   -192413.62543  24187646.5864                   24187653.7034
  -8880318.21947  -6881296.47344  23034974.6724                   23034975.7854
   5203412.47847   4085858.73445  21248388.6414                   21248389.7304
  15254216.49847  11895420.21344  22996553.1174                   22996554.5314
 -10445203.29147  -8052913.93944  22698331.7274                   22698333.7464
  12751223.86546   9973920.76943  23279072.2114                   23279074.7384
  -1439313.82947  -1059012.66546  21446535.0004                   21446533.3284
 11  8 23 17 14  0.0000000  0  9G07G08G24G28G13G23G11G03G19
 -10882145.808 8  -8467578.090 7  20666844.797
 -14885300.30847 -11564469.45545  21948165.6174                   21948167.4774
   -376215.04446   -250535.64843  24173452.1254                   24173458.9774
  -8924441.08647  -6915677.91744  23026577.9224                   23026579.1884
   5285261.71147   4149637.30245  21263963.8444                   21263965.2734
  15364677.36647  11981493.45544  23017572.9844                   23017574.3524
 -10514593.32647  -8106984.02844  22685126.9534                   22685128.6844
  12855246.28347  10054977.15243  23298866.7114                   23298869.9414
  -1383425.93047  -1015463.67246  21457169.7894                   21457168.4064
 11  8 23 17 14 30.0000000  0  9G07G08G24G28G13G23G11G03G19
 -10917488.748 8  -8495118.041 7  20660119.234
 -14955941.09747 -11619514.19545  21934723.2974                   21934725.1684
   -450824.45646   -308672.67543  24159254.2344                   24159261.5824
  -8968383.63647  -6949918.80644  23018215.7424                   23018217.6844
   5367530.68647   4213742.93945  21279619.4144                   21279620.7854
  15475299.08747  12067692.01144  23038623.4694                   23038625.0234
 -10583728.68047  -8160855.67444  22671971.2894                   22671972.7504
  12959475.55747  10136194.65943  23318701.9144                   23318703.5394
  -1327022.85148   -971513.24446  21467903.3364                   21467901.7894
 11  8 23 17 15  0.0000000  0  9G07G08G24G28G13G23G11G03G19
 -10952574.271 8  -8522457.401 7  20653442.594
 -15026511.52747 -11674504.14445  21921294.5084                   21921295.3914
   -525450.99146   -366823.11742  24145052.8444                   24145060.5164
  -9012147.81147  -6984020.74544  23009887.9614                   23009889.1174
   5450216.06647   4278173.03545  21295354.1174                   21295355.3524
  15586077.65047  12154012.83644  23059704.3284                   23059705.7464
 -10652606.97747  -8214527.02844  22658862.9614                   22658864.8484
  13063907.72047  10217570.32843  23338574.0164                   23338576.2384
  -1270108.02847   -927164.03646  21478733.4304                   21478732.3754
 11  8 23 17 15 30.0000000  0  9G07G08G24G28G13G23G11G03G19
 -10987400.890 8  -8549595.029 7  20646815.219
 -15097010.65447 -11729438.51045  21907878.9924                   21907879.4064
   -600092.34146   -424985.00542  24130848.7114                   24130855.7424
  -9055734.80747  -7017984.60444  23001593.6644                   23001594.8444
   5533314.76647   4342925.21345  21311167.3054                   21311168.7384
  15697010.03347  12240453.50344  23080814.0394                   23080815.2974
 -10721225.69747  -8267996.09744  22645805.8524                   22645807.3914
  13168540.00847  10299101.93343  23358485.1884                   23358487.5594
  -1212683.70947   -882417.83546  21489661.1254                   21489660.1484
 11  8 23 17 16  0.0000000  0  9G07G08G24G28G13G23G11G03G19
 -11021967.024 8  -8576529.682 7  20640237.500
 -15167436.65447 -11784315.90745  21894477.0634                   21894478.1094
   -674745.60046   -483156.25043  24116642.3204                   24116650.2734
  -9099145.02747  -7051810.73144  22993333.0474                   22993334.3094
   5616824.02647   4407997.29645  21327058.8834                   21327059.6294
  15808093.23447  12327011.67944  23101951.9454                   23101953.8914
 -10789581.79547  -8321260.54044  22632797.7114                   22632799.6724
  13273369.08147  10380786.84843  23378433.7584                   23378436.2114
  -1154752.12047   -837276.37046  21500685.0164                   21500684.0904
 11  8 23 17 16 30.0000000  0  9G07G08G24G28G13G23G11G03G19
 -11056270.222 8  -8603259.450 7  20633710.195
 -15237787.33648 -11839134.60745  21881089.8284                   21881090.8054
   -749407.35646   -541334.08843  24102435.3914                   24102443.2894
  -9142379.13047  -7085499.60644  22985105.8364                   22985106.6644
   5700741.62147   4473387.56345  21343028.1024                   21343028.9614
  15919325.32047  12413685.85044  23123119.7584                   23123120.5274
 -10857671.60547  -8374317.47444  22619840.8984                   22619842.1334
  13378393.03047  10462623.65343  23398418.8204                   23398421.5664
  -1096315.29347   -791741.20946  21511805.6564                   21511804.4024
 11  8 23 17 17  0.0000000  0  9G07G08G24G28G13G23G11G03G19
 -11090308.752 7  -8629782.992 7  20627232.984
 -15308061.21047 -11893893.44845  21867717.0234                   21867718.1884
   -824074.74146   -599516.31643  24088225.8674                   24088234.3054
  -9185437.56147  -7119051.62344  22976911.9534                   22976913.2504
   5785064.91847   4539093.97045  21359074.0864                   21359075.1644
  16030702.65947  12500473.24144  23144314.0394                   23144315.0634
 -10925492.65047  -8427164.97644  22606934.4844                   22606936.9804
  13483609.17247  10544610.19543  23418441.1484                   23418443.2384
  -1037375.43947   -745814.07346  21523020.8054                   21523020.2814
 11  8 23 17 17 30.0000000  0  9G07G08G24G28G13G23G11G03G19
 -11124080.107 8  -8656098.340 7  20620806.156
 -15378256.06247 -11948590.71545  21854359.3134                   21854360.8594
   -898744.29746   -657700.24843  24074018.2664                   24074024.5864
  -9228320.95047  -7152467.23644  22968751.5784                   22968753.1294
   5869791.78448   4605114.83745  21375197.1174                   21375198.6334
  16142223.08147  12587372.07844  23165535.8364                   23165538.3984
 -10993041.17847  -8479800.12644  22594080.8364                   22594082.1374
  13589014.88046  10626744.44143  23438499.3444                   23438501.7114
   -977934.53247   -699496.50946  21534332.2274                   21534331.7234
 11  8 23 17 18  0.0000000  0  9G07G08G24G28G13G23G11G03G19
 -11157584.596 8  -8682205.737 7  20614430.438
 -15448372.27448 -12003226.71745  21841016.6804                   21841017.5314
   -973415.38246   -715885.38743  24059808.1564                   24059815.4734
  -9271031.89947  -7185748.47544  22960624.1724                   22960625.1214
   5954917.41048   4671446.41645  21391396.3134                   21391396.9454
  16253881.21447  12674378.25344  23186783.0864                   23186785.2704
 -11060316.04047  -8532222.00844  22581278.8054                   22581280.5434
  13694605.49946  10709022.77943  23458592.1174                   23458595.2274
   -917996.90047   -652791.89445  21545737.6564                   21545737.0554
 11  8 23 17 18 30.0000000  0  9G07G08G24G28G13G23G11G03G19
 -11190818.423 8  -8708102.231 7  20608106.352
 -15518405.90147 -12057798.38145  21827689.9224                   21827690.7424
  -1048083.06846   -774067.87443  24045599.1484                   24045606.1764
  -9313569.37947  -7218894.55544  22952528.8284                   22952530.3834
   6040440.86048   4738088.01045  21407670.6254                   21407671.8404
  16365676.31547  12761491.13844  23208058.0234                   23208059.8204
 -11127312.61747  -8584427.07844  22568530.0234                   22568531.5554
  13800380.34046  10791444.62543  23478719.9304                   23478723.5664
   -857562.51847   -605700.19646  21557238.5394                   21557237.0664
 11  8 23 17 19  0.0000000  0  9G07G08G24G28G13G23G11G03G19
 -11223779.980 8  -8733786.558 7  20601833.828
 -15588355.25547 -12112304.36345  21814378.7034                   21814379.7274
  -1122744.51746   -832245.49943  24031391.3984                   24031398.2114
  -9355934.09447  -7251906.00944  22944467.3204                   22944467.9574
   6126359.40448   4805037.46045  21424020.3284                   21424021.3834
  16477605.32047  12848708.34944  23229357.1954                   23229359.1844
 -11194027.89247  -8636412.93744  22555834.0704                   22555835.8594
  13906335.96046  10874007.33443  23498882.6484                   23498886.0944
   -796634.28748   -558223.68646  21568832.4774                   21568831.9574
 11  8 23 17 19 30.0000000  0  9G07G08G24G28G13G23G11G03G19
 -11256467.953 8  -8759257.709 8  20595613.078
 -15658219.62447 -12166744.09145  21801083.7194                   21801085.2154
  -1197397.48146   -890416.49743  24017185.0634                   24017192.1334
  -9398127.75947  -7284784.16244  22936438.2974                   22936439.2814
   6212669.79247   4872292.23245  21440444.5784                   21440445.8914
  16589664.83447  12936027.29944  23250681.5004                   23250683.0434
 -11260459.59147  -8688177.84144  22543192.4454                   22543194.4414
  14012469.41046  10956708.65343  23519080.5944                   23519082.6994
   -735215.18748   -510364.69446  21580520.4064                   21580519.7344
 11  8 23 17 20  0.0000000  0  9G07G08G24G28G13G23G11G03G19
 -11288880.272 7  -8784514.059 7  20589445.633
 -15727996.63148 -12221115.76445  21787805.6804                   21787806.9804
  -1272038.83547   -948578.47543  24002981.0634                   24002988.4884
  -9440150.63647  -7317529.24544  22928441.3134                   22928442.5864
   6299369.41848   4939850.31745  21456943.2114                   21456944.4734
  16701852.03247  13023445.69944  23272030.4614                   23272031.9654
 -11326604.65747  -8739719.36644  22530605.1174                   22530607.4414
  14118777.77346  11039546.25943  23539310.0394                   23539312.7034
   -673307.27147   -462124.79946  21592301.2034                   21592300.5864
 11  8 23 17 20 30.0000000  0  9G07G08G24G28G13G23G11G03G19
 -11321015.678 7  -8809554.645 8  20583330.289
 -15797685.14047 -12275418.47845  21774544.5944                   21774545.3284
  -1346666.00247  -1006729.40443  23988779.5234                   23988786.3834
  -9482003.81247  -7350142.10144  22920476.6334                   22920478.0554
   6386455.27148   5007709.34845  21473515.2584                   21473516.2664
  16814163.47347  13110960.90344  23293402.7194                   23293404.7234
 -11392460.18547  -8791035.31044  22518073.3204                   22518075.9304
  14225257.87346  11122517.66943  23559571.9614                   23559575.0124
   -610913.30948   -413506.15446  21604174.4534                   21604173.6524
 11  8 23 17 21  0.0000000  0  9G07G08G24G28G13G23G11G03G19
 -11352871.008 8  -8834376.982 7  20577268.648
 -15867282.48647 -12329650.15945  21761300.9224                   21761301.5824
  -1421275.16746  -1064866.23943  23974582.5084                   23974588.9574
  -9523687.16247  -7382622.62044  22912544.6414                   22912546.0164
   6473925.42848   5075867.85845  21490159.9224                   21490161.6254
  16926597.37847  13198571.51444  23314798.1094                   23314800.7234
 -11458022.33347  -8842122.64144  22505596.8204                   22505599.0554
  14331908.00047  11205621.59443  23579866.9454                   23579870.4024
   -548034.42748   -364509.67046  21616139.7664                   21616138.8054
 11  8 23 17 21 30.0000000  0  9G07G08G24G28G13G23G11G03G19
 -11384444.670 8  -8858979.843 7  20571260.102
 -15936787.04847 -12383809.56545  21748074.3754                   21748075.4104
  -1495863.49346  -1122986.90143  23960388.8984                   23960395.6174
  -9565201.87047  -7414971.70844  22904644.9774                   22904646.4104
   6561776.79648   5144323.38245  21506878.0394                   21506879.0784
  17039150.41147  13286275.00444  23336216.1724                   23336219.3444
 -11523288.40147  -8892979.21144  22493177.4694                   22493179.4494
  14438725.24247  11288855.75043  23600193.6804                   23600196.5554
   -484673.60448   -315137.62746  21628196.5704                   21628195.9964
 11  8 23 17 22  0.0000000  0  9G07G08G24G28G13G23G11G03G19
 -11415735.598 8  -8883362.404 8  20565305.930
 -16006197.74847 -12437895.80245  21734865.5944                   21734867.2234
  -1570428.65947  -1181089.45343  23946199.5634                   23946205.3594
  -9606549.45547  -7447190.58644  22896776.5004                   22896777.5124
   6650006.03847   5213073.37745  21523667.6254                   21523667.9534
  17151818.91447  13374068.41943  23357656.4614                   23357658.9024
 -11588256.17447  -8943603.41744  22480814.0554                   22480816.5394
  14545706.13547  11372217.38943  23620552.1414                   23620554.3674
   -420833.91648   -265392.44046  21640345.4844                   21640344.2734
 11  8 23 17 22 30.0000000  0  9G07G08G24G28G13G23G11G03G19
 -11446741.587 8  -8907522.930 8  20559405.281
 -16075511.97148 -12491906.86345  21721675.8594                   21721677.7234
  -1644967.31147  -1239171.34244  23932015.5234                   23932022.3364
  -9647730.26447  -7479279.50444  22888940.3284                   22888941.4574
   6738610.68048   5282115.88645  21540528.3674                   21540529.2424
  17264600.75746  13461950.16744  23379118.6094                   23379120.6294
 -11652922.10647  -8993992.38844  22468509.6174                   22468511.1914
  14652848.54746  11455704.93643  23640940.3284                   23640943.2274
   -356517.33347   -215275.66245  21652584.4924                   21652582.8094
 11  8 23 17 23  0.0000000  0  9G07G08G24G28G13G23G11G03G19
 -11477461.110 8  -8931460.225 8  20553559.922
 -16144728.76748 -12545842.01645  21708504.2974                   21708505.5784
  -1719477.16146  -1297230.79643  23917835.6954                   23917842.9884
  -9688745.36247  -7511239.30544  22881135.2034                   22881135.7544
   6827587.75147   5351448.60345  21557459.7664                   21557461.1604
  17377492.40647  13549917.48243  23400601.6094                   23400603.6414
 -11717283.82847  -9044144.32744  22456261.5634                   22456262.5314
  14760149.26946  11539315.80143  23661359.2974                   23661361.8714
   -291726.92248   -164789.63745  21664913.8914                   21664912.5594
 11  8 23 17 23 30.0000000  0  9G07G08G24G28G13G23G11G03G19
 -11507890.454 8  -8955171.414 8  20547769.281
 -16213844.25948 -12599698.23245  21695351.9694                   21695353.4614
  -1793953.33146  -1355263.99943  23903662.5164                   23903670.4654
  -9729593.88847  -7543069.31144  22873362.4614                   22873363.5904
   6916936.08648   5421070.61545  21574462.4614                   21574463.9884
  17490492.79647  13637969.51244  23422105.4454                   23422107.0004
 -11781336.71547  -9094055.61044  22444072.5864                   22444074.6174
  14867607.06746  11623049.06443  23681807.8364                   23681810.4184
   -226462.96148   -113934.62746  21677333.1024                   21677332.2504
 11  8 23 17 24  0.0000000  0  9G07G08G24G28G13G23G11G03G19
 -11538030.502 8  -8978657.178 8  20542034.188
 -16282858.88047 -12653475.83445  21682219.0314                   21682219.6294
  -1868395.49746  -1413270.75043  23889497.7114                   23889503.7544
  -9770278.88047  -7574771.87045  22865620.1414                   22865621.2504
   7006650.04948   5490977.52645  21591534.9454                   21591536.2274
  17603596.28147  13726101.89844  23443627.7424                   23443629.8634
 -11845080.13647  -9143725.75544  22431942.3444                   22431944.2034
  14975217.27946  11706901.12943  23702285.5784                   23702288.0234
   -160730.64048    -62714.67446  21689841.6024                   21689840.5314
 11  8 23 17 24 30.0000000  0  9G07G08G24G28G13G23G11G03G19
 -11567878.149 8  -9001915.095 8  20536354.313
 -16351769.73347 -12707172.58945  21669105.5394                   21669106.2734
  -1942799.22546  -1471247.49943  23875338.9064                   23875345.2194
  -9810799.87747  -7606346.65944  22857909.3364                   22857910.6374
   7096728.22948   5561168.25145  21608675.6884                   21608677.3834
  17716801.68347  13814313.70943  23465170.7194                   23465171.8984
 -11908509.92647  -9193151.50944  22419872.1954                   22419873.8524
  15082978.19546  11790870.54242  23722790.7894                   23722794.6724
    -94531.07448    -11130.60346  21702439.1724                   21702437.7194
 11  8 23 17 25  0.0000000  0  9G07G08G24G28G13G23G11G03G19
 -11597430.818 8  -9024943.162 8  20530730.477
 -16420574.59948 -12760786.74745  21656012.6414                   21656013.0784
  -2017160.80646  -1529191.47043  23861187.6024                   23861194.1094
  -9851157.49347  -7637794.13444  22850228.8054                   22850229.9144
   7187168.66748   5631641.24845  21625885.8524                   21625887.3714
  17830106.38547  13902602.88444  23486731.7274                   23486734.1764
 -11971622.72147  -9242330.29944  22407862.2974                   22407863.8834
  15190887.56846  11874955.75742  23743325.6024                   23743328.6334
    -27866.49448     40815.79646  21715125.2814                   21715123.8834
 11  8 23 17 25 30.0000000  0  9G07G08G24G28G13G23G11G03G19
 -11626688.638 8  -9047741.466 8  20525163.070
 -16489273.28048 -12814318.18045  21642940.1414                   21642940.8204
  -2091479.53146  -1587102.00543  23847044.7664                   23847051.3404
  -9891354.23947  -7669116.26044  22842580.3524                   22842580.6914
   7277966.29648   5702392.56745  21643164.6094                   21643165.9024
  17943505.55647  13990965.68244  23508311.3444                   23508313.3204
 -12034417.32247  -9291261.10544  22395912.6174                   22395914.8364
  15298940.90446  11959153.07142  23763887.7814                   23763890.5864
     39258.97848     93121.32846  21727898.6644                   21727897.4304
 11  8 23 17 26  0.0000000  0  9G07G08G24G28G13G23G11G03G19
 -11655647.057 8  -9070306.476 8  20519651.914
 -16557861.52348 -12867763.55045  21629887.7664                   21629888.7934
  -2165749.69446  -1644974.69243  23832912.5864                   23832918.0944
  -9931388.57647  -7700311.83444  22834961.8674                   22834962.9494
   7369120.87547   5773422.03045  21660510.6954                   21660511.7424
  18056998.94446  14079401.86143  23529907.5864                   23529910.0704
 -12096888.45847  -9339939.87845  22384024.4224                   22384026.8364
  15407137.60046  12043462.08043  23784477.8054                   23784479.7704
    106845.33648    145786.00146  21740759.5474                   21740758.5354
 11  8 23 17 26 30.0000000  0  9G07G08G24G28G13G23G11G03G19
 -11684305.816 8  -9092637.982 8  20514198.703
 -16626338.88648 -12921122.51045  21616857.2114                   21616858.7424
  -2239969.83847  -1702808.46243  23818788.8364                   23818795.1764
  -9971263.07647  -7731382.86045  22827374.1414                   22827375.0084
   7460628.14948   5844726.33045  21677924.1254                   21677925.2274
  18170581.73947  14167907.72943  23551522.5314                   23551524.9534
 -12159034.67147  -9388365.47744  22372198.8914                   22372200.3714
  15515473.75846  12127879.78743  23805093.1884                   23805095.8404
    174888.50648    198806.62746  21753707.6804                   21753706.6564
 11  8 23 17 27  0.0000000  0  9G07G08G24G28G13G23G11G03G19
 -11712662.908 8  -9114734.421 8  20508802.648
 -16694703.35148 -12974393.49645  21603847.7504                   21603849.0394
  -2314136.79646  -1760600.76843  23804674.9614                   23804681.5204
 -10010977.72447  -7762329.31045  22819816.5704                   22819818.0474
   7552485.15748   5916303.14245  21695403.7814                   21695405.0664
  18284251.69946  14256481.48843  23573153.4454                   23573155.8834
 -12220852.91247  -9436535.49644  22360435.3054                   22360436.8834
  15623946.89146  12212404.20643  23825734.6334                   23825737.5234
    243385.87748    252181.16545  21766742.3204                   21766741.3324
 11  8 23 17 27 30.0000000  0  9G07G08G24G28G13G23G11G03G19
 -11740716.823 8  -9136594.634 8  20503463.898
 -16762953.10948 -13027575.12045  21590860.0634                   21590860.6994
  -2388247.73646  -1818349.37943  23790571.9064                   23790578.7854
 -10050533.59047  -7793152.05844  22812289.6174                   22812290.1454
   7644689.15148   5988150.33345  21712949.9614                   21712951.3014
  18398005.74746  14345120.76143  23594800.1954                   23594802.5314
 -12282340.19847  -9484447.63644  22348734.1564                   22348736.2234
  15732554.41146  12297033.38543  23846402.7424                   23846404.9614
    312335.14348    305907.84346  21779863.0554                   21779862.0164
 11  8 23 17 28  0.0000000  0  9G07G08G24G28G13G23G11G03G19
 -11768465.005 8  -9158216.605 8  20498183.445
 -16831085.43848 -13080665.25545  21577894.8524                   21577895.8324
  -2462298.90946  -1876051.45743  23776480.4924                   23776486.6254
 -10089931.06647  -7823851.36445  22804792.4304                   22804792.9734
   7737237.80147   6060266.09045  21730561.2814                   21730562.7384
  18511841.38246  14433823.61643  23616461.8054                   23616465.0984
 -12343493.46347  -9532099.49645  22337097.7424                   22337099.0314
  15841294.11946  12381765.53043  23867094.7034                   23867097.9344
    381734.36048    359985.11246  21793069.2504                   21793068.6094
 11  8 23 17 28 30.0000000  0  9G07G08G24G28G13G23G11G03G19
 -11795905.464 8  -9179598.785 8  20492961.891
 -16899098.40848 -13133662.36545  21564952.4844                   21564953.3404
  -2536287.15646  -1933704.51143  23762399.9924                   23762406.4224
 -10129170.79147  -7854427.77144  22797325.5704                   22797325.9144
   7830128.22547   6132648.15045  21748237.7114                   21748239.3094
  18625756.04946  14522588.04643  23638139.2734                   23638142.3324
 -12404309.23847  -9579488.37545  22325524.5864                   22325525.8954
  15950163.74346  12466598.89643  23887812.7894                   23887815.0234
    451580.86148    414410.92045  21806360.6414                   21806359.3204
 11  8 23 17 29  0.0000000  0  9G07G08G24G28G13G23G11G03G19
 -11823036.976 8  -9200740.233 8  20487798.992
 -16966990.74048 -13186565.46645  21552032.9534                   21552034.1684
  -2610210.26347  -1991306.76943  23748333.5234                   23748339.6254
 -10168254.63847  -7884882.69445  22789887.6724                   22789889.0664
   7923356.78247   6205293.70545  21765978.3754                   21765979.7504
  18739746.02346  14611411.15843  23659831.7194                   23659834.2854
 -12464785.84147  -9626612.95444  22314016.3444                   22314018.0004
  16059159.70146  12551530.71643  23908554.0474                   23908556.1764
    521871.22848    469182.60645  21819736.5474                   21819735.9654
 11  8 23 17 29 30.0000000  0  9G07G08G24G28G13G23G11G03G19
 -11849858.246 8  -9221639.923 8  20482695.164
 -17034760.87748 -13239373.34145  21539136.6804                   21539137.6564
  -2684065.48147  -2048856.22043  23734279.5394                   23734284.7074
 -10207183.39447  -7915216.77544  22782479.6724                   22782481.2154
   8016920.32147   6278200.27345  21783783.1564                   21783784.7734
  18853807.93747  14700290.33243  23681537.0704                   23681540.2664
 -12524920.35747  -9673470.98444  22302572.6564                   22302574.2234
  16168279.12246  12636558.74443  23929318.0864                   23929320.7624
    592602.63648    524297.94145  21833196.0554                   21833195.4144
 11  8 23 17 30  0.0000000  0  9G07G08G24G28G13G23G11G03G19
 -11876366.301 8  -9242295.569 8  20477650.891
 -17102406.05348 -13292083.85745  21526264.2034                   21526264.9884
  -2757849.30047  -2106349.95743  23720239.0944                   23720244.5044
 -10245957.18247  -7945430.11045  22775101.7814                   22775101.9264
   8110816.59047   6351366.12045  21801651.3364                   21801652.6054
  18967940.00046  14789224.16243  23703255.3054                   23703258.4454
 -12584709.30547  -9720059.73844  22291195.0944                   22291196.7114
  16277519.89146  12721681.36343  23950105.5784                   23950108.7734
    663773.42048    579755.64745  21846739.4224                   21846738.6214
 11  8 23 17 30 30.0000000  0  9G07G08G24G28G13G23G11G03G19
 -11902559.105 8  -9262705.566 8  20472666.844
 -17169923.83148 -13344695.12145  21513415.8754                   21513416.8594
  -2831558.14247  -2163785.27243  23706212.3364                   23706217.9144
 -10284576.47447  -7975523.04645  22767752.5474                   22767753.7464
   8205043.13247   6424789.30645  21819582.2664                   21819583.3674
  19082139.56646  14878210.60343  23724987.4454                   23724989.5084
 -12644149.48847  -9766376.72645  22279884.8524                   22279885.6684
  16386879.90846  12806896.84943  23970916.6884                   23970919.0514
    735381.20948    635553.88145  21860366.0944                   21860365.1024
 11  8 23 17 31  0.0000000  0  9G07G08G24G28G13G23G11G03G19
 -11928436.181 8  -9282869.529 8  20467742.656
 -17237313.69648 -13397206.69945  21500592.2194                   21500593.2504
  -2905190.06847  -2221160.67043  23692201.1024                   23692205.8054
 -10323043.25047  -8005497.14745  22760432.6254                   22760433.2344
   8299595.83747   6498466.66045  21837575.0864                   21837576.4734
  19196402.53547  14967246.44843  23746731.6724                   23746734.0514
 -12703239.33347  -9812420.73145  22268639.7114                   22268641.5594
  16496355.38446  12892202.33343  23991749.1024                   23991751.9844
    807422.13648    691689.62446  21874074.9694                   21874074.6334
 11  8 23 17 31 30.0000000  0  9G07G08G24G28G13G23G11G03G19
 -11953994.528 8  -9302785.138 8  20462878.711
 -17304572.24748 -13449615.94745  21487793.3204                   21487794.5944
  -2978740.86647  -2278472.87243  23678204.3594                   23678210.4884
 -10361357.64747  -8035352.51245  22753141.5944                   22753142.8634
   8394472.58547   6572396.51145  21855629.3204                   21855630.6334
  19310727.04947  15056330.26443  23768486.0944                   23768489.3674
 -12761974.88147  -9858188.64445  22257462.7894                   22257464.9454
  16605944.76246  12977596.54043  24012603.9774                   24012606.6214
    879894.55448    748161.57846  21887866.3834                   21887865.4844
 11  8 23 17 32  0.0000000  0  9G07G08G24G28G13G23G11G03G19
 -11979232.795 8  -9322451.326 8  20458076.375
 -17371697.98548 -13501921.69345  21475019.4384                   21475020.5784
  -3052208.09347  -2335719.88943  23664223.6884                   23664229.2974
 -10399520.66947  -8065089.92845  22745879.0234                   22745880.2234
   8489670.71847   6646576.78345  21873745.0704                   21873746.1524
  19425110.03346  15145459.62043  23790253.4534                   23790255.6994
 -12820353.64247  -9903678.56744  22246353.5314                   22246355.2624
  16715644.81846  13063077.02042  24033478.4534                   24033481.2384
    952795.66848    804967.60546  21901739.0474                   21901738.1214
 11  8 23 17 32 30.0000000  0  9G07G08G24G28G13G23G11G03G19
 -12004149.922 8  -9341867.285 8  20453334.719
 -17438689.97948 -13554123.23245  21462271.1094                   21462272.4654
  -3125589.60347  -2392900.21643  23650259.9694                   23650265.8204
 -10437534.28847  -8094710.91845  22738645.6644                   22738646.8754
   8585185.23047   6721003.57345  21891920.8754                   21891922.5234
  19539547.53846  15234631.46243  23812030.1564                   23812033.4384
 -12878373.71347  -9948888.98045  22235312.9614                   22235314.3754
  16825451.95646  13148641.01742  24054374.7894                   24054376.9844
   1026122.00248    862104.97945  21915692.5634                   21915691.6764
 11  8 23 17 33  0.0000000  0  9G07G08G24G28G13G23G11G03G19
 -12028740.637 8  -9361028.896 8  20448655.109
 -17505542.77148 -13606216.31345  21449549.9774                   21449550.4144
  -3198878.97846  -2450008.68343  23636313.1884                   23636318.7774
 -10475395.70147  -8124213.29245  22731440.8754                   22731441.9224
   8681017.24247   6795677.79745  21910156.9774                   21910158.9884
  19654040.24446  15323846.30543  23833818.2194                   23833820.3874
 -12936029.03047  -9993815.17545  22224340.8444                   22224342.9574
  16935367.15246  13234289.12342  24075291.8054                   24075293.8524
   1099873.98048    919574.01346  21929726.9924                   21929726.3014
 11  8 23 17 33 30.0000000  0  9G07G08G24G28G13G23G11G03G19
 -12053006.709 8  -9379937.533 8  20444037.305
 -17572257.47848 -13658201.78245  21436854.2194                   21436855.1024
  -3272076.49146  -2507045.54243  23622384.0004                   23622390.3094
 -10513109.26147  -8153600.46845  22724264.0164                   22724264.9614
   8777160.32147   6870594.39645  21928452.7974                   21928454.2704
  19768581.83146  15413099.15043  23855614.1884                   23855617.5354
 -12993320.12747 -10038457.55645  22213439.5084                   22213441.2624
  17045384.72046  13320017.05642  24096226.5314                   24096228.9384
   1174045.44347    977369.91345  21943840.8834                   21943840.5824
 11  8 23 17 34  0.0000000  0  9G07G08G24G28G13G23G11G03G19
 -12076945.550 8  -9398591.184 7  20439481.867
 -17638831.20848 -13710077.40345  21424185.5234                   21424186.1684
  -3345178.24346  -2564007.83643  23608472.7344                   23608478.9774
 -10550674.83347  -8182872.31645  22717115.6804                   22717117.1024
   8873612.18147   6945751.59545  21946806.6174                   21946808.6604
  19883170.48546  15502388.74943  23877420.0084                   23877423.5394
 -13050243.59147 -10082813.47145  22202607.1334                   22202608.2624
  17155502.99346  13405823.38642  24117181.2034                   24117185.2154
   1248634.71348   1035491.37745  21958035.1564                   21958034.6294
 11  8 23 17 34 30.0000000  0  9G07G08G24G28G13G23G11G03G19
 -12100554.837 8  -9416988.032 8  20434989.117
 -17705261.50148 -13761841.25845  21411544.1334                   21411545.5434
  -3418181.00046  -2620892.95143  23594580.7814                   23594586.9964
 -10588092.80147  -8212029.16945  22709995.1254                   22709995.8484
   8970370.41047   7021147.53045  21965219.5164                   21965220.9924
  19997803.51346  15591712.89243  23899234.0084                   23899237.4734
 -13106796.04047 -10126880.26845  22191845.3594                   22191847.4414
  17265719.49246  13491706.31042  24138154.6724                   24138158.9884
   1323639.55447   1093936.67245  21972308.0394                   21972307.6024
 11  8 23 17 35  0.0000000  0  9G07G08G24G28G13G23G11G03G19
 -12123834.349 8  -9435127.925 7  20430559.570
 -17771548.30648 -13813493.29946  21398930.7114                   21398932.3594
  -3491083.00446  -2677699.59843  23580707.9534                   23580714.5514
 -10625365.84547  -8241073.07244  22702902.4534                   22702903.3094
   9067430.51347   7096778.69645  21983689.6254                   21983690.9924
  20112476.52346  15681068.20143  23921055.8444                   23921059.0554
 -13162976.26447 -10170657.04045  22181154.4144                   22181156.0864
  17376030.28446  13577662.68843  24159146.4614                   24159151.0944
   1399055.70547   1152702.47045  21986659.8674                   21986658.4144
 11  8 23 17 35 30.0000000  0  8G07G08G24G28G13G23G11G19
 -12146781.941 8  -9453009.196 7  20426192.367
 -17837689.00948 -13865031.49746  21386344.8444                   21386346.3674
  -3563881.04746  -2734425.17143  23566855.2344                   23566860.8324
 -10662494.53747  -8270004.50445  22695837.1724                   22695837.7194
   9164789.79747   7172642.98245  22002216.3754                   22002218.0944
  20227186.99846  15770452.73043  23942884.8754                   23942887.5704
 -13218781.29747 -10214141.43345  22170534.9224                   22170537.0664
   1474880.74247   1211786.87045  22001088.5164                   22001088.1484
 11  8 23 17 36  0.0000000  0  8G07G08G24G28G13G23G11G19
 -12169392.792 8  -9470628.037 8  20421889.859
 -17903678.43448 -13916451.82646  21373787.0864                   21373788.5824
  -3636568.84746  -2791064.87543  23553021.9304                   23553027.6804
 -10699476.71747  -8298821.75245  22688798.8754                   22688800.1294
   9262448.32847   7248740.44045  22020800.3754                   22020802.0984
  20341935.15546  15859866.58143  23964720.4454                   23964724.1914
 -13274205.57847 -10257329.14145  22159988.7274                   22159989.9694
   1551115.15047   1271190.27245  22015595.5394                   22015595.1174
 11  8 23 17 36 30.0000000  0  8G07G08G24G28G13G23G11G19
 -12191667.634 8  -9487985.074 8  20417651.172
 -17969516.94148 -13967754.54346  21361258.3134                   21361259.9694
  -3709145.90246  -2847618.27043  23539212.0394                   23539217.5274
 -10736315.55247  -8327527.32245  22681788.9614                   22681789.8364
   9360400.32647   7325066.57945  22039440.2734                   22039441.6724
  20456715.83346  15949305.74343  23986562.4304                   23986566.8554
 -13329248.64147 -10300219.80345  22149514.3054                   22149515.6954
   1627753.51148   1330908.42745  22030179.1484                   22030178.5634
 11  8 23 17 37  0.0000000  0  8G07G08G24G28G13G23G11G19
 -12213603.611 8  -9505078.052 8  20413476.656
 -18035201.22948 -14018937.08746  21348758.7274                   21348760.5044
  -3781607.88047  -2904081.94443  23525422.5084                   23525427.3244
 -10773010.55147  -8356120.81545  22674806.0314                   22674807.2154
   9458644.25047   7401620.18145  22058135.2504                   22058137.3524
  20571527.47347  16038769.04943  24008411.6954                   24008415.0594
 -13383906.43247 -10342810.26645  22139113.1174                   22139114.9384
   1704794.33547   1390940.19045  22044839.9534                   22044839.2504
 11  8 23 17 37 30.0000000  0  8G07G08G24G28G13G23G11G19
 -12235199.496 8  -9521906.033 7  20409367.469
 -18100730.44248 -14069998.79346  21336289.0474                   21336290.4414
  -3853952.74446  -2960454.41543  23511654.8524                   23511660.7854
 -10809563.77947  -8384603.83245  22667850.2114                   22667851.4414
   9557176.37347   7478398.36345  22076885.6094                   22076887.2384
  20686366.21247  16128253.50843  24030264.6564                   24030267.4184
 -13438177.28947 -10385099.21045  22128785.2274                   22128787.3594
   1782233.88347   1451282.63845  22059576.5784                   22059575.7704
 11  8 23 17 38  0.0000000  0  8G07G08G24G28G13G23G11G19
 -12256453.002 8  -9538467.206 8  20405323.141
 -18166101.70248 -14120937.43546  21323849.9224                   21323850.7344
  -3926176.89347  -3016732.80944  23497912.3594                   23497917.3594
 -10845975.48347  -8412976.57845  22660921.4614                   22660922.1564
   9655993.73347   7555398.80945  22095689.2894                   22095691.1414
  20801229.62046  16217757.11943  24052121.9534                   24052126.5704
 -13492058.01847 -10427084.17345  22118532.5394                   22118533.7774
   1860069.96847   1511934.08345  22074388.1724                   22074387.0824
 11  8 23 17 38 30.0000000  0  8G07G08G24G28G13G23G11G19
 -12277362.152 8  -9554760.070 8  20401343.898
 -18231312.45148 -14171750.99146  21311440.3134                   21311442.0044
  -3998276.82547  -3072914.43043  23484190.8914                   23484196.4694
 -10882246.26847  -8441239.51945  22654019.4454                   22654019.9924
   9755093.85347   7632619.58645  22114548.2894                   22114549.9224
  20916115.34746  16307278.12443  24073984.7814                   24073988.8284
 -13545545.50947 -10468762.69945  22108354.0314                   22108355.6884
   1938300.36947   1572892.78045  22089274.7034                   22089273.8834
 11  8 23 17 39  0.0000000  0  8G07G08G24G28G13G23G11G19
 -12297926.674 8  -9570784.387 8  20397430.773
 -18296362.41248 -14222439.26746  21299061.6094                   21299062.9774
  -4070250.91047  -3128998.01743  23470495.5394                   23470501.1564
 -10918378.64047  -8469394.60544  22647143.2814                   22647143.8754
   9854471.95747   7710056.95745  22133459.2814                   22133461.4224
  21031019.25346  16396813.32443  24095850.4774                   24095854.5984
 -13598638.89847 -10510134.15044  22098250.7114                   22098251.9774
   2016920.84747   1634155.45245  22104235.6724                   22104235.0864
 11  8 23 17 39 30.0000000  0  8G07G08G24G28G13G23G11G19
 -12318144.014 8  -9586538.168 8  20393583.773
 -18361248.14048 -14272999.57446  21286714.1724                   21286715.9024
  -4142095.37047  -3184980.55343  23456823.2664                   23456829.3674
 -10954372.34947  -8497441.64645  22640294.3134                   22640294.5204
   9954126.10047   7787709.44445  22152422.3054                   22152424.6294
  21145939.39746  16486361.18543  24117719.3834                   24117723.0354
 -13651334.22747 -10551195.39845  22088222.8984                   22088224.2624
   2095929.46547   1695720.55745  22119270.6884                   22119269.9414
 11  8 23 17 40  0.0000000  0  8G07G08G24G28G13G23G11G19
 -12338012.084 8  -9602019.800 7  20389802.555
 -18425967.59048 -14323430.31246  21274398.7974                   21274399.7734
  -4213806.80147  -3240859.49143  23443177.2504                   23443182.5434
 -10990228.00147  -8525381.09744  22633470.9224                   22633471.6954
  10054053.93147   7865575.16945  22171438.7664                   22171440.5474
  21260873.32246  16575919.75243  24139590.3364                   24139595.2814
 -13703628.62947 -10591944.27845  22078271.4064                   22078272.8954
   2175323.81347   1757586.23845  22134379.0164                   22134378.4144
 11  8 23 17 40 30.0000000  0  9G07G08G24G28G17G13G23G11G19
 -12357528.027 8  -9617227.040 8  20386088.945
 -18490517.02148 -14373728.57746  21262115.4384                   21262116.3914
  -4285381.12447  -3296631.53943  23429556.2344                   23429562.8554
 -11025945.41447  -8553212.83344  22626674.4924                   22626674.9774
   -659582.24116   -470348.81315  24631759.172
  10154252.95047   7943652.22345  22190505.7504                   22190507.4224
  21375818.71046  16665487.28043  24161464.6724                   24161468.3244
 -13755518.59547 -10632377.98045  22068397.2034                   22068399.0164
   2255102.01947   1819751.03245  22149560.3754                   22149559.2704
 11  8 23 17 41  0.0000000  0  9G07G08G24G28G17G13G23G11G19
 -12376692.537 8  -9632160.436 7  20382441.867
 -18554897.06648 -14423894.84946  21249864.1724                   21249865.1844
  -4356817.61147  -3352296.26143  23415962.9224                   23415967.9804
 -11061527.80847  -8580939.36045  22619903.0314                   22619904.3444
   -764433.737 6   -552051.130 6  24611805.992
  10254717.58847   8021936.23845  22209623.9694                   22209625.2704
  21490770.92346  16755060.08043  24183339.1804                   24183343.7814
 -13807003.72947 -10672496.23245  22058599.7344                   22058601.2384
   2335258.62847   1882210.67245  22164813.3594                   22164812.7894
 11  8 23 17 41 30.0000000  0  9G07G08G24G28G17G13G23G11G19
 -12395503.028 8  -9646817.966 8  20378862.500
 -18619104.67448 -14473926.74746  21237645.9384                   21237647.1884
  -4428112.24447  -3407850.34343  23402395.5234                   23402401.7154
 -11096975.48047  -8608560.90545  22613157.8054                   22613158.4184
   -869185.163 6   -633675.431 6  24591872.570
  10355445.87547   8100425.72545  22228791.4614                   22228793.7194
  21605727.45846  16844636.28943  24205215.5704                   24205219.2664
 -13858080.90647 -10712296.59945  22048880.2504                   22048881.3524
   2415792.10047   1944963.98045  22180138.9144                   22180138.2114
 11  8 23 17 42  0.0000000  0  9G07G08G24G28G17G13G23G11G19
 -12413956.736 8  -9661197.490 8  20375351.070
 -18683136.96948 -14523822.04446  21225461.2194                   21225461.7464
  -4499260.60247  -3463290.50743  23388856.9534                   23388861.7624
 -11132288.28847  -8636077.36645  22606437.7504                   22606438.9494
   -973833.242 6   -715219.221 6  24571958.055
  10456435.90347   8179119.13344  22248009.0944                   22248011.6254
  21720687.04846  16934214.86843  24227091.1174                   24227096.2304
 -13908746.17847 -10751775.99445  22039239.0474                   22039240.3594
   2496700.47747   2008009.42745  22195535.1724                   22195533.9384
 11  8 23 17 42 30.0000000  0  9G07G08G24G28G17G13G23G11G19
 -12432052.153 8  -9675297.822 8  20371907.203
 -18746991.54248 -14573578.83946  21213309.9774                   21213311.1254
  -4570260.33147  -3518614.91043  23375346.8914                   23375350.8444
 -11167467.08347  -8663489.39245  22599743.6414                   22599744.4264
  -1078376.002 6   -796680.951 6  24552064.305
  10557684.34247   8258013.90644  22267276.4844                   22267278.3324
  21835646.69846  17023793.39443  24248968.8054                   24248972.8204
 -13958997.56247 -10790932.88645  22029676.3054                   22029677.7274
   2577981.00647   2071344.85945  22211002.3134                   22211001.5044
 11  8 23 17 43  0.0000000  0  9G07G08G24G28G17G13G23G11G19
 -12449788.657 8  -9689118.488 8  20368532.531
 -18810667.55248 -14623196.50946  21201192.6804                   21201193.7624
  -4641109.51246  -3573821.84043  23361863.1724                   23361867.8714
 -11202514.09447  -8690798.71945  22593074.0864                   22593074.9494
  -1182812.341 6   -878059.798 6  24532190.570
  10659186.61047   8337106.48645  22286591.6884                   22286594.0864
  21950602.35946  17113368.84843  24270843.3914                   24270848.3714
 -14008833.66347 -10829766.17245  22020192.9224                   22020193.9844
   2659629.50447   2134967.01745  22226539.0004                   22226538.8984
 11  8 23 17 43 30.0000000  0  9G07G08G24G28G17G13G23G11G19
 -12467162.460 8  -9702656.533 8  20365226.406
 -18874161.09948 -14672671.99946  21189110.5704                   21189111.3364
  -4711803.01946  -3628907.68243  23348410.7114                   23348415.7734
 -11237428.30247  -8718004.57945  22586430.3594                   22586431.6214
  -1287138.842 6   -959353.036 6  24512337.867
  10760941.84247   8416396.14544  22305955.4614                   22305957.8524
  22065553.20446  17202940.58843  24292718.5704                   24292723.0274
 -14058249.94847 -10868272.34845  22010789.2894                   22010790.7344
   2741645.15647   2198875.26045  22242146.2504                   22242145.7424
 11  8 23 17 44  0.0000000  0  9G07G08G24G28G17G13G23G11G19
 -12484174.816 8  -9715912.929 7  20361988.820
 -18937472.51148 -14722005.56446  21177062.4224                   21177063.6414
  -4782340.26547  -3683871.60143  23334988.7424                   23334992.9304
 -11272212.82347  -8745109.39045  22579811.1094                   22579811.7894
  -1391355.619 6  -1040560.790 6  24492506.047
  10862944.67047   8495878.75244  22325366.3754                   22325368.1054
  22180494.01446  17292504.48243  24314591.5784                   24314596.1134
 -14107245.89147 -10906450.96245  22001465.7734                   22001466.6054
   2824022.55047   2263065.40845  22257822.0004                   22257821.8444
 11  8 23 17 44 30.0000000  0  9G07G08G24G28G17G13G23G11G19
 -12500821.309 8  -9728884.252 8  20358821.297
 -19000596.15348 -14771192.80146  21165050.1724                   21165051.2854
  -4852715.43546  -3738709.29043  23321596.3524                   23321600.3874
 -11306866.09747  -8772111.92745  22573216.6024                   22573217.7194
  -1495457.920 6  -1121679.323 6  24472695.844
  10965194.19447   8575553.61145  22344823.3984                   22344826.2194
  22295424.64446  17382060.44943  24336462.0314                   24336466.8794
 -14155816.68347 -10944298.30245  21992222.8364                   21992224.0904
   2906761.57947   2327537.33445  22273566.8524                   22273566.0784
 11  8 23 17 45  0.0000000  0  9G07G08G24G28G17G13G23G11G19
 -12517101.882 8  -9741570.425 8  20355722.992
 -19063532.15348 -14820233.83146  21153074.1954                   21153075.3674
  -4922927.59147  -3793419.97943  23308235.3204                   23308239.6484
 -11341390.94947  -8799014.39945  22566646.3284                   22566647.6024
  -1599445.776 6  -1202708.683 6  24452906.398
  11067685.62947   8655416.94844  22364326.8984                   22364329.4694
  22410340.62146  17471605.00543  24358329.6954                   24358335.6024
 -14203961.63847 -10981813.80645  21983061.1564                   21983062.2504
   2989857.52447   2392287.37845  22289379.1484                   22289378.7344
 11  8 23 17 45 30.0000000  0  9G07G08G24G28G17G13G23G11G19
 -12533013.336 8  -9753968.983 8  20352695.531
 -19126277.06347 -14869125.96346  21141134.0314                   21141135.2544
  -4992971.95347  -3847999.92443  23294905.7664                   23294910.8554
 -11375786.57447  -8825816.18645  22560101.9614                   22560102.0824
  -1703315.511 6  -1283645.966 6  24433141.102
  11170417.68447   8735467.81044  22383875.9224                   22383878.3324
  22525240.53746  17561137.03143  24380194.4614                   24380200.3794
 -14251676.80947 -11018994.42945  21973981.2734                   21973982.5824
   3073309.12347   2457314.55345  22305259.9064                   22305259.8324
 11  8 23 17 46  0.0000000  0  9G07G08G24G28G17G13G23G11G19
 -12548555.060 8  -9766079.426 8  20349737.898
 -19188829.82748 -14917868.37346  21129230.8364                   21129231.9534
  -5062846.56847  -3902447.58544  23281609.0084                   23281614.1174
 -11410055.00447  -8852518.83545  22553580.4924                   22553581.4344
  -1807066.328 6  -1364490.588 5  24413397.930
  11273385.96747   8815702.69744  22403470.4224                   22403473.2114
  22640120.61246  17650653.55243  24402056.6564                   24402061.8594
 -14298961.08847 -11055839.29745  21964983.2664                   21964984.7974
   3157112.25247   2522615.63245  22321207.1484                   22321207.0864
 11  8 23 17 46 30.0000000  0  9G07G08G24G28G17G13G23G11G19
 -12563724.677 8  -9777899.922 8  20346851.266
 -19251187.18948 -14966458.51146  21117364.2974                   21117365.4534
  -5132547.44847  -3956759.86244  23268344.6094                   23268350.6914
 -11444196.51247  -8879122.60045  22547083.8834                   22547084.4264
  -1910695.137 6  -1445240.173 5  24393677.508
  11376588.11147   8896119.84344  22423109.4304                   22423111.9064
  22754978.87246  17740153.08843  24423913.4924                   24423919.0704
 -14345810.74347 -11092345.48445  21956068.2734                   21956069.2464
   3241265.22047   2588189.32145  22337221.2194                   22337220.4494
 11  8 23 17 47  0.0000000  0  9G07G08G24G28G17G13G23G11G19
 -12578517.593 8  -9789426.896 8  20344036.203
 -19313343.62948 -15014892.10346  21105536.7114                   21105537.9264
  -5202068.34247  -4010931.90143  23255116.0634                   23255120.9144
 -11478208.72347  -8905625.62345  22540611.6564                   22540612.2384
  -2014197.022 6  -1525890.867 6  24373981.789
  11480023.97647   8976719.09245  22442792.6564                   22442795.2504
  22869815.72946  17829635.98243  24445766.7114                   24445772.3834
 -14392220.53447 -11128508.94345  21947236.6954                   21947238.1564
   3325767.95647   2654035.56445  22353301.1254                   22353301.2424
 11  8 23 17 47 30.0000000  0  8G07G08G24G28G17G13G11G19
 -12592940.033 8  -9800665.180 8  20341291.664
 -19375305.45948 -15063174.04046  21093745.6954                   21093746.7734
  -5271414.64447  -4064967.91744  23241920.0704                   23241924.5474
 -11512100.94447  -8932035.12845  22534161.7814                   22534162.9844
  -2117578.321 6  -1606447.588 6  24354309.992
  11583682.42747   9057491.78145  22462518.4144                   22462520.9534
 -14438196.31847 -11164334.19345  21938487.2814                   21938488.6214
   3410609.61347   2720145.91945  22369446.1254                   22369445.9344
 11  8 23 17 48  0.0000000  0  8G07G08G24G28G17G13G11G19
 -12606984.518 8  -9811608.950 8  20338619.305
 -19437064.01548 -15111297.57546  21081993.1954                   21081994.5234
  -5340577.19647  -4118860.74044  23228758.3834                   23228764.1454
 -11545867.66247  -8958346.85945  22527736.4534                   22527737.0984
  -2220830.673 6  -1686903.819 6  24334661.484
  11687566.68847   9138440.43544  22482286.8444                   22482289.6334
 -14483729.22347 -11199814.35745  21929823.1484                   21929824.3244
   3495793.42347   2786522.85445  22385656.5084                   22385655.7664
 11  8 23 17 48 30.0000000  0  8G07G08G24G28G17G13G11G19
 -12620651.315 8  -9822258.422 8  20336018.734
 -19498618.97648 -15159262.48346  21070279.9304                   21070280.8484
  -5409554.84447  -4172609.48344  23215632.7344                   23215637.6524
 -11579511.65147  -8984562.94545  22521333.8754                   22521334.9694
  -2323954.075 6  -1767259.560 6  24315036.711
  11791671.47847   9219560.92244  22502097.1484                   22502100.4024
 -14528819.01648 -11234949.23745  21921242.7424                   21921243.8164
   3581314.60347   2853162.67745  22401930.7114                   22401930.5394
 11  8 23 17 49  0.0000000  0  8G07G08G24G28G17G13G11G19
 -12633938.289 8  -9832611.912 8  20333490.180
 -19559968.11048 -15207066.98946  21058605.3914                   21058606.1524
  -5478343.93347  -4226211.27444  23202542.3834                   23202547.5904
 -11613033.62847  -9010683.94845  22514954.7814                   22514956.4384
  -2426946.245 6  -1847513.047 6  24295438.563
  11895994.36847   9300851.36244  22521948.9144                   22521952.2934
 -14573462.80647 -11269736.57145  21912747.2974                   21912748.3714
   3667170.63247   2920063.44345  22418268.1564                   22418268.1024
 11  8 23 17 49 30.0000000  0  8G07G08G24G28G17G13G11G19
 -12646842.834 8  -9842667.412 8  20331034.367
 -19621107.97448 -15254708.42746  21046971.1254                   21046972.4384
  -5546940.30947  -4279662.95444  23189488.6174                   23189493.9614
 -11646433.72447  -9036709.96545  22508598.7584                   22508600.4144
  -2529804.100 6  -1927661.886 6  24275865.172
  12000533.04847   9382309.92644  22541842.7894                   22541845.3714
 -14617657.40647 -11304173.89345  21904337.7974                   21904338.4494
   3753359.44347   2987223.48345  22434669.9694                   22434669.4734
 11  8 23 17 50  0.0000000  0  9G07G08G24G28G17G13G26G11G19
 -12659365.551 8  -9852425.395 8  20328651.508
 -19682038.32948 -15302186.61146  21035376.1804                   21035377.2154
  -5615343.53947  -4332964.08144  23176472.2034                   23176476.0704
 -11679714.62747  -9062643.11845  22502265.9224                   22502267.6604
  -2632527.751 6  -2007706.168 6  24256316.633
  12105282.00447   9463932.37244  22561775.7814                   22561778.5394
    241956.93715                  24236482.172
 -14661402.55347 -11338261.00345  21896012.6174                   21896014.3204
   3839876.25647   3054639.13845  22451133.8364                   22451132.8794
 11  8 23 17 50 30.0000000  0  9G07G08G24G28G17G13G26G11G19
 -12671499.748 8  -9861880.625 8  20326342.469
 -19742752.15548 -15349496.08746  21023822.7734                   21023823.8244
  -5683545.16347  -4386108.07844  23163493.2974                   23163498.7384
 -11712872.36747  -9088480.29945  22495956.2974                   22495957.2074
  -2735110.222 6  -2087640.394 6  24236796.219
  12210243.53247   9545720.44044  22581749.4534                   22581752.2624
    153149.01115                  24219580.672
 -14704690.98947 -11371992.23645  21887775.0704                   21887776.2664
   3926723.04247   3122311.90245  22467659.6254                   22467659.1024
 11  8 23 17 51  0.0000000  0  9G07G08G24G28G17G13G26G11G19
 -12683249.594 8  -9871036.363 8  20324106.641
 -19803252.50848 -15396639.20546  21012310.1414                   21012311.2854
  -5751547.60647  -4439096.92244  23150553.2664                   23150557.8524
 -11745913.16347  -9114226.35045  22489668.3364                   22489669.7344
  -2837555.237 6  -2167467.523 6  24217301.234
  12315408.63947   9627667.13744  22601761.9384                   22601764.1414
     64717.47046    600619.98053  24202753.2194                   24202757.4844
 -14747525.98847 -11405370.13445  21879624.5314                   21879625.8204
   4013891.54047   3190235.38245  22484247.4384                   22484247.3754
 11  8 23 17 51 30.0000000  0  9G07G08G24G28G17G13G26G11G19
 -12694610.538 8  -9879889.064 8  20321944.586
 -19863534.28148 -15443612.01146  21000838.8674                   21000840.1454
  -5819345.04746  -4491925.98544  23137651.9144                   23137656.4534
 -11778835.55647  -9139880.16045  22483404.3914                   22483405.2304
  -2939857.823 6  -2247183.719 6  24197833.477
  12420777.11347   9709772.33244  22621813.1724                   22621815.0434
    -23332.33046    532009.75342  24185998.7664                   24186002.7774
 -14789902.39947 -11438390.70945  21871560.7424                   21871561.3094
   4101381.71147   3258409.48145  22500896.4454                   22500895.7074
 11  8 23 17 52  0.0000000  0  9G07G08G24G28G17G13G26G11G19
 -12705582.301 8  -9888438.499 8  20319856.773
 -19923596.37948 -15490413.62546  20989409.3134                   20989410.4184
  -5886935.95347  -4544594.13044  23124789.9774                   23124794.2424
 -11811641.28147  -9165443.05045  22477160.9224                   22477161.5234
  -3042017.392 6  -2326788.410 6  24178392.688
  12526344.71047   9792032.65144  22641901.7584                   22641904.5634
   -110998.81746    463698.19942  24169316.4064                   24169320.1524
 -14831819.17947 -11471053.11745  21863583.7664                   21863584.8484
   4189189.61647   3326831.18445  22517605.3674                   22517605.0084
 11  8 23 17 52 30.0000000  0  9G07G08G24G28G17G13G26G11G19
 -12716163.218 8  -9896683.374 8  20317842.766
 -19983436.52148 -15537042.31146  20978021.8204                   20978023.3164
  -5954317.05747  -4597098.80044  23111966.6484                   23111972.4774
 -11844331.42247  -9190915.87945  22470940.1174                   22470940.9304
  -3144031.788 6  -2406279.949 6  24158980.828
  12632108.53747   9874445.86944  22662028.5474                   22662030.7894
   -198278.86946    395687.74443  24152708.9224                   24152710.1454
 -14873273.75347 -11503355.37045  21855695.2344                   21855696.3014
   4277312.20747   3395498.07645  22534374.9694                   22534374.4184
 11  8 23 17 53  0.0000000  0  9G07G08G24G28G17G13G26G11G19
 -12726349.806 8  -9904620.998 8  20315905.070
 -20043050.93248 -15583495.08946  20966677.5704                   20966678.9024
  -6021483.49547  -4649436.19643  23099185.7034                   23099190.8674
 -11876905.07347  -9216297.94045  22464741.6804                   22464742.4184
  -3245897.198 6  -2485655.422 6  24139596.578
  12738066.91247   9957010.71944  22682191.5864                   22682193.9734
   -285168.18246    327981.87543  24136173.7034                   24136177.3444
 -14914262.30848 -11535294.48845  21847895.4774                   21847896.1604
   4365748.41147   3464409.34445  22551203.9454                   22551203.3554
 11  8 23 17 53 30.0000000  0  9G07G08G24G28G17G13G26G11G19
 -12736142.705 8  -9912251.844 8  20314041.352
 -20102439.15648 -15629771.61646  20955376.5234                   20955377.6724
  -6088434.25246  -4701605.55643  23086445.2814                   23086449.5124
 -11909364.74847  -9241591.18445  22458564.8284                   22458565.6134
  -3347613.758 6  -2564914.918 6  24120239.094
  12844214.86847  10039723.25344  22702391.0704                   22702394.0004
   -371666.21046    260580.92443  24119713.3834                   24119717.7464
 -14954784.59447 -11566870.29545  21840184.3674                   21840185.3524
   4454493.13547   3533561.03445  22568091.3054                   22568091.4884
 11  8 23 17 54  0.0000000  0  9G07G08G24G28G17G13G26G11G19
 -12745538.393 8  -9919573.179 8  20312253.328
 -20161596.68048 -15675868.39646  20944119.3754                   20944120.5164
  -6155164.21046  -4753602.82044  23073747.5474                   23073752.1094
 -11941709.56347  -9266794.92645  22452409.6724                   22452410.4804
  -3449177.687 6  -2644055.475 6  24100912.523
  12950551.20747  10122582.58744  22722626.1024                   22722628.5474
   -457767.94746    193488.71843  24103328.4614                   24103333.5594
 -14994836.40147 -11598079.48145  21832562.3674                   21832563.5314
   4543545.81247   3602952.68645  22585037.4304                   22585037.3204
 11  8 23 17 54 30.0000000  0  9G07G08G24G28G17G13G26G11G19
 -12754535.371 8  -9926583.828 8  20310541.508
 -20220521.49548 -15721783.84346  20932906.4224                   20932907.1724
  -6221670.47546  -4805425.77444  23061091.4694                   23061095.7974
 -11973940.74347  -9291910.12245  22446276.2664                   22446276.8524
  -3550586.731 6  -2723075.360 6  24081615.211
  13057072.80247  10205586.30444  22742896.4304                   22742898.8874
   -543470.83346    126707.29643  24087019.4774                   24087024.6764
 -15034415.59947 -11628920.41045  21825030.9614                   21825031.7464
   4632903.53647   3672582.02145  22602042.0704                   22602041.6724
 11  8 23 17 55  0.0000000  0  9G07G08G24G28G17G13G26G11G19
 -12763134.016 8  -9933284.091 8  20308905.141
 -20279212.71648 -15767517.26846  20921737.3524                   20921738.4414
  -6287951.64446  -4857073.37644  23048478.2504                   23048483.0274
 -12006060.78947  -9316938.72045  22440164.6024                   22440165.3164
  -3651840.743 6  -2801974.442 6  24062347.305
  13163774.53947  10288730.36144  22763201.6564                   22763203.8594
   -628774.05346     60237.32443  24070786.9844                   24070792.1024
 -15073522.05647 -11659392.96445  21817589.2114                   21817589.8164
   4722561.35047   3742445.19145  22619103.3754                   22619103.7194
 11  8 23 17 55 30.0000000  0  9G07G08G24G28G17G13G26G11G19
 -12771331.358 8  -9939671.644 8  20307345.445
 -20337666.93648 -15813066.00946  20910614.2584                   20910615.3444
  -6354003.38346  -4908542.15344  23035909.2504                   23035913.7074
 -12038069.01547  -9341880.18045  22434073.5084                   22434074.4104
  -3752936.654 6  -2880750.344 6  24043108.773
  13270654.96147  10372013.63744  22783540.4304                   22783543.0514
   -713673.41546     -5917.99043  24054631.7894                   24054635.2424
 -15112151.87747 -11689494.12545  21810238.0864                   21810239.3554
   4812517.65747   3812540.95745  22636221.2034                   22636221.0124
 11  8 23 17 56  0.0000000  0  9G07G08G24G28G17G13G26G11G19
 -12779127.136 8  -9945746.292 8  20305861.688
 -20395883.31348 -15858429.42246  20899535.9844                   20899537.0984
  -6419824.20547  -4959831.01844  23023383.6954                   23023388.0164
 -12069967.75747  -9366736.33745  22428003.3524                   22428004.4224
  -3853874.126 6  -2959402.782 6  24023901.141
  13377709.46447  10455432.59944  22803911.9534                   22803914.6024
   -798167.66446    -71757.64143  24038552.7034                   24038555.8164
 -15150304.27048 -11719223.24745  21802977.9614                   21802978.7704
   4902768.77247   3882866.45445  22653395.7194                   22653394.8324
 11  8 23 17 56 30.0000000  0  9G07G08G24G28G17G13G26G11G19
 -12786518.434 8  -9951505.755 8  20304455.180
 -20453857.41348 -15903604.05246  20888503.9454                   20888504.9264
  -6485409.22446  -5010936.12144  23010903.2584                   23010907.4064
 -12101756.39947  -9391506.68945  22421954.1094                   22421954.9344
  -3954649.192 7  -3037928.669 6  24004724.508
  13484936.37547  10538985.86244  22824317.7344                   22824320.2894
   -882252.34846   -137278.19543  24022551.6024                   24022554.7194
 -15187975.74948 -11748577.63545  21795809.4384                   21795809.8674
   4993313.05147   3953420.38645  22670625.5944                   22670625.1994
 11  8 23 17 57  0.0000000  0  9G07G08G24G28G17G13G26G11G19
 -12793503.947 8  -9956949.019 8  20303126.055
 -20511587.65148 -15948588.64346  20877517.9924                   20877518.8484
  -6550755.81947  -5061855.44744  22998468.3834                   22998472.9844
 -12133436.16347  -9416192.21045  22415925.5234                   22415926.4574
  -4055260.400 6  -3116326.862 6  23985578.484
  13592332.57347  10622671.05444  22844753.7894                   22844756.7424
   -965925.45346   -202477.99643  24006629.1884                   24006631.3874
 -15225164.52748 -11777555.89145  21788732.3834                   21788733.8014
   5084147.40347   4024200.35345  22687911.2034                   22687910.1214
 11  8 23 17 57 30.0000000  0  9G07G08G24G28G17G13G26G11G19
 -12800082.080 8  -9962074.856 8  20301874.008
 -20569071.43748 -15993381.20846  20866579.2894                   20866580.5744
  -6615860.87147  -5112586.58544  22986079.1254                   22986083.4494
 -12165007.62947  -9440793.34145  22409917.5474                   22409918.5044
  -4155705.535 6  -3194595.607 6  23966464.352
  13699895.17847  10706485.92044  22865222.2424                   22865225.8014
  -1049183.83846   -267354.61443  23990784.2424                   23990788.0084
 -15261868.34247 -11806156.26245  21781748.2344                   21781749.3014
   5175269.17047   4095204.27445  22705250.9694                   22705250.2504
 11  8 23 17 58  0.0000000  0  9G07G08G24G28G17G13G26G11G19
 -12806251.634 8  -9966882.312 8  20300700.203
 -20626306.88448 -16037980.24746  20855687.9454                   20855689.1174
  -6680721.63447  -5163127.37043  22973736.3674                   22973740.5634
 -12196471.98347  -9465311.01045  22403930.0394                   22403930.9494
  -4255983.063 6  -3272733.802 6  23947381.344
  13807620.85247  10790427.82644  22885722.6804                   22885724.8674
  -1132025.07146   -331906.24643  23975020.4454                   23975025.1054
 -15298085.27748 -11834377.24045  21774856.0864                   21774857.1374
   5266674.94547   4166429.49145  22722644.6484                   22722644.5554
 11  8 23 17 58 30.0000000  0  9G07G08G24G28G17G13G26G11G19
 -12812009.086 8  -9971368.651 8  20299604.734
 -20683289.06248 -16082381.94646  20844844.5164                   20844845.6174
  -6745332.64847  -5213473.53544  22961441.2584                   22961445.1914
 -12227827.89647  -9489744.18345  22397963.3524                   22397964.3094
  -4356088.931 6  -3350738.238 6  23928332.789
  13915508.53247  10874495.99444  22906252.8524                   22906255.4024
  -1214444.46246   -396129.09943  23959337.2274                   23959341.7584
 -15333811.07548 -11862215.51745  21768057.6724                   21768059.2074
   5358364.30147   4237875.68445  22740093.1094                   22740092.2464
 11  8 23 17 59  0.0000000  0  9G07G08G24G28G17G13G26G11G19
 -12817357.791 8  -9975536.489 8  20298586.938
 -20740020.98148 -16126588.63146  20834048.7894                   20834049.4534
  -6809696.06547  -5263626.74844  22949193.1414                   22949197.4184
 -12259081.19347  -9514097.39645  22392015.9384                   22392016.8324
  -4456025.903 6  -3428611.057 6  23909314.883
  14023549.85647  10958683.90644  22926812.4844                   22926815.0314
  -1296444.31546   -460025.07743  23943733.2584                   23943737.9924
 -15369048.80348 -11889673.46845  21761352.2114                   21761352.7234
   5450329.32847   4309536.67945  22757593.0314                   22757592.8554
 11  8 23 17 59 30.0000000  0  9G07G08G24G28G17G13G26G11G19
 -12822293.484 8  -9979382.502 8  20297647.695
 -20796497.08448 -16170595.98346  20823301.5784                   20823302.7194
  -6873805.75147  -5313582.25744  22936993.4304                   22936997.7584
 -12290230.10847  -9538369.24845  22386088.5554                   22386089.0824
  -4555789.414 6  -3506348.690 6  23890330.031
  14131744.77547  11042991.46544  22947401.0394                   22947403.8714
  -1378018.88046   -523589.59443  23928210.5944                   23928215.5234
 -15403793.43847 -11916747.19945  21754740.3834                   21754741.7544
   5542570.17047   4381412.60445  22775145.9454                   22775146.2154
 11  8 23 18  0  0.0000000  0  9G07G08G24G28G17G13G26G11G19
 -12826814.091 8  -9982905.061 8  20296787.336
 -20852714.34148 -16214401.62946  20812603.8914                   20812605.1024
  -6937658.25347  -5363337.36344  22924842.2034                   22924846.9024
 -12321274.72147  -9562559.84945  22380181.0704                   22380181.4654
  -4655377.108 7  -3583949.326 6  23871378.852
  14240090.88747  11127416.84444  22968018.9694                   22968022.1174
  -1459165.22046   -586820.47243  23912769.1724                   23912774.0554
 -15438042.54547 -11943434.80745  21748223.2424                   21748223.8714
   5635084.39347   4453501.53445  22792750.7194                   22792751.1254
 11  8 23 18  0 30.0000000  0  9G07G08G24G28G17G13G26G11G19
 -12830918.098 8  -9986103.006 7  20296006.188
 -20908670.43948 -16258003.78046  20801956.0634                   20801956.5784
  -7001250.34447  -5412889.54944  22912740.7664                   22912745.8634
 -12352215.56347  -9586669.59045  22374292.7894                   22374293.3794
  -4754786.705 7  -3661411.220 6  23852462.336
  14348585.25547  11211957.75144  22988665.0784                   22988668.1254
  -1539880.36646   -649715.38743  23897409.0394                   23897413.3954
 -15471794.00547 -11969734.62745  21741800.6644                   21741801.4414
   5727869.35147   4525801.42745  22810407.5234                   22810407.3484
 11  8 23 18  1  0.0000000  0  9G07G08G24G28G17G13G26G11G19
 -12834605.368 7  -9988976.212 8  20295304.836
 -20964364.11548 -16301401.42746  20791357.7734                   20791358.2304
  -7064580.29047  -5462237.46644  22900689.8134                   22900694.3244
 -12383055.03347  -9610700.33945  22368424.3524                   22368425.3324
  -4854017.649 6  -3738733.875 6  23833579.016
  14457223.61147  11296610.85544  23009338.0474                   23009341.1604
  -1620163.14946   -712273.37643  23882130.7194                   23882135.5664
 -15505046.72747 -11995645.82145  21735472.7034                   21735473.2814
   5820921.12347   4598309.22545  22828114.4774                   22828114.2894
 11  8 23 18  1 30.0000000  0  9G07G08G24G28G17G13G26G11G19
 -12837874.031 8  -9991523.235 8  20294682.484
 -21019792.51048 -16344592.38446  20780810.2894                   20780810.5124
  -7127644.65147  -5511378.44544  22888689.1564                   22888692.9064
 -12413792.77947  -9634651.81845  22362575.5944                   22362576.2344
  -4953067.312 7  -3815915.267 6  23814730.156
  14566003.17647  11381373.96544  23030038.4304                   23030041.3554
  -1700010.20446   -774491.79143  23866937.7274                   23866940.8404
 -15537798.40547 -12021166.59945  21729240.0784                   21729241.0634
   5914237.28947   4671023.04744  22845871.7344                   22845871.9414
 11  8 23 18  2  0.0000000  0  9G07G08G24G28G17G13G26G11G19
 -12840722.695 8  -9993742.993 8  20294140.102
 -21074953.35148 -16387574.85346  20770313.5394                   20770314.1804
  -7190440.63447  -5560310.29544  22876739.5704                   22876743.1804
 -12444430.16047  -9658525.11245  22356745.4534                   22356746.3594
  -5051934.105 7  -3892954.211 6  23795916.664
  14674921.01547  11466244.83444  23050765.2424                   23050768.0824
  -1779419.41846   -836369.07043  23851825.0704                   23851828.6954
 -15570047.33047 -12046295.61645  21723103.3204                   21723104.5744
   6007814.47347   4743940.27145  22863679.8204                   22863679.0044
 11  8 23 18  2 30.0000000  0  9G07G08G24G28G17G13G26G11G19
 -12843149.847 8  -9995634.290 8  20293678.844
 -21129844.03548 -16430346.80246  20759868.1644                   20759868.6764
  -7252964.74446  -5609030.27544  22864841.4614                   22864845.5744
 -12474968.12647  -9682320.90645  22350934.4144                   22350935.0474
  -5150615.850 7  -3969848.936 6  23777137.844
  14783973.91147  11551220.93144  23071517.8284                   23071520.5514
  -1858387.63346   -897902.73443  23836799.2114                   23836802.1724
 -15601791.19048 -12071031.08245  21717062.9614                   21717063.5784
   6101650.37147   4817059.09944  22881536.0554                   22881535.3484
 11  8 23 18  3  0.0000000  0  9G07G08G24G28G17G13G26G11G19
 -12845154.146 8  -9997196.102 8  20293297.328
 -21184462.14948 -16472906.36046  20749474.7034                   20749475.1254
  -7315214.06447  -5657536.17744  22852995.9844                   22853000.2504
 -12505407.29547  -9706039.73645  22345141.7194                   22345142.7894
  -5249110.755 7  -4046598.112 6  23758395.172
  14893158.81347  11636299.89344  23092294.6484                   23092298.0004
  -1936912.50847   -959090.86843  23821856.9384                   23821860.4184
 -15633028.49448 -12095371.82345  21711118.3524                   21711119.5274
   6195742.20647   4890377.37344  22899441.2814                   22899440.6174
 11  8 23 18  3 30.0000000  0  9G07G08G24G28G17G13G26G11G19
 -12846732.787 8  -9998426.224 8  20292996.828
 -21238804.36648 -16515250.93346  20739133.5554                   20739134.0314
  -7377184.64047  -5705824.84844  22841203.0704                   22841206.9804
 -12535747.28547  -9729681.28545  22339368.3594                   22339368.9024
  -5347415.652 7  -4123199.174 6  23739688.313
  15002474.04247  11721480.40744  23113096.5084                   23113099.9494
  -2014990.25646  -1019930.63243  23806998.5084                   23807002.9104
 -15663756.00547 -12119315.32145  21705271.6334                   21705272.4804
   6290088.22747   4963893.69445  22917394.7664                   22917393.9884
 11  8 23 18  4  0.0000000  0  9G07G08G24G28G17G13G26G11G19
 -12847885.642 8  -9999324.573 8  20292778.023
 -21292868.99548 -16557379.21646  20728844.9454                   20728845.7154
  -7438874.35247  -5753894.66644  22829463.9614                   22829468.0234
 -12565989.96247  -9753246.99545  22333613.5474                   22333613.6724
  -5445529.763 7  -4199651.575 6  23721016.945
  15111915.42847  11806759.21944  23133923.0164                   23133926.3524
  -2092619.52046  -1080420.89743  23792225.5704                   23792230.0274
 -15693972.83747 -12142860.87845  21699521.3204                   21699522.3404
   6384684.58947   5037605.11144  22935395.5004                   22935395.0784
 11  8 23 18  4 30.0000000  0  9G07G08G24G28G17G13G26G11G19
 -12848612.902 8  -9999891.280 8  20292639.102
 -21346654.85148 -16599290.26946  20718609.6094                   20718610.8674
  -7500281.43246  -5801744.26344  22817778.2974                   22817782.5664
 -12596137.85047  -9776738.84745  22327876.2194                   22327876.8134
  -5543452.382 6  -4275954.829 6  23702383.805
  15221478.60147  11892132.93544  23154771.9924                   23154775.3554
  -2169799.06846  -1140560.74143  23777538.2584                   23777543.4344
 -15723678.48847 -12166008.12145  21693868.6884                   21693869.6174
   6479527.23247   5111508.40544  22953443.3134                   22953443.2424
 11  8 23 18  5  0.0000000  0  9G07G08G24G28G17G13G26G11G19
 -12848909.676 8 -10000122.545 8  20292583.141
 -21400156.44548 -16640979.81346  20708429.2194                   20708430.4694
  -7561399.53347  -5849368.67644  22806147.9774                   22806152.5084
 -12626187.67147  -9800154.27345  22322157.7344                   22322158.2154
  -5641178.731 7  -4352105.113 6  23683786.719
  15331163.92447  11977601.81244  23175644.3914                   23175648.2704
  -2246522.71746  -1200345.30943  23762938.5164                   23762943.8554
 -15752867.70748 -12188752.94545  21688313.3204                   21688314.8794
   6574616.53647   5185603.90644  22971538.5704                   22971538.1414
 11  8 23 18  5 30.0000000  0  9G07G08G24G28G17G13G26G11G19
 -12848777.829 8 -10000019.824 8  20292607.781
 -21453374.12248 -16682448.13546  20698302.3364                   20698303.2114
  -7622228.63047  -5896767.89744  22794571.8284                   22794576.5904
 -12656143.65847  -9823496.59845  22316457.5864                   22316457.7384
  -5738709.558 6  -4428103.062 6  23665226.695
  15440965.17047  12063161.02743  23196539.0474                   23196543.2664
  -2322791.15647  -1259775.22343  23748424.5554                   23748429.8164
 -15781542.02847 -12211096.55245  21682857.3984                   21682858.6804
   6669946.57947   5259886.99144  22989679.6644                   22989678.8554
 11  8 23 18  6  0.0000000  0  9G07G08G24G28G17G13G26G11G19
 -12848214.295 8  -9999580.714 8  20292715.031
 -21506304.19348 -16723692.33446  20688229.7814                   20688231.0944
  -7682764.50847  -5943938.64644  22783053.0784                   22783057.4264
 -12686005.04547  -9846765.18845  22310774.9144                   22310775.2704
  -5836041.726 7  -4503946.223 6  23646705.609
  15550880.67547  12148809.27644  23217455.5864                   23217459.7664
  -2398600.53347  -1318847.38043  23733998.9304                   23734002.8444
 -15809697.90747 -12233036.17545  21677499.2114                   21677500.6054
   6765516.34847   5334356.87644  23007865.4384                   23007865.5394
 11  8 23 18  6 30.0000000  0  9G07G08G24G28G17G13G26G11G19
 -12847219.787 8  -9998805.788 8  20292904.758
 -21558946.13948 -16764712.03646  20678212.7504                   20678213.7734
  -7743005.96846  -5990879.99744  22771589.2584                   22771593.4264
 -12715774.42947  -9869962.10645  22305110.2734                   22305111.1054
  -5933175.124 7  -4579634.465 6  23628220.977
  15660905.65147  12234542.82744  23238392.7584                   23238396.6094
  -2473950.20847  -1377561.39543  23719660.9534                   23719663.4654
 -15837335.38647 -12254571.85545  21672240.1024                   21672241.8054
   6861321.26247   5409009.98744  23026096.6174                   23026096.2624
 11  8 23 18  7  0.0000000  0  9G07G08G24G28G17G13G26G11G19
 -12845790.284 8  -9997691.901 8  20293176.750
 -21611294.74248 -16805503.14946  20668251.0084                   20668251.9654
  -7802947.28047  -6037587.45244  22760181.9144                   22760185.5984
 -12745450.08547  -9893085.97645  22299463.0314                   22299464.1804
  -6030105.025 7  -4655164.140 6  23609775.438
  15771039.96347  12320361.59443  23259350.3984                   23259354.5944
  -2548835.01147  -1435913.15543  23705410.4384                   23705413.7584
 -15864450.10047 -12275700.18545  21667079.9774                   21667081.6414
   6957360.81447   5483845.95044  23044372.1094                   23044372.3134
 11  8 23 18  7 30.0000000  0  9G07G08G24G28G17G13G26G11G19
 -12843926.406 7  -9996239.524 8  20293531.188
 -21663349.22248 -16846065.07946  20658345.1254                   20658346.0824
  -7862586.99246  -6084059.87944  22748833.7034                   22748837.7854
 -12775034.20347  -9916138.53145  22293833.3834                   22293834.9064
  -6126831.533 7  -4730535.356 6  23591369.414
  15881278.71147  12406261.69943  23280328.7504                   23280332.4264
  -2623253.73146  -1493901.69543  23691249.9694                   23691253.2704
 -15891041.98047 -12296421.10845  21662020.0864                   21662021.3634
   7053630.69347   5558861.39544  23062691.5234                   23062691.6914
 11  8 23 18  8  0.0000000  0  9G07G08G24G28G17G13G26G11G19
 -12841627.046 7  -9994447.830 8  20293968.625
 -21715107.55048 -16886396.24746  20648495.7504                   20648497.2464
  -7921922.81746  -6130295.53644  22737542.0004                   22737546.0984
 -12804528.12247  -9939120.79645  22288220.8134                   22288222.2974
  -6223353.330 7  -4805747.064 6  23573001.586
  15991618.36147  12492240.47443  23301325.8594                   23301329.2274
  -2697204.71846  -1551525.79543  23677176.6484                   23677180.8284
 -15917109.95647 -12316733.79145  21657059.4774                   21657060.7274
   7150127.73046   5634053.80944  23081055.1644                   23081054.1914
 11  8 23 18  8 30.0000000  0  9G07G08G24G28G17G13G26G11G19
 -12838889.230 8  -9992314.488 8  20294489.695
 -21766565.15848 -16926493.07846  20638703.5474                   20638705.2774
  -7980950.01846  -6176290.68244  22726309.4614                   22726313.5944
 -12833931.04648  -9962032.16245  22282625.7194                   22282626.2504
  -6319666.502 7  -4880796.198 6  23554673.977
  16102058.05247  12578297.18443  23322341.6484                   23322345.1214
  -2770683.67446  -1608782.06843  23663194.4224                   23663198.6724
 -15942650.54347 -12336635.52145  21652199.4534                   21652200.9454
   7246850.80047   5709422.39744  23099460.2584                   23099460.6294
 11  8 23 18  9  0.0000000  0  9G07G08G24G28G17G13G26G11G19
 -12835712.027 7  -9989838.772 8  20295094.266
 -21817720.06248 -16966354.04946  20628969.5634                   20628970.3834
  -8039665.97546  -6222043.30744  22715136.1644                   22715140.1684
 -12863243.75047  -9984873.21645  22277047.8674                   22277048.5164
  -6415769.513 7  -4955681.552 6  23536386.281
  16212594.12747  12664428.97243  23343376.9224                   23343379.9264
  -2843688.58246  -1665668.90143  23649302.0784                   23649305.9224
 -15967662.34347 -12356125.22745  21647439.4614                   21647440.8094
   7343796.72847   5784964.59744  23117908.9924                   23117908.4264
 11  8 23 18  9 30.0000000  0  9G07G08G24G28G17G13G26G11G19
 -12832095.240 8  -9987020.524 8  20295782.438
 -21868571.47348 -17005978.52546  20619292.7894                   20619293.7934
  -8098068.76846  -6267551.93244  22704022.5554                   22704026.7344
 -12892468.46247 -10007645.70745  22271486.3914                   22271487.0084
  -6511661.962 7  -5030402.830 6  23518138.695
  16323222.65047  12750632.79143  23364428.7734                   23364432.4694
  -2916218.05947  -1722185.32243  23635500.0704                   23635504.5474
 -15992144.71147 -12375202.36445  21642780.3984                   21642781.9924
   7440961.87847   5860677.62644  23136398.8834                   23136398.4774
 11  8 23 18 10  0.0000000  0  9G07G08G24G28G17G13G26G11G19
 -12828038.176 8  -9983859.199 8  20296554.625
 -21919116.48848 -17045364.26046  20609674.2274                   20609675.1994
  -8156155.69346  -6312814.41844  22692969.0944                   22692973.1174
 -12921606.05747 -10030350.31845  22265941.6414                   22265942.4844
  -6607341.970 7  -5104958.599 6  23499931.164
  16433940.12447  12836905.94143  23385496.9384                   23385501.1094
  -2988269.91447  -1778329.58743  23621788.5554                   23621792.7234
 -16016095.89947 -12393865.60645  21638223.0314                   21638224.1454
   7538343.30847   5936559.20044  23154929.8054                   23154929.8674
 11  8 23 18 10 30.0000000  0  9G07G08G24G28G17G13G26G11G19
 -12823539.758 8  -9980353.972 8  20297410.859
 -21969353.36848 -17084509.87946  20600114.5474                   20600115.6334
  -8213924.26447  -6357828.84544  22681976.2734                   22681979.8284
 -12950657.51847 -10052987.80545  22260413.1564                   22260414.5864
  -6702807.859 7  -5179347.524 6  23481765.008
  16544743.29947  12923245.88244  23406583.0554                   23406586.3404
  -3059842.18347  -1834100.17443  23608169.3834                   23608171.4924
 -16039515.13847 -12412114.33545  21633766.8204                   21633767.5944
   7635937.86846   6012606.83344  23173502.1954                   23173501.8834
 11  8 23 18 11  0.0000000  0  9G07G08G24G28G17G13G26G11G19
 -12818595.430 7  -9976501.271 8  20298351.766
 -22019276.07348 -17123410.68346  20590614.9304                   20590615.9024
  -8271367.93247  -6402590.07644  22671045.1804                   22671048.0594
 -12979619.93047 -10075555.90845  22254901.9384                   22254902.6954
  -6798055.062 7  -5253566.043 6  23463639.820
  16655632.54847  13009652.90343  23427684.0084                   23427688.8714
  -3130929.20047  -1889492.58343  23594641.7664                   23594643.8054
 -16062397.55947 -12429944.76245  21629412.1484                   21629413.0704
   7733746.04447   6088820.93944  23192114.0474                   23192113.4144
 11  8 23 18 11 30.0000000  0  9G07G08G24G28G17G13G26G11G19
 -12813206.623 8  -9972302.232 8  20299377.266
 -22068884.94148 -17162066.93246  20581173.9844                   20581174.8954
  -8328486.71047  -6447098.14444  22660175.2664                   22660179.6804
 -13008497.11047 -10098057.59945  22249406.9774                   22249407.6764
  -6893084.142 7  -5327614.592 6  23445556.164
  16766602.17847  13096122.52043  23448801.5314                   23448805.2304
  -3201531.20646  -1944507.08543  23581206.4144                   23581209.5164
 -16084744.01747 -12447357.55445  21625159.4844                   21625160.8834
   7831762.46947   6165197.29744  23210766.4384                   23210766.4804
 11  8 23 18 12  0.0000000  0  9G07G08G24G28G17G13G26G11G19
 -12807372.004 8  -9967755.802 8  20300487.391
 -22118177.53448 -17200476.73746  20571794.4924                   20571795.2384
  -8385277.64447  -6491350.78944  22649368.5784                   22649372.2584
 -13037289.26147 -10120493.02545  22243928.1414                   22243928.9654
  -6987892.933 7  -5401491.466 6  23427514.258
  16877649.27747  13182652.51943  23469932.8674                   23469936.8594
  -3271645.62346  -1999141.67543  23567864.3134                   23567867.4264
 -16106553.00447 -12464351.53645  21621009.3594                   21621010.7114
   7929984.64847   6241733.99244  23229456.4144                   23229457.2504
 11  8 23 18 12 30.0000000  0  9G07G08G24G28G17G13G26G11G19
 -12801091.556 7  -9962861.968 8  20301682.078
 -22167152.09648 -17238638.72946  20562474.7664                   20562475.9844
  -8441738.42147  -6535346.14144  22638624.4064                   22638628.0164
 -13065998.64547 -10142863.96345  22238464.5004                   22238465.8794
  -7082480.736 7  -5475196.144 6  23409514.844
  16988770.34447  13269240.12643  23491079.3754                   23491082.4574
  -3341271.32347  -2053395.43243  23554614.3284                   23554618.4924
 -16127823.76047 -12480926.12845  21616961.5554                   21616962.8874
   8028408.80247   6318428.06944  23248186.9774                   23248186.7734
 11  8 23 18 13  0.0000000  0  9G07G08G24G28G17G13G26G11G19
 -12794360.580 8  -9957617.068 8  20302963.422
 -22215802.92448 -17276548.45746  20553217.1024                   20553217.5474
  -8497863.17147  -6579079.65544  22627943.8834                   22627947.2974
 -13094622.41547 -10165168.19145  22233017.8914                   22233018.8364
  -7176842.768 7  -5548724.928 6  23391558.359
  17099965.27046  13355885.31943  23512237.6954                   23512243.3754
  -3410402.58147  -2107263.87643  23541458.6334                   23541463.8014
 -16148551.85447 -12497077.85145  21613017.3204                   21613018.4414
   8127035.31247   6395279.81144  23266955.2974                   23266954.6214
 11  8 23 18 13 30.0000000  0  9G07G08G24G28G17G13G26G11G19
 -12787182.018 8  -9952023.413 8  20304329.234
 -22264131.55148 -17314207.12846  20544019.5784                   20544021.2034
  -8553652.80247  -6622552.04844  22617327.7974                   22617331.9064
 -13123165.15847 -10187409.28245  22227585.9454                   22227587.2704
  -7270980.895 7  -5622079.259 6  23373643.828
  17211227.28347  13442582.76643  23533411.3754                   23533415.3794
  -3479040.66447  -2160748.02643  23528397.8594                   23528401.4654
 -16168739.55947 -12512808.50645  21609175.5944                   21609176.4694
   8225857.62747   6472284.18744  23285760.2584                   23285760.0824
 11  8 23 18 14  0.0000000  0  9G07G08G24G28G17G13G26G11G19
 -12779552.383 8  -9946078.266 8  20305781.109
 -22312133.26248 -17351611.04846  20534885.9694                   20534886.9344
  -8609101.89247  -6665759.06144  22606775.9774                   22606780.0474
 -13151625.46347 -10209586.12245  22222170.1484                   22222170.5274
  -7364890.873 7  -5695255.757 6  23355773.828
  17322555.83446  13529332.07843  23554596.1254                   23554601.3284
  -3547181.20447  -2213844.53243  23515431.5164                   23515434.4884
 -16188382.63447 -12528114.75745  21605437.7344                   21605438.6844
   8324875.25747   6549440.70944  23304602.6484                   23304602.7974
 11  8 23 18 14 30.0000000  0  9G07G08G24G28G17G13G26G11G19
 -12771471.969 8  -9939781.861 8  20307319.016
 -22359806.53048 -17388759.04346  20525813.5634                   20525814.9964
  -8664208.80747  -6708699.48644  22596289.8444                   22596293.4534
 -13180004.95147 -10231699.99845  22216769.3524                   22216770.0784
  -7458572.351 7  -5768254.230 6  23337946.547
  17433946.75946  13616129.93143  23575793.3134                   23575798.3364
  -3614823.24746  -2266552.55943  23502558.9454                   23502562.5554
 -16207481.45347 -12542996.93245  21601803.2974                   21601804.1484
   8424084.62846   6626746.66944  23323481.9694                   23323481.7814
 11  8 23 18 15  0.0000000  0  9G07G08G24G28G17G13G26G11G19
 -12762938.337 8  -9933132.295 8  20308942.945
 -22407148.12848 -17425648.59746  20516805.0394                   20516806.0124
  -8718969.72447  -6751370.29344  22585868.3444                   22585872.9414
 -13208303.34747 -10253750.66845  22211384.7894                   22211385.1644
  -7552022.420 7  -5841072.371 6  23320163.703
  17545397.93947  13702974.85243  23597002.9774                   23597006.8674
  -3681963.25146  -2318869.36343  23489782.7344                   23489785.9654
 -16226033.22747 -12557452.83545  21598273.3524                   21598273.7074
   8523483.93546   6704200.58444  23342396.6884                   23342396.9184
 11  8 23 18 15 30.0000000  0  9G07G08G24G28G17G13G26G11G19
 -12753951.146 8  -9926129.317 7  20310653.203
 -22454155.97948 -17462278.08746  20507859.4694                   20507860.7424
  -8773382.26147  -6793769.63144  22575513.8834                   22575518.4804
 -13236521.97247 -10275739.20845  22206015.0394                   22206015.6374
  -7645239.803 7  -5913709.224 6  23302424.555
  17656906.13346  13789864.09043  23618221.9144                   23618226.7424
  -3748599.62846  -2370793.75443  23477103.1094                   23477105.2464
 -16244037.18448 -12571481.88345  21594847.0704                   21594848.1024
   8623069.78246   6781799.89444  23361346.6564                   23361347.0824
 11  8 23 18 16  0.0000000  0  9G07G08G24G28G17G13G26G11G19
 -12744510.369 8  -9918772.888 7  20312449.617
 -22500828.96148 -17498646.64046  20498978.2894                   20498979.1564
  -8827444.91847  -6835896.32144  22565226.6414                   22565230.7464
 -13264662.63447 -10297666.97545  22200660.1024                   22200660.8014
  -7738223.900 7  -5986164.264 6  23284730.406
  17768467.12546  13876794.50843  23639450.8524                   23639456.6564
  -3814731.54046  -2422325.01643  23464518.3134                   23464520.8324
 -16261493.14947 -12585083.92345  21591525.1804                   21591526.1524
   8722838.64047   6859541.81244  23380332.8054                   23380332.9264
 11  8 23 18 16 30.0000000  0  9G07G08G24G28G17G13G26G11G19
 -12734612.558 8  -9911060.329 8  20314333.203
 -22547161.74148 -17534750.09146  20490161.4614                   20490162.0474
  -8881152.29547  -6877746.17244  22555006.4454                   22555010.4574
 -13292723.41547 -10319532.51445  22195320.0474                   22195321.4184
  -7830970.467 7  -6058434.253 6  23267081.477
  17880080.46446  13963765.67143  23660690.8284                   23660696.1454
  -3880354.13846  -2473459.45343  23452030.6564                   23452033.3834
 -16278397.37448 -12598256.03145  21588308.6254                   21588309.6174
   8822790.36447   6937426.20644  23399353.3754                   23399353.5514
 11  8 23 18 17  0.0000000  0  9G07G08G24G28G17G13G26G11G19
 -12724259.639 8  -9902993.142 8  20316303.180
 -22593155.11248 -17570589.07546  20481409.1644                   20481409.8164
  -8934504.45847  -6919319.23544  22544853.9774                   22544857.4964
 -13320708.07147 -10341338.73445  22189995.0394                   22189996.0314
  -7923480.849 7  -6130520.167 6  23249477.141
  17991740.10447  14050772.98043  23681939.5864                   23681944.0554
  -3945468.11347  -2524197.57744  23439639.9694                   23439642.6134
 -16294751.35048 -12610999.38145  21585196.2504                   21585197.3794
   8922918.92747   7015448.40044  23418407.7504                   23418407.3404
 11  8 23 18 17 30.0000000  0  9G07G08G24G28G17G13G26G11G19
 -12713448.061 8  -9894568.555 7  20318360.844
 -22638803.92848 -17606159.57246  20472722.4384                   20472723.3134
  -8987496.43947  -6960611.64045  22534769.6884                   22534774.4144
 -13348614.85547 -10363084.27545  22184684.5004                   22184685.4884
  -8015750.896 7  -6202418.820 6  23231918.625
  18103445.82047  14137816.18343  23703196.2894                   23703200.6684
  -4010068.95747  -2574535.82444  23427346.9304                   23427349.8754
 -16310551.35348 -12623311.07145  21582189.7664                   21582191.2344
   9023224.18047   7093608.25644  23437494.6564                   23437495.0394
 11  8 23 18 18  0.0000000  0  9G07G08G24G28G17G13G26G11G19
 -12702177.279 8  -9885786.150 8  20320505.469
 -22684106.04548 -17641459.91546  20464101.6564                   20464102.5824
  -9040125.54847  -7001621.26644  22524754.6254                   22524758.4694
 -13376445.03148 -10384770.10745  22179388.5004                   22179389.1374
  -8107779.380 7  -6274129.241 6  23214406.391
  18215193.98847  14224892.44643  23724461.8444                   23724466.0394
  -4074155.11946  -2624473.07044  23415151.2504                   23415155.2974
 -16325796.67848 -12635190.53545  21579288.6334                   21579289.5664
   9123703.27847   7171903.58044  23456614.9844                   23456615.9774
 11  8 23 18 18 30.0000000  0  9G07G08G24G28G17G13G26G11G19
 -12690447.091 8  -9876645.771 8  20322737.695
 -22729060.06648 -17676489.01046  20455547.3754                   20455548.2894
  -9092389.78747  -7042346.60044  22514809.4454                   22514813.0514
 -13404199.61448 -10406397.03645  22174106.9064                   22174107.6844
  -8199565.055 7  -6345650.473 6  23196939.680
  18326981.49347  14311999.35843  23745734.1024                   23745738.3364
  -4137724.72947  -2674007.77344  23403054.0944                   23403057.9574
 -16340486.67647 -12646637.27745  21576492.9614                   21576493.7664
   9224352.52047   7250331.47045  23475767.8984                   23475768.8244
 11  8 23 18 19  0.0000000  0  9G07G08G24G28G17G13G26G11G19
 -12678257.313 8  -9867147.279 7  20325056.984
 -22773664.11648 -17711245.40346  20447059.4384                   20447060.3164
  -9144286.97647  -7082785.91544  22504933.5164                   22504937.5634
 -13431880.34147 -10427966.40845  22168839.2504                   22168840.0554
  -8291107.156 7  -6416981.902 6  23179520.016
  18438804.27946  14399133.74543  23767013.2274                   23767017.8364
  -4200776.88747  -2723139.30944  23391055.9304                   23391059.8094
 -16354620.99848 -12657651.02345  21573803.6644                   21573804.4224
   9325168.92947   7328889.63645  23494952.6884                   23494953.2154
 11  8 23 18 19 30.0000000  0  9G07G08G24G28G17G13G26G11G19
 -12665604.957 7  -9857288.324 8  20327465.023
 -22817913.80848 -17745725.67246  20438638.5004                   20438639.9304
  -9195812.35947  -7122935.49944  22495128.4534                   22495132.0984
 -13459485.83848 -10449477.17245  22163586.2114                   22163586.8754
  -8382401.781 7  -6488120.469 6  23162146.859
  18550661.43446  14486294.94843  23788299.1484                   23788303.5864
  -4263307.30646  -2771864.28044  23379156.9844                   23379160.4804
 -16368196.47948 -12668229.29445  21571219.7664                   21571220.9384
   9426151.39847   7407577.19145  23514168.7114                   23514170.0984
 11  8 23 18 20  0.0000000  0  9G07G08G24G28G17G13G26G11G19
 -12652490.336 8  -9847069.167 8  20329960.531
 -22861807.97148 -17779928.90346  20430285.9064                   20430286.8984
  -9246964.70047  -7162794.40245  22485393.7974                   22485397.9024
 -13487017.97648 -10470930.78545  22158346.9924                   22158347.8444
  -8473448.824 7  -6559066.124 6  23144821.344
  18662548.84046  14573479.68343  23809590.0474                   23809595.9844
  -4325315.41047  -2820182.27143  23367357.0394                   23367359.7154
 -16381213.03447 -12678372.05545  21568743.0474                   21568744.5004
   9527296.09346   7486391.13544  23533415.9064                   23533416.6994
 11  8 23 18 20 30.0000000  0  9G07G08G24G28G17G13G26G11G19
 -12638912.461 8  -9836489.024 8  20332544.406
 -22905343.90148 -17813853.00746  20422001.5164                   20422002.4884
  -9297741.04147  -7202360.31844  22475732.6024                   22475736.0474
 -13514477.20948 -10492327.58445  22153122.0164                   22153123.0394
  -8564246.307 7  -6629817.273 7  23127542.820
  18774463.68246  14660685.76643  23830888.0864                   23830893.4734
  -4386798.74347  -2868091.32143  23355656.3834                   23355659.4224
 -16393669.52448 -12688078.41745  21566372.8834                   21566373.8984
   9628600.64646   7565329.65544  23552694.3674                   23552695.0274
 11  8 23 18 21  0.0000000  0  9G07G08G24G28G17G13G26G11G19
 -12624870.772 7  -9825547.486 8  20335216.883
 -22948519.43948 -17847496.27046  20413785.0784                   20413786.5204
  -9348138.84747  -7241631.27844  22466141.1644                   22466144.8284
 -13541864.34048 -10513668.19245  22147910.4384                   22147911.4454
  -8654792.928 7  -6700372.983 6  23110312.328
  18886402.68446  14747910.68043  23852190.3674                   23852194.5084
  -4447755.52747  -2915590.09244  23344057.4224                   23344060.4454
 -16405565.26348 -12697347.80845  21564109.2034                   21564110.0474
   9730061.97846   7644390.35244  23572001.2974                   23572002.0704
 11  8 23 18 21 30.0000000  0  9G07G08G24G28G17G13G26G11G19
 -12610363.474 8  -9814243.119 8  20337977.398
 -22991331.26948 -17880856.14246  20405638.7424                   20405639.5314
  -9398154.44047  -7280604.42144  22456623.2894                   22456627.5474
 -13569179.42348 -10534952.66445  22142712.6484                   22142713.0824
  -8745085.882 7  -6770731.027 6  23093130.375
  18998364.10246  14835153.04343  23873495.7734                   23873500.1484
  -4508183.06547  -2962676.45843  23332558.0554                   23332560.7274
 -16416898.07347 -12706178.57345  21561952.9614                   21561953.4104
   9831678.56646   7723572.04344  23591338.3594                   23591339.0434
 11  8 23 18 22  0.0000000  0  9G07G08G24G28G17G13G26G11G19
 -12595390.025 8  -9802575.524 8  20340826.414
 -23033778.08148 -17913931.56846  20397561.1564                   20397562.5394
  -9447786.05147  -7319278.33344  22447178.6884                   22447182.5744
 -13596423.69547 -10556181.96745  22137527.9454                   22137528.5204
  -8835124.641 7  -6840891.022 6  23075996.641
  19110343.86746  14922409.74643  23894803.9384                   23894809.0664
  -4568080.08447  -3009349.44043  23321160.0084                   23321161.7384
 -16427667.63747 -12714570.43945  21559902.9454                   21559904.0164
   9933446.79446   7802871.85344  23610704.7584                   23610705.6764
 11  8 23 18 22 30.0000000  0  9G07G08G24G28G17G13G26G11G19
 -12579950.248 8  -9790544.557 8  20343764.875
 -23075857.21748 -17946720.50446  20389554.0474                   20389554.3054
  -9497031.22647  -7357651.14945  22437808.2114                   22437812.0514
 -13623598.46947 -10577357.09845  22132356.4224                   22132356.9224
  -8924907.971 7  -6910851.974 6  23058910.977
  19222339.27846  15009678.66443  23916117.2584                   23916121.4774
  -4627445.03547  -3055607.84044  23309863.5474                   23309865.8754
 -16437873.26347 -12722522.86745  21557960.8284                   21557961.5084
  10035363.88547   7882287.70744  23630098.1884                   23630099.7074
 11  8 23 18 23  0.0000000  0  9G07G08G24G28G17G13G26G11G19
 -12564043.245 8  -9778149.517 8  20346791.625
 -23117566.50448 -17979221.25146  20381616.6564                   20381617.7934
  -9545886.90947  -7395720.45544  22428510.9924                   22428514.6994
 -13650703.48047 -10598477.87845  22127198.8364                   22127198.9024
  -9014433.440 7  -6980611.982 6  23041874.922
  19334347.62947  15096957.65343  23937431.9144                   23937436.2464
  -4686275.50047  -3101449.73644  23298668.2274                   23298671.3324
 -16447513.71147 -12730034.90945  21556126.2424                   21556127.3634
  10137427.23746   7961817.52744  23649520.6024                   23649520.8284
 11  8 23 18 23 30.0000000  0  9G07G08G24G28G17G13G26G11G19
 -12547667.551 8  -9765389.261 8  20349908.219
 -23158902.96048 -18011431.47846  20373750.7584                   20373751.7034
  -9594349.98947  -7433483.83444  22419288.4454                   22419292.5044
 -13677739.30547 -10619544.73545  22122054.1484                   22122054.0554
  -9103699.188 7  -7050169.615 6  23024887.953
  19446366.52946  15184244.76743  23958749.1644                   23958752.8754
  -4744569.18146  -3146873.32744  23287575.2344                   23287578.5634
 -16456587.60948 -12737105.47845  21554399.8674                   21554400.4844
  10239635.22247   8041460.02144  23668970.7584                   23668971.5394
 11  8 23 18 24  0.0000000  0  9G07G08G24G28G17G13G26G11G19
 -12530822.956 8  -9752263.630 8  20353113.680
 -23199864.55048 -18043349.59446  20365956.0864                   20365956.5824
  -9642418.62147  -7470939.83544  22410140.9614                   22410145.2344
 -13704707.20248 -10640558.66345  22116922.2974                   22116922.6644
  -9192704.309 7  -7119524.171 7  23007951.227
  19558392.18746  15271537.26543  23980066.8524                   23980070.5784
  -4802324.78146  -3191877.64843  23276585.1724                   23276588.5204
 -16465094.44947 -12743734.16845  21552780.8364                   21552781.9454
  10341984.45747   8121212.60844  23688446.9144                   23688446.6884
 11  8 23 18 24 30.0000000  0  9G07G08G24G28G17G13G26G11G19
 -12513508.188 8  -9738771.655 8  20356408.367
 -23240448.48548 -18074973.44246  20358233.2894                   20358234.1254
  -9690089.67347  -7508086.04844  22401069.6724                   22401073.5514
 -13731607.18347 -10661519.67045  22111803.5164                   22111803.3204
  -9281446.801 7  -7188674.098 6  22991064.188
  19670422.11846  15358832.98643  24001385.2894                   24001390.5434
  -4859540.26246  -3236461.06943  23265696.6334                   23265700.3954
 -16473033.03747 -12749920.07145  21551270.5314                   21551271.2194
  10444472.29647   8201073.19644  23707950.0864                   23707950.5004
 11  8 23 18 25  0.0000000  0  9G07G08G24G28G17G13G26G11G19
 -12495722.088 8  -9724912.384 8  20359792.727
 -23280651.79848 -18106300.69846  20350582.8594                   20350583.6294
  -9737360.16147  -7544920.12044  22392074.6644                   22392078.2544
 -13758439.38747 -10682427.86545  22106697.5474                   22106697.4264
  -9369924.549 7  -7257617.699 7  22974226.734
  19782454.42946  15446130.63943  24022704.6884                   24022709.3874
  -4916212.73946  -3280621.35243  23254912.2664                   23254916.4184
 -16480401.78148 -12755661.93645  21549868.2584                   21549869.0084
  10547097.06247   8281040.47544  23727478.5314                   23727479.2384
 11  8 23 18 25 30.0000000  0  9G07G08G24G28G17G13G26G11G19
 -12477464.999 8  -9710686.118 7  20363267.289
 -23320473.55048 -18137330.63846  20343004.7664                   20343005.6484
  -9784228.24447  -7581440.66444  22383156.0164                   22383159.6804
 -13785205.52047 -10703284.58745  22101603.7344                   22101604.7304
  -9458137.076 7  -7326354.661 6  22957440.813
  19894484.85046  15533426.82843  24044022.9774                   24044028.3554
  -4972341.69546  -3324358.16243  23244231.1484                   23244234.9024
 -16487201.11747 -12760960.08545  21548574.0634                   21548574.9654
  10649855.10247   8361111.59044  23747033.3594                   23747033.1414
 11  8 23 18 26  0.0000000  0  9G07G08G24G28G17G13G26G11G19
 -12458735.393 8  -9696091.655 8  20366831.258
 -23359910.67448 -18168060.87346  20335500.2664                   20335501.3714
  -9830690.73747  -7617645.14244  22374314.1724                   22374318.1374
 -13811905.43447 -10724089.69545  22096522.8594                   22096523.4104
  -9546082.031 7  -7394883.112 7  22940705.570
  20006511.27946  15620719.82943  24065341.3984                   24065347.1844
  -5027924.68647  -3367669.56644  23233654.2974                   23233656.7464
 -16493429.13948 -12765813.07645  21547388.8364                   21547389.9384
  10752744.59347   8441285.16744  23766612.0474                   23766612.8364
 11  8 23 18 26 30.0000000  0  9G07G08G24G28G17G13G26G11G19
 -12439534.730 8  -9681130.122 7  20370485.367
 -23398962.46448 -18198490.83946  20328068.9614                   20328069.8754
  -9876746.91147  -7653532.99544  22365550.0234                   22365553.2304
 -13838541.73548 -10744845.24845  22091454.6724                   22091455.1644
  -9633760.008 7  -7463203.535 6  22924020.922
  20118528.97046  15708006.03843  24086657.5704                   24086662.8484
  -5082961.70246  -3410555.54043  23223180.7424                   23223183.6604
 -16499087.20848 -12770221.93945  21546312.5314                   21546312.7974
  10855760.87047   8521557.50944  23786215.9384                   23786215.8444
 11  8 23 18 27  0.0000000  0  9G07G08G24G28G17G13G26G11G19
 -12419858.597 8  -9665798.101 7  20374229.297
 -23437622.81948 -18228615.80746  20320712.4304                   20320712.9534
  -9922390.70847  -7689099.52344  22356864.1024                   22356868.0864
 -13865111.57248 -10765549.00145  22086398.6414                   22086399.0594
  -9721166.005 7  -7531312.010 7  22907387.500
  20230538.74146  15795286.08343  24107972.9224                   24107978.5004
  -5137447.71546  -3453012.11944  23212812.9304                   23212815.0744
 -16504170.99348 -12774183.32345  21545344.8754                   21545345.7704
  10958904.90047   8601929.41744  23805842.9384                   23805843.3484
 11  8 23 18 27 30.0000000  0  9G07G08G24G28G17G13G26G11G19
 -12399709.493 8  -9650097.521 8  20378063.328
 -23475892.79248 -18258436.56546  20313429.9614                   20313430.0394
  -9967622.89047  -7724345.32144  22348256.7274                   22348259.8554
 -13891618.51548 -10786203.74945  22081354.5164                   22081354.6844
  -9808301.182 7  -7599209.486 7  22890805.711
  20342534.43946  15882555.17943  24129284.3054                   24129291.2774
  -5191384.12647  -3495040.44144  23202549.6024                   23202552.5744
 -16508682.87148 -12777699.06245  21544485.9844                   21544487.3484
  11062171.04747   8682396.50944  23825493.9844                   23825495.0164
 11  8 23 18 28  0.0000000  0  9G07G08G24G28G17G13G26G11G19
 -12379084.371 8  -9634026.017 8  20381988.648
 -23513767.59248 -18287949.40946  20306222.5164                   20306223.1954
 -10012438.18747  -7759266.26344  22339728.9694                   22339732.3794
 -13918061.09048 -10806808.34145  22076322.1334                   22076322.6644
  -9895161.679 7  -7666892.896 7  22874277.508
  20454515.92846  15969813.19243  24150594.2344                   24150600.6334
  -5244766.61546  -3536637.15044  23192391.0704                   23192394.5514
 -16512619.58048 -12780766.61145  21543737.3134                   21543738.5554
  11165559.19047   8762958.59244  23845168.0864                   23845169.1914
 11  8 23 18 28 30.0000000  0  9G07G08G24G28G17G13G26G11G19
 -12357983.520 8  -9617583.844 8  20386003.609
 -23551245.55048 -18317153.01346  20299090.5234                   20299091.2504
 -10056835.05847  -7793861.15844  22331279.9224                   22331283.6484
 -13944440.26048 -10827363.51545  22071302.3594                   22071302.6954
  -9981747.012 7  -7734361.923 7  22857800.453
  20566479.33946  16057057.09243  24171901.0704                   24171906.9734
  -5297594.29046  -3577801.50644  23182337.3284                   23182343.1804
 -16515981.38547 -12783386.19145  21543097.6724                   21543098.4534
  11269065.67746   8843612.86943  23864865.1334                   23864865.4454
 11  8 23 18 29  0.0000000  0  9G07G08G24G28G17G13G26G11G19
 -12336407.981 8  -9600771.766 8  20390109.664
 -23588325.82848 -18346046.73446  20292034.3834                   20292035.3054
 -10100812.68947  -7828129.37544  22322912.1174                   22322914.9734
 -13970758.85248 -10847871.49145  22066294.3674                   22066294.8054
 -10068057.227 7  -7801616.598 7  22841376.547
  20678420.02746  16144283.27543  24193202.0084                   24193208.8094
  -5349867.27147  -3618533.63844  23172389.6954                   23172395.8754
 -16518769.25647 -12785558.54845  21542566.9924                   21542567.5234
  11372686.60746   8924356.35443  23884583.1414                   23884583.9804
 11  8 23 18 29 30.0000000  0  9G07G08G24G28G17G13G26G11G19
 -12314355.137 8  -9583587.765 8  20394306.086
 -23625004.23648 -18374627.31646  20285054.8834                   20285055.7074
 -10144366.82947  -7862067.59044  22314623.2504                   22314626.7114
 -13997014.71748 -10868330.61045  22061298.0784                   22061298.7464
 -10154089.226 7  -7868654.428 7  22825004.672
  20790337.34846  16231491.28143  24214499.8444                   24214505.3364
  -5401581.90047  -3658830.71144  23162549.4064                   23162553.8834
 -16520980.42847 -12787281.52845  21542146.1804                   21542146.9614
  11476421.59446   9005188.69844  23904323.3834                   23904324.5164
 11  8 23 18 30  0.0000000  0  9G07G08G24G28G17G13G26G11G19
 -12291825.388 8  -9566032.142 8  20398593.336
 -23661279.50948 -18402893.76546  20278151.5554                   20278152.3794
 -10187496.02347  -7895674.68644  22306416.1024                   22306419.5984
 -14023209.87948 -10888742.40945  22056312.9614                   22056313.7854
 -10239842.279 7  -7935474.913 6  22808686.477
  20902227.37346  16318678.06243  24235791.4384                   24235797.9924
  -5452737.73047  -3698692.38744  23152815.0864                   23152818.9304
 -16522615.50948 -12788555.59945  21541835.0394                   21541835.4454
  11580266.77647   9086106.96244  23924084.7424                   23924085.3484
 11  8 23 18 30 30.0000000  0  9G07G08G24G28G17G13G26G11G19
 -12268817.876 8  -9548104.251 8  20402971.563
 -23697148.86248 -18430843.91346  20271326.0634                   20271326.6174
 -10230197.20147  -7928948.30444  22298290.2974                   22298293.6414
 -14049344.43447 -10909106.99045  22051340.0394                   22051340.5274
 -10325314.470 7  -8002076.546 7  22792421.633
  21014087.89646  16405841.72443  24257078.1024                   24257085.3484
  -5503332.50647  -3738116.84044  23143187.7664                   23143190.3554
 -16523673.35348 -12789379.87845  21541633.4924                   21541634.3834
  11684220.06147   9167109.41744  23943866.0864                   23943867.1454
 11  8 23 18 31  0.0000000  0  9G07G08G24G28G17G13G26G11G19
 -12245332.306 8  -9529803.835 7  20407441.047
 -23732610.61648 -18458476.46046  20264577.8364                   20264578.4884
 -10272468.17447  -7961886.67145  22290246.5864                   22290249.8014
 -14075419.10948 -10929424.91345  22046378.3914                   22046378.3094
 -10410504.663 7  -8068458.453 7  22776210.781
  21125915.71646  16492979.96843  24278359.2584                   24278365.6524
  -5553365.00347  -3777103.19043  23133666.5084                   23133668.2814
 -16524153.48148 -12789753.98945  21541542.4844                   21541542.9614
  11788278.73647   9248193.98744  23963668.9224                   23963669.2234
 11  8 23 18 31 30.0000000  0  9G07G08G24G28G17G13G26G11G19
 -12221367.503 8  -9511129.999 8  20412001.102
 -23767662.14448 -18485789.33746  20257907.8834                   20257908.5274
 -10314306.22747  -7994487.72344  22282285.0944                   22282288.1054
 -14101434.14848 -10949696.34245  22041427.3674                   22041427.5784
 -10495411.058 7  -8134619.223 7  22760053.250
  21237708.25046  16580090.75443  24299631.6884                   24299638.7304
  -5602833.40147  -3815649.94543  23124252.8524                   23124254.5904
 -16524055.20248 -12789677.38345  21541560.7974                   21541562.0594
  11892440.57147   9329358.99744  23983490.1724                   23983491.1454
 11  8 23 18 32  0.0000000  0  9G07G08G24G28G17G13G26G11G19
 -12196923.110 8  -9492082.452 7  20416652.594
 -23802300.22148 -18512780.04446  20251316.3204                   20251316.8954
 -10355708.49747  -8026749.19845  22274406.0084                   22274409.6804
 -14127389.77348 -10969921.50045  22036488.0704                   22036487.9384
 -10580031.664 7  -8200557.294 6  22743950.508
  21349463.37946  16667172.35042  24320899.4224                   24320906.2464
  -5651735.72946  -3853755.60843  23114947.1954                   23114949.5944
 -16523377.43648 -12789149.23345  21541689.7664                   21541690.5434
  11996703.23747   9410602.55544  24003330.1724                   24003330.6914
 11  8 23 18 32 30.0000000  0  9G07G08G24G28G17G13G26G11G19
 -12171998.415 8  -9472660.642 7  20421395.703
 -23836522.74048 -18539446.94546  20244804.1804                   20244804.7344
 -10396672.90147  -8058669.47445  22266611.0704                   22266614.7194
 -14153286.68648 -10990100.89045  22031560.2274                   22031560.5274
 -10664365.420 7  -8266271.837 6  22727902.031
  21461177.97846  16754222.32243  24342158.1174                   24342164.7384
  -5700070.46647  -3891418.99344  23105748.5314                   23105751.0204
 -16522119.79748 -12788169.24045  21541929.0004                   21541930.1054
  12101064.53347   9491922.99643  24023190.1724                   24023189.9774
 11  8 23 18 33  0.0000000  0  9G07G08G24G28G17G13G26G11G19
 -12146593.621 8  -9452864.726 7  20426230.055
 -23870328.05848 -18565788.74646  20238371.2344                   20238372.2894
 -10437197.34947  -8090246.92445  22258899.5784                   22258902.6454
 -14179125.75347 -11010235.22945  22026642.5864                   22026643.7074
 -10748411.252 7  -8331762.053 7  22711908.547
  21572849.11646  16841238.40943  24363408.9224                   24363415.3524
  -5747836.78547  -3928639.46844  23096658.2974                   23096661.7034
 -16520282.53647 -12786737.60145  21542278.8674                   21542279.6604
  12205521.61447   9573318.04043  24043067.0084                   24043068.1134
 11  8 23 18 33 30.0000000  0  9G07G08G24G28G17G13G26G11G19
 -12120708.254 8  -9432694.345 7  20431156.047
 -23903713.71748 -18591803.55046  20232017.9844                   20232018.8444
 -10477279.55047  -8121479.78244  22251271.5394                   22251275.6844
 -14204907.72248 -11030325.05445  22021737.2664                   22021737.3524
 -10832167.948 7  -8397026.923 6  22695970.359
  21684473.77846  16928218.35442  24384650.3524                   24384657.0204
  -5795033.29647  -3965415.95644  23087677.5474                   23087680.8484
 -16517865.06547 -12784853.84345  21542738.7664                   21542739.5664
  12310071.65347   9654785.56343  24062962.3914                   24062963.0904
 11  8 23 18 34  0.0000000  0  9G07G08G24G28G17G13G26G11G19
 -12094342.356 8  -9412149.516 7  20436173.398
 -23936678.23448 -18617490.18246  20225744.9924                   20225746.1094
 -10516917.61547  -8152366.55545  22243729.4774                   22243732.6214
 -14230633.35047 -11050370.99645  22016841.6954                   22016842.3954
 -10915634.488 7  -8462065.710 7  22680087.234
  21796048.71146  17015159.55743  24405883.2274                   24405890.2464
  -5841658.77747  -4001747.48544  23078805.6484                   23078809.3674
 -16514867.35247 -12782517.96245  21543309.0164                   21543309.8954
  12414711.96847   9736323.37143  24082875.3524                   24082875.4734
 11  8 23 18 34 30.0000000  0  9G07G08G24G28G17G13G26G11G19
 -12067495.193 8  -9391229.671 7  20441282.281
 -23969219.10648 -18642846.70246  20219552.8364                   20219553.7814
 -10556108.90847  -8182905.18845  22236271.0554                   22236274.9414
 -14256302.92948 -11070373.25645  22011956.9774                   22011957.3204
 -10998809.037 7  -8526876.981 7  22664259.297
  21907571.55846  17102060.05942  24427105.0944                   24427112.3444
  -5887711.63647  -4037632.81144  23070042.7034                   23070045.5084
 -16511288.90047 -12779729.55045  21543990.1644                   21543991.0234
  12519440.23346   9817929.77343  24102804.3754                   24102804.5634
 11  8 23 18 35  0.0000000  0  9G07G08G24G28G17G13G26G11G19
 -12040165.016 8  -9369933.467 7  20446483.023
 -24001332.89448 -18667870.43246  20213441.3594                   20213442.6094
 -10594850.06347  -8213093.06245  22228899.4144                   22228902.7664
 -14281915.97148 -11090331.46945  22007083.2194                   22007083.2584
 -11081689.310 7  -8591458.951 7  22648488.219
  22019040.72346  17188918.80142  24448317.5784                   24448324.2734
  -5933189.47647  -4073070.05243  23061387.6024                   23061390.9964
 -16507128.23047 -12776487.45445  21544781.1024                   21544782.6254
  12624255.23346   9899603.71643  24122750.0634                   24122750.3444
 11  8 23 18 35 30.0000000  0  9G07G08G24G28G17G13G26G11G19
 -12012352.379 8  -9348261.318 8  20451775.547
 -24033017.72648 -18692559.91746  20207412.1024                   20207412.9224
 -10633139.47547  -8242928.92145  22221612.8594                   22221616.2074
 -14307473.26248 -11110246.21645  22002219.5864                   22002220.0784
 -11164274.254 7  -8655810.792 6  22632772.500
  22130452.76847  17275733.07143  24469517.9144                   24469525.6604
  -5978091.27047  -4108058.42244  23052843.0554                   23052846.0944
 -16502385.11348 -12772791.52745  21545684.4454                   21545685.2584
  12729153.92446   9981342.87043  24142712.3444                   24142712.7274
 11  8 23 18 36  0.0000000  0  9G07G08G24G28G17G13G26G11G19
 -11984057.564 8  -9326213.444 7  20457159.758
 -24064272.13048 -18716914.00846  20201465.2194                   20201465.7424
 -10670975.27347  -8272411.32645  22214412.5634                   22214415.6174
 -14332976.23048 -11130118.64245  21997366.2034                   21997367.3834
 -11246563.370 7  -8719932.112 7  22617113.867
  22241804.11946  17362499.98043  24490707.8444                   24490715.8674
  -6022416.70747  -4142597.73843  23044407.9144                   23044410.8444
 -16497060.23848 -12768642.27345  21546697.6024                   21546698.7424
  12834133.10246  10063144.70643  24162687.9614                   24162689.7464
 11  8 23 18 36 30.0000000  0  9G07G08G24G28G17G13G26G11G19
 -11955279.178 8  -9303788.764 7  20462636.430
 -24095092.84348 -18740930.14646  20195599.6644                   20195600.5004
 -10708353.84047  -8301537.44945  22207299.6954                   22207303.4454
 -14358424.32148 -11149948.31745  21992523.9384                   21992524.3094
 -11328554.417 7  -8783821.167 7  22601510.273
  22353093.85946  17449218.87043  24511885.7424                   24511893.9264
  -6066163.11747  -4176685.84143  23036083.5234                   23036085.9454
 -16491152.23347 -12764038.63245  21547821.6334                   21547822.6414
  12939191.51846  10145008.31144  24182680.6804                   24182682.0744
 11  8 23 18 37  0.0000000  0  9G07G08G24G28G17G13G26G11G19
 -11926017.356 8  -9280987.389 7  20468204.641
 -24125477.95948 -18764606.87046  20189817.6644                   20189818.7734
 -10745274.01247  -8330306.36845  22200274.1254                   22200277.7814
 -14383818.23347 -11169735.78245  21987691.4144                   21987692.6684
 -11410246.509 7  -8847477.290 7  22585965.617
  22464318.25146  17535886.87743  24533051.4384                   24533058.5944
  -6109329.90947  -4210322.28043  23027868.9454                   23027871.9144
 -16484661.36847 -12758980.82345  21549057.2034                   21549058.3404
  13044326.34346  10226931.43944  24202687.4304                   24202688.2384
 11  8 23 18 37 30.0000000  0  9G07G08G24G28G17G13G26G11G19
 -11896272.796 8  -9257809.840 7  20473865.180
 -24155426.60948 -18787943.48346  20184118.6884                   20184119.4064
 -10781734.51047  -8358717.08445  22193335.8674                   22193339.3634
 -14409159.77347 -11189482.43445  21982869.5474                   21982869.7074
 -11491639.208 7  -8910900.108 7  22570476.859
  22575473.47846  17622500.97542  24554203.5314                   24554211.4534
  -6151916.66847  -4243506.78844  23019765.6094                   23019768.0084
 -16477588.30247 -12753469.34245  21550403.1884                   21550403.9384
  13149533.87246  10308911.24044  24222707.4064                   24222708.9654
 11  8 23 18 38  0.0000000  0  9G07G08G24G28G17G13G26G11G19
 -11866044.473 8  -9234255.334 7  20479617.117
 -24184935.53148 -18810937.45546  20178503.5084                   20178504.1094
 -10817732.36047  -8386767.29545  22186485.8284                   22186489.1054
 -14434448.79447 -11209188.15945  21978057.1414                   21978056.9774
 -11572730.570 7  -8974088.109 7  22555045.688
  22686557.86046  17709059.88743  24575342.5394                   24575350.9064
  -6193921.59947  -4276237.87144  23011771.8284                   23011775.3954
 -16469932.27147 -12747503.60045  21551860.1884                   21551860.7934
  13254812.65147  10390946.56644  24242741.7424                   24242742.9734
 11  8 23 18 38 30.0000000  0  9G07G08G24G28G17G13G26G11G19
 -11835331.478 8  -9210323.176 7  20485461.867
 -24214001.92148 -18833586.59346  20172972.2974                   20172972.9804
 -10853264.60047  -8414454.70945  22179724.4924                   22179727.4804
 -14459684.56447 -11228852.38545  21973254.5314                   21973254.9414
 -11653517.986 7  -9037039.279 7  22539672.375
  22797569.50746  17795562.07943  24596468.3134                   24596476.8324
  -6235342.63847  -4308513.97244  23003890.0704                   23003893.4184
 -16461692.28347 -12741082.83945  21553428.1954                   21553428.6524
  13360160.80847  10473035.94044  24262788.3914                   24262789.7624
 11  8 23 18 39  0.0000000  0  9G07G08G24G28G17G13G26G11G19
 -11804133.656 8  -9186013.219 7  20491398.383
 -24242623.52448 -18855889.14946  20167525.6884                   20167526.6254
 -10888329.26947  -8441777.78445  22173051.6024                   22173054.9964
 -14484867.85247 -11248475.70545  21968462.0864                   21968462.8954
 -11734001.265 7  -9099753.444 7  22524356.633
  22908505.46246  17882005.35242  24617578.0864                   24617587.1994
  -6276178.80147  -4340334.33544  22996119.1644                   22996122.3714
 -16452868.57247 -12734207.21945  21555106.8444                   21555108.0164
  13465576.27947  10555177.79244  24282848.5314                   24282849.8794
 11  8 23 18 39 30.0000000  0  9G07G08G24G28G17G13G26G11G19
 -11772451.045 8  -9161325.502 7  20497427.398
 -24270798.33548 -18877843.56946  20162164.1484                   20162165.2544
 -10922924.08247  -8468734.73344  22166467.6954                   22166471.2974
 -14509999.27047 -11268058.61945  21963680.0004                   21963680.2154
 -11814178.979 7  -9162229.536 7  22509099.617
  23019362.85745  17968387.30642  24638674.2114                   24638683.2274
  -6316428.88247  -4371698.01544  22988459.8134                   22988462.6024
 -16443460.61048 -12726876.34445  21556897.4454                   21556898.1454
  13571056.48747  10637370.08344  24302921.2894                   24302921.9804
 11  8 23 18 40  0.0000000  0  9G07G08G24G28G17G13G26G11G19
 -11740283.684 7  -9136260.071 7  20503548.578
 -24298525.10448 -18899448.84946  20156887.9304                   20156888.7734
 -10957047.63047  -8495324.46245  22159974.7974                   22159977.9304
 -14535079.57647 -11287601.70245  21958907.2034                   21958907.9104
 -11894049.870 7  -9224466.524 7  22493900.578
  23130138.31246  18054705.49842  24659754.8054                   24659763.7894
  -6356092.29547  -4402604.57344  22980911.8594                   22980915.2344
 -16433468.92848 -12719090.61045  21558798.2974                   21558799.4534
  13676598.47847  10719610.52644  24323005.2734                   24323005.9534
 11  8 23 18 40 30.0000000  0  8G07G08G24G28G17G26G11G19
 -11707619.259 8  -9110807.313 7  20509764.414
 -24325789.26648 -18920693.65846  20151700.1724                   20151700.6994
 -10990685.69847  -8521535.89645  22153573.8054                   22153576.8444
 -14560097.21947 -11307095.95645  21954146.8054                   21954147.1844
 -11973600.767 7  -9286454.183 7  22478762.172
  -6395155.84547  -4433043.67444  22973478.1334                   22973481.0824
 -16422881.24348 -12710840.48145  21560813.1954                   21560813.7584
  13782211.99546  10801906.75043  24343103.1024                   24343103.0554
 11  8 23 18 41  0.0000000  0  8G07G08G24G28G17G26G11G19
 -11674480.915 8  -9084985.276 7  20516070.602
 -24352611.97248 -18941594.48246  20146595.8984                   20146596.4494
 -11023859.06547  -8547385.23945  22147260.5784                   22147264.5354
 -14585075.79748 -11326559.77445  21949393.3594                   21949393.5664
 -12052853.649 7  -9348209.613 7  22463681.180
  -6433641.62147  -4463032.58044  22966155.0944                   22966157.5944
 -16411721.08047 -12702144.24845  21562937.4844                   21562938.1604
  13887871.59246  10884238.85443  24363209.2424                   24363209.6994
 11  8 23 18 41 30.0000000  0  8G07G08G24G28G17G26G11G19
 -11640857.358 8  -9058785.143 7  20522469.039
 -24378979.98948 -18962141.00146  20141578.0554                   20141578.7344
 -11056554.89547  -8572862.45745  22141038.7664                   22141042.3874
 -14610004.80047 -11345984.94145  21944649.7504                   21944649.6174
 -12131796.566 7  -9409723.510 7  22448658.500
  -6471537.42947  -4492561.77244  22958943.2034                   22958945.6054
 -16399977.07747 -12692993.07645  21565172.3444                   21565173.1564
  13993585.94846  10966613.61843  24383325.7274                   24383327.1174
 11  8 23 18 42  0.0000000  0  8G07G08G24G28G17G26G11G19
 -11606749.048 8  -9032207.279 8  20528959.984
 -24404891.89048 -18982332.10746  20136646.7504                   20136647.8524
 -11088771.54347  -8597966.29145  22134908.6174                   22134911.3594
 -14634884.75447 -11365371.90145  21939914.9454                   21939915.0664
 -12210428.433 7  -9470995.047 7  22433695.555
  -6508842.71647  -4521630.82944  22951844.7734                   22951847.4454
 -16387649.63348 -12683387.27945  21567517.8984                   21567518.9734
  14099352.47746  11049029.02143  24403452.6254                   24403454.1564
 11  8 23 18 42 30.0000000  0  8G07G08G24G28G17G26G11G19
 -11572154.304 8  -9005250.377 7  20535543.031
 -24430343.65048 -19002164.65246  20131803.8204                   20131805.2544
 -11120505.47547  -8622693.97545  22128869.7504                   22128872.7274
 -14659714.85448 -11384720.01745  21935190.0634                   21935190.1294
 -12288746.624 7  -9532022.138 7  22418791.758
  -6545555.30846  -4550237.98744  22944858.4064                   22944861.3444
 -16374737.65848 -12673325.99345  21569974.8134                   21569975.5704
  14205169.87446  11131484.08243  24423589.4774                   24423590.5784
 11  8 23 18 43  0.0000000  0  8G07G08G24G28G17G26G11G19
 -11537073.503 8  -8977914.724 7  20542218.719
 -24455333.44948 -19021637.24046  20127048.5394                   20127049.6524
 -11151754.99347  -8647044.21045  22122922.8054                   22122926.1914
 -14684495.59948 -11404029.67145  21930474.2274                   21930474.1334
 -12366750.113 7  -9592804.029 7  22403948.141
  -6581674.24147  -4578382.56944  22937985.4224                   22937988.3364
 -16361240.90047 -12662809.04945  21572543.5784                   21572544.2034
  14311036.03146  11213977.11143  24443734.5784                   24443736.1684
 11  8 23 18 43 30.0000000  0  8G07G08G24G28G17G26G11G19
 -11501507.499 8  -8950200.994 7  20548986.297
 -24479860.54248 -19040749.27546  20122380.7734                   20122382.0314
 -11182518.89847  -8671016.05145  22117068.2344                   22117071.8714
 -14709228.45948 -11423302.02645  21925768.2664                   21925768.1884
 -12444438.660 7  -9653340.501 7  22389164.250
  -6617199.59646  -4606064.61744  22931224.0634                   22931227.6054
 -16347160.89848 -12651837.61145  21575222.7114                   21575223.5904
  14416947.45946  11296505.38943  24463887.5554                   24463890.0824
 11  8 23 18 44  0.0000000  0  8G07G08G24G28G17G26G11G19
 -11465454.846 8  -8922108.053 7  20555847.680
 -24503921.42648 -19059498.03046  20117802.7894                   20117803.2154
 -11212794.26347  -8694607.19944  22111307.3834                   22111310.5704
 -14733912.58747 -11442536.38345  21921070.8674                   21921070.6954
 -12521810.123 7  -9713629.881 7  22374440.844
  -6652129.04147  -4633282.32144  22924577.6724                   22924581.0594
 -16332496.15447 -12640410.53445  21578013.5004                   21578014.5634
  14522903.34446  11379068.31643  24484050.8984                   24484053.0904
 11  8 23 18 44 30.0000000  0  8G07G08G24G28G17G26G11G19
 -11428916.253 8  -8893636.463 7  20562800.219
 -24527514.90148 -19077882.57246  20113313.0554                   20113313.7114
 -11242579.68647  -8717816.58445  22105639.7584                   22105642.5864
 -14758549.27847 -11461733.78445  21916382.6644                   21916382.4064
 -12598863.996 7  -9773671.798 7  22359777.688
  -6686462.65747  -4660035.74944  22918044.1334                   22918047.7274
 -16317247.73847 -12628528.64745  21580914.9064                   21580916.0664
  14628900.12946  11461663.15143  24504221.9454                   24504223.6564
 11  8 23 18 45  0.0000000  0  8G07G08G24G28G17G26G11G19
 -11391893.228 8  -8864787.409 7  20569845.883
 -24550640.27948 -19095902.36146  20108912.0394                   20108913.3054
 -11271874.49947  -8740643.68145  22100065.2894                   22100067.9574
 -14783139.73748 -11480895.15945  21911702.8674                   21911703.1094
 -12675600.313 7  -9833466.264 7  22345175.586
  -6720200.76747  -4686325.15144  22911623.8754                   22911627.2504
 -16301417.14747 -12616193.11445  21583927.7504                   21583928.1294
  14734934.87946  11544287.57144  24524400.1334                   24524401.2584
 11  8 23 18 45 30.0000000  0  8G07G08G24G28G17G26G11G19
 -11354383.532 8  -8835559.103 7  20576983.773
 -24573293.01948 -19113553.85746  20104601.5004                   20104602.5044
 -11300674.44547  -8763085.15345  22094584.2734                   22094587.2304
 -14807682.31948 -11500019.23545  21907032.5634                   21907033.2274
 -12752015.930 7  -9893010.835 7  22330634.656
  -6753340.30947  -4712148.13444  22905317.9304                   22905321.6724
 -16285002.17947 -12603402.23845  21587051.5234                   21587052.0864
  14841007.42946  11626941.42444  24544585.4694                   24544586.6844
 11  8 23 18 46  0.0000000  0  8G07G08G24G28G17G26G11G19
 -11316388.408 8  -8805952.547 7  20584214.070
 -24595472.30648 -19130836.43846  20100381.1334                   20100382.0784
 -11328978.95247  -8785140.58545  22089198.1334                   22089201.2034
 -14832178.84947 -11519107.43545  21902370.8204                   21902371.2734
 -12828110.605 7  -9952305.325 7  22316154.258
  -6785881.54447  -4737504.94344  22899125.3594                   22899128.6214
 -16268004.24847 -12590157.09145  21590285.8054                   21590286.8554
  14947114.32846  11709622.04744  24564776.2344                   24564778.0474
